[[{"header":{"parameterUnit":"m.s-1","parameterCategory":1,"la1":30.6,"la2":28.766,"lo1":-90.7593,"lo2":-88.6598,"dy":0.0162,"dx":0.0183,"nx":116,"ny":114,"refTime":"2023-03-06T06:00:00:Z","depth":0,"parameterNumber":2,"parameterNumberName":"U-component_of_WINDS"},"data":[0.0,0.0,0.0,0.0,0.0,0.0,0.0,0.0,0.0,0.0,0.0,0.0,0.0,0.0,0.0,0.0,0.0,0.0,0.0,0.0,0.0,0.0,0.0,0.0,0.0,0.0,0.0,0.0,0.0,0.0,0.0,0.0,0.0,0.0,0.0,0.0,0.0,0.0,0.0,0.0,0.0,0.0,0.0,0.0,0.0,0.0,0.0,0.0,0.0,0.0,0.0,0.0,0.0,0.0,0.0,0.0,0.0,0.0,0.0,0.0,0.0,0.0,0.0,0.0,0.0,0.0,0.0,0.0,0.0,0.0,0.0,0.0,0.0,0.0,0.0,0.0,0.0,0.0,0.0,0.0,0.0,0.0,0.0,0.0,0.0,0.0,0.0,0.0,0.0,0.0,0.0,0.0,0.0,0.0,0.0,0.0,0.0,0.0,0.0,0.0,0.0,0.0,0.0,0.0,0.0,0.0,0.0,0.0,0.0,0.0,0.0,0.0,0.0,0.0,0.0,0.0,0.0,0.0,0.0,0.0,0.0,0.0,0.0,0.0,0.0,0.0,0.0,0.0,0.0,0.0,0.0,0.0,0.0,0.0,0.0,0.0,0.0,0.0,0.0,0.0,0.0,0.0,0.0,0.0,0.0,0.0,0.0,0.0,0.0,0.0,0.0,0.0,0.0,0.0,0.0,0.0,0.0,0.0,0.0,0.0,0.0,0.0,0.0,0.0,0.0,0.0,0.0,0.0,0.0,0.0,0.0,0.0,0.0,0.0,0.0,0.0,0.0,0.0,0.0,0.0,0.0,0.0,0.0,0.0,0.0,0.0,0.0,0.0,0.0,0.0,0.0,0.0,0.0,0.0,0.0,0.0,0.0,0.0,0.0,0.0,0.0,0.0,0.0,0.0,0.0,0.0,0.0,0.0,0.0,0.0,0.0,0.0,0.0,0.0,0.0,0.0,0.0,0.0,0.0,0.0,0.0,0.0,0.0,0.0,0.0,0.0,0.0,0.0,0.0,0.0,0.0,0.0,0.0,0.0,0.0,0.0,0.0,0.0,0.0,0.0,0.0,0.0,0.0,0.0,0.0,0.0,0.0,0.0,0.0,0.0,0.0,0.0,0.0,0.0,0.0,0.0,0.0,0.0,0.0,0.0,0.0,0.0,0.0,0.0,0.0,0.0,0.0,0.0,0.0,0.0,0.0,0.0,0.0,0.0,0.0,0.0,0.0,0.0,0.0,0.0,0.0,0.0,0.0,0.0,0.0,0.0,0.0,0.0,0.0,0.0,0.0,0.0,0.0,0.0,0.0,0.0,0.0,0.0,0.0,0.0,0.0,0.0,0.0,0.0,0.0,0.0,0.0,0.0,0.0,0.0,0.0,0.0,0.0,0.0,0.0,0.0,0.0,0.0,0.0,0.0,0.0,0.0,0.0,0.0,0.0,0.0,0.0,0.0,0.0,0.0,0.0,0.0,0.0,0.0,0.0,0.0,0.0,0.0,0.0,0.0,0.0,0.0,0.0,0.0,0.0,0.0,0.0,0.0,0.0,0.0,0.0,0.0,0.0,0.0,0.0,0.0,0.0,0.0,0.0,0.0,0.0,0.0,0.0,0.0,0.0,0.0,0.0,0.0,0.0,0.0,0.0,0.0,0.0,0.0,0.0,0.0,0.0,0.0,0.0,0.0,0.0,0.0,0.0,0.0,0.0,0.0,0.0,0.0,0.0,0.0,0.0,0.0,0.0,0.0,0.0,0.0,0.0,0.0,0.0,0.0,0.0,0.0,0.0,0.0,0.0,0.0,0.0,0.0,0.0,0.0,0.0,0.0,0.0,0.0,0.0,0.0,0.0,0.0,0.0,0.0,0.0,0.0,0.0,0.0,0.0,0.0,0.0,0.0,0.0,0.0,0.0,0.0,0.0,0.0,0.0,0.0,0.0,0.0,0.0,0.0,0.0,0.0,0.0,0.0,0.0,0.0,0.0,0.0,0.0,0.0,0.0,0.0,0.0,0.0,0.0,0.0,0.0,0.0,0.0,0.0,0.0,0.0,0.0,0.0,0.0,0.0,0.0,0.0,0.0,0.0,0.0,0.0,0.0,0.0,0.0,0.0,0.0,0.0,0.0,0.0,0.0,0.0,0.0,0.0,0.0,0.0,0.0,0.0,0.0,0.0,0.0,0.0,0.0,0.0,0.0,0.0,0.0,0.0,0.0,0.0,0.0,0.0,0.0,0.0,0.0,0.0,0.0,0.0,0.0,0.0,0.0,0.0,0.0,0.0,0.0,0.0,0.0,0.0,0.0,0.0,0.0,0.0,0.0,0.0,0.0,0.0,0.0,0.0,0.0,0.0,0.0,0.0,0.0,0.0,0.0,0.0,0.0,0.0,0.0,0.0,0.0,0.0,0.0,0.0,0.0,0.0,0.0,0.0,0.0,0.0,0.0,0.0,0.0,0.0,0.0,0.0,0.0,0.0,0.0,0.0,0.0,0.0,0.0,0.0,0.0,0.0,0.0,0.0,0.0,0.0,0.0,0.0,0.0,0.0,0.0,0.0,0.0,0.0,0.0,0.0,0.0,0.0,0.0,0.0,0.0,0.0,0.0,0.0,0.0,0.0,0.0,0.0,0.0,0.0,0.0,0.0,0.0,0.0,0.0,0.0,0.0,0.0,0.0,0.0,0.0,0.0,0.0,0.0,0.0,0.0,0.0,0.0,0.0,0.0,0.0,0.0,0.0,0.0,0.0,0.0,0.0,0.0,0.0,0.0,0.0,0.0,0.0,0.0,0.0,0.0,0.0,0.0,0.0,0.0,0.0,0.0,0.0,0.0,0.0,0.0,0.0,0.0,0.0,0.0,0.0,0.0,0.0,0.0,0.0,0.0,0.0,0.0,0.0,0.0,0.0,0.0,0.0,0.0,0.0,0.0,0.0,0.0,0.0,0.0,0.0,0.0,0.0,0.0,0.0,0.0,0.0,0.0,0.0,0.0,0.0,0.0,0.0,0.0,0.0,0.0,0.0,0.0,0.0,0.0,0.0,0.0,0.0,0.0,0.0,0.0,0.0,0.0,0.0,0.0,0.0,0.0,0.0,0.0,0.0,0.0,0.0,0.0,0.0,0.0,0.0,0.0,0.0,0.0,0.0,0.0,0.0,0.0,0.0,0.0,0.0,0.0,0.0,0.0,0.0,0.0,0.0,0.0,0.0,0.0,0.0,0.0,0.0,0.0,0.0,0.0,0.0,0.0,0.0,0.0,0.0,0.0,0.0,0.0,0.0,0.0,0.0,0.0,0.0,0.0,0.0,0.0,0.0,0.0,0.0,0.0,0.0,0.0,0.0,0.0,0.0,0.0,0.0,0.0,0.0,0.0,0.0,0.0,0.0,0.0,0.0,0.0,0.0,0.0,0.0,0.0,0.0,0.0,0.0,0.0,0.0,0.0,0.0,0.0,0.0,0.0,0.0,0.0,0.0,0.0,0.0,0.0,0.0,0.0,0.0,0.0,0.0,0.0,0.0,0.0,0.0,0.0,0.0,0.0,0.0,0.0,0.0,0.0,0.0,0.0,0.0,0.0,0.0,0.0,0.0,0.0,0.0,0.0,0.0,0.0,0.0,0.0,0.0,0.0,0.0,0.0,0.0,0.0,0.0,0.0,0.0,0.0,0.0,0.0,0.0,0.0,0.0,0.0,0.0,0.0,0.0,0.0,0.0,0.0,0.0,0.0,0.0,0.0,0.0,0.0,0.0,0.0,0.0,0.0,0.0,0.0,0.0,0.0,0.0,0.0,0.0,0.0,0.0,0.0,0.0,0.0,0.0,0.0,0.0,0.0,0.0,0.0,0.0,0.0,0.0,0.0,0.0,0.0,0.0,0.0,0.0,0.0,0.0,0.0,0.0,0.0,0.0,0.0,0.0,0.0,0.0,0.0,0.0,0.0,0.0,0.0,0.0,0.0,0.0,0.0,0.0,0.0,0.0,0.0,0.0,0.0,0.0,0.0,0.0,0.0,0.0,0.0,0.0,0.0,0.0,0.0,0.0,0.0,0.0,0.0,0.0,0.0,0.0,0.0,0.0,0.0,0.0,0.0,0.0,0.0,0.0,0.0,0.0,0.0,0.0,0.0,0.0,0.0,0.0,0.0,0.0,0.0,0.0,0.0,0.0,0.0,0.0,0.0,0.0,0.0,0.0,0.0,0.0,0.0,0.0,0.0,0.0,0.0,0.0,0.0,0.0,0.0,0.0,0.0,0.0,0.0,0.0,0.0,0.0,0.0,0.0,0.0,0.0,0.0,0.0,0.0,0.0,0.0,0.0,0.0,0.0,0.0,0.0,0.0,0.0,0.0,0.0,0.0,0.0,0.0,0.0,0.0,0.0,0.0,0.0,0.0,0.0,0.0,0.0,0.0,0.0,0.0,0.0,0.0,0.0,0.0,0.0,0.0,0.0,0.0,0.0,0.0,0.0,0.0,0.0,0.0,0.0,0.0,0.0,0.0,0.0,0.0,0.0,0.0,0.0,0.0,0.0,0.0,0.0,0.0,0.0,0.0,0.0,0.0,0.0,0.0,0.0,0.0,0.0,0.0,0.0,0.0,0.0,0.0,0.0,0.0,0.0,0.0,0.0,0.0,0.0,0.0,0.0,0.0,0.0,0.0,0.0,0.0,0.0,0.0,0.0,0.0,0.0,0.0,0.0,0.0,0.0,0.0,0.0,0.0,0.0,0.0,0.0,0.0,0.0,0.0,0.0,0.0,0.0,0.0,0.0,0.0,0.0,0.0,0.0,0.0,0.0,0.0,0.0,0.0,0.0,0.0,0.0,0.0,0.0,0.0,0.0,0.0,0.0,0.0,0.0,0.0,0.0,0.0,0.0,0.0,0.0,0.0,0.0,0.0,0.0,0.0,0.0,0.0,0.0,0.0,0.0,0.0,0.0,0.0,0.0,0.0,0.0,0.0,0.0,0.0,0.0,0.0,0.0,0.0,0.0,0.0,0.0,0.0,0.0,0.0,0.0,0.0,0.0,0.0,0.0,0.0,0.0,0.0,0.0,0.0,0.0,0.0,0.0,0.0,0.0,0.0,0.0,0.0,0.0,0.0,0.0,0.0,0.0,0.0,0.0,0.0,0.0,0.0,0.0,0.0,0.0,0.0,0.0,0.0,0.0,0.0,0.0,0.0,0.0,0.0,0.0,0.0,0.0,0.0,0.0,0.0,0.0,0.0,0.0,0.0,0.0,0.0,0.0,0.0,0.0,0.0,0.0,0.0,0.0,0.0,0.0,0.0,0.0,0.0,0.0,0.0,0.0,0.0,0.0,0.0,0.0,0.0,0.0,0.0,0.0,0.0,0.0,0.0,0.0,0.0,0.0,0.0,0.0,0.0,0.0,0.0,0.0,0.0,0.0,0.0,0.0,0.0,0.0,0.0,0.0,0.0,0.0,0.0,0.0,0.0,0.0,0.0,0.0,0.0,0.0,0.0,0.0,0.0,0.0,0.0,0.0,0.0,0.0,0.0,0.0,0.0,0.0,0.0,0.0,0.0,0.0,0.0,0.0,0.0,0.0,0.0,0.0,0.0,0.0,0.0,0.0,0.0,0.0,0.0,0.0,0.0,0.0,0.0,0.0,0.0,0.0,0.0,0.0,0.0,0.0,0.0,0.0,0.0,0.0,0.0,0.0,0.0,0.0,0.0,0.0,0.0,0.0,0.0,0.0,0.0,0.0,0.0,0.0,0.0,0.0,0.0,0.0,0.0,0.0,0.0,0.0,0.0,0.0,0.0,0.0,0.0,0.0,0.0,0.0,0.0,0.0,0.0,0.0,0.0,0.0,0.0,0.0,0.0,0.0,0.0,0.0,0.0,0.0,0.0,0.0,0.0,0.0,0.0,0.0,0.0,0.0,0.0,0.0,0.0,0.0,0.0,0.0,0.0,0.0,0.0,0.0,0.0,0.0,0.0,0.0,0.0,0.0,0.0,0.0,0.0,0.0,0.0,0.0,0.0,0.0,0.0,0.0,0.0,0.0,0.0,0.0,0.0,0.0,0.0,0.0,0.0,0.0,0.0,0.0,0.0,0.0,0.0,0.0,0.0,0.0,0.0,0.0,0.0,0.0,0.0,-5.4995,-5.5204,0.0,0.0,0.0,0.0,0.0,0.0,0.0,0.0,0.0,0.0,0.0,0.0,0.0,0.0,0.0,0.0,0.0,0.0,0.0,0.0,0.0,0.0,0.0,0.0,0.0,0.0,0.0,0.0,0.0,0.0,0.0,0.0,0.0,0.0,0.0,0.0,0.0,0.0,0.0,0.0,0.0,0.0,0.0,0.0,0.0,0.0,0.0,0.0,0.0,0.0,0.0,0.0,0.0,0.0,0.0,0.0,0.0,0.0,0.0,0.0,0.0,0.0,0.0,0.0,0.0,0.0,0.0,0.0,0.0,0.0,0.0,0.0,0.0,0.0,0.0,0.0,0.0,0.0,0.0,0.0,0.0,0.0,0.0,0.0,0.0,0.0,0.0,0.0,0.0,0.0,0.0,0.0,0.0,0.0,0.0,0.0,0.0,0.0,0.0,0.0,0.0,0.0,0.0,0.0,0.0,0.0,0.0,0.0,0.0,0.0,0.0,0.0,0.0,0.0,-5.4436,-5.4866,0.0,0.0,0.0,0.0,0.0,0.0,0.0,0.0,0.0,0.0,0.0,0.0,0.0,0.0,0.0,0.0,0.0,0.0,0.0,0.0,0.0,0.0,0.0,0.0,0.0,0.0,0.0,0.0,0.0,0.0,0.0,0.0,0.0,0.0,0.0,0.0,0.0,0.0,0.0,0.0,0.0,0.0,0.0,0.0,0.0,0.0,0.0,0.0,0.0,0.0,0.0,0.0,0.0,0.0,0.0,0.0,0.0,0.0,0.0,0.0,0.0,0.0,0.0,0.0,0.0,0.0,0.0,0.0,0.0,0.0,0.0,0.0,0.0,0.0,0.0,0.0,0.0,0.0,0.0,0.0,0.0,0.0,0.0,0.0,0.0,0.0,0.0,0.0,0.0,0.0,0.0,0.0,0.0,0.0,0.0,0.0,0.0,0.0,0.0,0.0,0.0,0.0,0.0,0.0,0.0,0.0,0.0,0.0,-5.2001,-5.2032,-5.2092,-5.2092,-5.1992,-5.1867,-5.3478,-5.403,-5.3815,-5.416,0.0,0.0,0.0,0.0,0.0,0.0,0.0,0.0,0.0,0.0,0.0,0.0,0.0,0.0,0.0,0.0,0.0,0.0,0.0,0.0,0.0,0.0,0.0,0.0,0.0,0.0,0.0,0.0,0.0,0.0,0.0,0.0,0.0,0.0,0.0,0.0,0.0,0.0,-4.2039,-4.2039,-4.209,-4.2281,0.0,0.0,0.0,0.0,0.0,0.0,0.0,0.0,0.0,0.0,0.0,0.0,0.0,0.0,0.0,0.0,0.0,0.0,0.0,0.0,0.0,0.0,0.0,0.0,0.0,0.0,0.0,0.0,0.0,0.0,0.0,0.0,0.0,0.0,0.0,0.0,0.0,0.0,0.0,0.0,0.0,0.0,0.0,0.0,-4.9009,-4.9898,0.0,0.0,0.0,0.0,0.0,0.0,0.0,0.0,0.0,0.0,0.0,0.0,0.0,-5.1898,-5.1651,-5.1651,-5.1516,-5.125,-5.125,-5.125,-5.125,-5.125,-5.1269,-5.1306,-5.1565,0.0,-5.1804,-5.2128,0.0,0.0,0.0,0.0,0.0,0.0,0.0,0.0,0.0,0.0,0.0,0.0,0.0,0.0,0.0,0.0,0.0,0.0,0.0,0.0,0.0,0.0,0.0,0.0,0.0,0.0,0.0,0.0,0.0,0.0,0.0,0.0,0.0,0.0,0.0,0.0,-4.123,-4.1253,-4.1503,-4.1503,-4.1503,-4.1561,-4.2908,-4.379,-4.4271,-4.4772,0.0,0.0,0.0,0.0,0.0,0.0,0.0,0.0,0.0,0.0,0.0,0.0,0.0,0.0,0.0,0.0,0.0,0.0,0.0,0.0,0.0,0.0,0.0,0.0,0.0,0.0,0.0,0.0,0.0,0.0,0.0,0.0,0.0,0.0,0.0,0.0,0.0,0.0,0.0,-4.8306,-4.8454,-4.8859,-4.8896,-4.9062,0.0,0.0,0.0,0.0,0.0,0.0,0.0,0.0,0.0,-4.8505,-4.898,-4.9186,-4.9065,-4.9528,-4.9714,-4.9638,-4.9638,-4.9658,-4.9695,-4.9695,-4.9714,-4.9732,-4.9824,-4.9879,-5.0025,-5.1149,-5.1591,-5.1589,0.0,0.0,0.0,0.0,-5.1523,-5.1398,0.0,0.0,0.0,0.0,0.0,0.0,0.0,0.0,0.0,0.0,0.0,0.0,0.0,0.0,0.0,-4.366,0.0,0.0,0.0,0.0,0.0,0.0,0.0,0.0,0.0,0.0,0.0,0.0,-3.9905,-3.9928,-4.0314,-4.0499,-4.0712,-4.0866,-4.1188,-4.1652,-4.2218,-4.2867,-4.3212,0.0,0.0,0.0,0.0,0.0,0.0,0.0,0.0,0.0,0.0,0.0,0.0,0.0,0.0,0.0,0.0,0.0,0.0,0.0,0.0,0.0,0.0,0.0,0.0,0.0,0.0,0.0,0.0,0.0,0.0,0.0,0.0,0.0,0.0,0.0,0.0,0.0,0.0,-4.7865,-4.7975,-4.7975,-4.8177,-4.8306,0.0,0.0,0.0,0.0,0.0,0.0,-4.6065,-4.6231,-4.636,-4.636,-4.704,-4.7406,-4.7406,-4.8012,-4.8363,-4.8457,-4.8457,-4.8476,-4.8514,-4.8514,-4.8532,-4.8587,-4.8475,-4.8529,-4.8843,-5.0192,-5.0766,-5.0766,-5.0766,-5.0766,-5.0766,-5.0766,-5.0766,-5.0766,0.0,0.0,0.0,0.0,0.0,0.0,0.0,0.0,0.0,0.0,0.0,0.0,0.0,0.0,-4.3644,-4.3268,-4.275,-4.2378,0.0,0.0,0.0,0.0,0.0,0.0,0.0,0.0,0.0,-3.6949,-3.6924,-3.6959,-3.7052,-3.7823,-3.8513,-3.9195,-4.0326,-4.1094,-4.1547,-4.1591,-4.1871,-4.23,0.0,0.0,0.0,0.0,0.0,0.0,0.0,0.0,0.0,0.0,0.0,0.0,0.0,0.0,0.0,0.0,0.0,0.0,0.0,0.0,0.0,0.0,0.0,0.0,0.0,0.0,0.0,0.0,0.0,0.0,0.0,0.0,0.0,0.0,0.0,0.0,0.0,0.0,0.0,-4.7168,-4.7828,0.0,0.0,0.0,0.0,-4.7094,-4.6397,-4.5957,-4.592,-4.6636,-4.7058,-4.7058,-4.7829,-4.8251,-4.8251,-4.8288,-4.8306,-4.8306,-4.8306,-4.8306,-4.8325,-4.8325,-4.8382,-4.8458,-4.7703,-4.7868,-4.8642,-4.8913,-4.9039,-4.9039,-4.9039,-4.9039,-4.9039,-4.9039,-4.9039,-4.9039,0.0,0.0,0.0,0.0,0.0,0.0,0.0,0.0,0.0,0.0,0.0,0.0,0.0,-4.3728,-4.3303,-4.2731,-4.2516,-4.2095,-4.1361,0.0,0.0,0.0,0.0,0.0,0.0,0.0,-3.6326,-3.6125,-3.6125,-3.6135,-3.6161,-3.6464,-3.6937,-3.7611,-3.8045,-3.8572,-3.9278,-4.0834,-4.1609,-4.1782,-4.2136,-4.2422,0.0,0.0,0.0,0.0,0.0,0.0,0.0,0.0,0.0,0.0,0.0,0.0,0.0,0.0,0.0,0.0,0.0,0.0,0.0,0.0,0.0,0.0,0.0,0.0,0.0,0.0,0.0,0.0,0.0,0.0,0.0,0.0,0.0,0.0,0.0,0.0,0.0,-4.7037,-4.7751,0.0,-4.8287,-4.7571,-4.6892,-4.6379,-4.559,-4.5131,-4.5131,-4.5388,-4.5792,-4.6305,-4.7094,-4.7516,-4.7516,-4.8049,-4.8306,-4.8306,-4.8306,-4.8306,-4.8288,-4.7755,-4.7553,-4.7554,-4.6838,-4.6708,-4.7002,-4.7125,-4.7824,-4.884,-4.884,-4.8856,-4.8909,-4.8909,-4.8909,-4.8909,0.0,0.0,0.0,0.0,0.0,0.0,0.0,0.0,0.0,0.0,0.0,-4.4242,-4.3836,-4.339,-4.292,-4.2456,-4.2074,-4.1438,-4.0486,0.0,0.0,0.0,0.0,0.0,0.0,-3.4947,-3.484,-3.4666,-3.4666,-3.4693,-3.4721,-3.4986,-3.546,-3.6116,-3.6593,-3.707,-3.7648,-3.9502,-4.053,-4.0931,-4.1503,-4.1825,-4.1994,0.0,0.0,0.0,0.0,0.0,0.0,0.0,0.0,0.0,0.0,0.0,0.0,0.0,0.0,0.0,0.0,0.0,0.0,0.0,0.0,0.0,0.0,0.0,0.0,0.0,0.0,0.0,0.0,0.0,0.0,0.0,0.0,0.0,0.0,-4.5546,-4.6223,-4.6359,-4.746,-4.8149,-4.8015,-4.7457,-4.6874,-4.6342,-4.5571,-4.5112,-4.5112,-4.5351,-4.5737,-4.6287,-4.7076,-4.7498,-4.7498,-4.8031,-4.8306,-4.8306,-4.8012,-4.7901,-4.7865,-4.7058,-4.6691,-4.6673,-4.5937,-4.5789,-4.601,-4.5787,-4.6557,-4.792,-4.8215,-4.8378,-4.8485,-4.8764,-4.8874,-4.8909,0.0,0.0,0.0,0.0,0.0,0.0,0.0,0.0,0.0,0.0,-4.4599,-4.4242,-4.382,-4.2996,-4.2462,-4.2378,-4.1393,-4.0457,-3.9727,-3.8387,0.0,0.0,0.0,0.0,-3.3339,-3.3209,-3.2895,-3.237,-3.237,-3.2437,-3.2574,-3.3308,-3.4003,-3.4707,-3.6074,-3.6693,-3.6786,-3.7539,-3.8547,-3.9675,-4.0457,-4.1053,-4.1481,0.0,0.0,0.0,0.0,0.0,0.0,0.0,0.0,0.0,0.0,0.0,0.0,0.0,0.0,0.0,0.0,0.0,0.0,0.0,0.0,0.0,0.0,0.0,0.0,0.0,0.0,0.0,0.0,0.0,0.0,0.0,0.0,0.0,-4.2772,-4.4021,-4.4954,-4.5156,-4.6937,-4.7951,-4.7446,-4.7186,-4.7057,-4.7057,-4.6324,-4.5883,-4.592,-4.6672,-4.7113,-4.7131,-4.7902,-4.8306,-4.8306,-4.8306,-4.8306,-4.8306,-4.748,-4.7094,-4.7076,-4.625,-4.5865,-4.581,-4.5021,-4.5112,-4.5755,-4.4984,-4.5203,-4.6119,-4.7037,-4.7477,-4.7694,-4.849,-4.8839,-4.8909,0.0,0.0,0.0,0.0,0.0,0.0,0.0,0.0,0.0,0.0,-4.4493,-4.414,-4.3442,-4.2865,-4.2304,-4.1803,-4.0675,-3.9735,-3.9093,0.0,0.0,0.0,0.0,0.0,-3.202,-3.2007,-3.1894,-3.1754,-3.1754,-3.1768,-3.1796,-3.2006,-3.2532,-3.3338,-3.3725,-3.4459,-3.5397,-3.6196,-3.6949,-3.774,-3.9336,-4.0412,-4.1042,0.0,0.0,0.0,0.0,0.0,0.0,0.0,0.0,0.0,0.0,0.0,0.0,0.0,0.0,0.0,0.0,0.0,0.0,0.0,0.0,0.0,0.0,0.0,0.0,0.0,0.0,0.0,0.0,0.0,0.0,0.0,-4.1195,-4.165,-4.2559,-4.3512,-4.4357,-4.5047,-4.6122,-4.685,-4.6895,-4.6314,-4.5975,-4.6082,-4.5651,-4.5647,-4.623,-4.6796,-4.7369,-4.7957,-4.8196,-4.8306,-4.8306,-4.8306,-4.8306,-4.8306,-4.748,-4.7094,-4.7058,-4.5645,-4.5039,-4.5002,-4.4176,-4.3956,-4.414,-4.392,-4.3974,-4.4413,-4.6506,-4.7388,-4.7551,-4.8473,-4.8839,-4.8909,0.0,0.0,0.0,0.0,0.0,0.0,0.0,0.0,0.0,0.0,-4.4465,-4.414,-4.3375,-4.2694,-4.2101,-4.163,-4.0297,-3.9174,-3.8475,0.0,0.0,0.0,0.0,-3.1853,-3.1511,-3.1511,-3.1351,-3.1087,-3.1351,-3.1351,-3.1087,-3.138,-3.1824,-3.2398,-3.2668,-3.3251,-3.4111,-3.5086,-3.5871,-3.6589,-3.7927,-3.9104,-4.0069,-4.0342,-4.0479,-4.0556,-4.0808,-4.0754,-4.0507,-4.0507,0.0,0.0,0.0,0.0,0.0,0.0,0.0,0.0,0.0,0.0,0.0,0.0,0.0,0.0,0.0,0.0,0.0,0.0,0.0,0.0,0.0,0.0,0.0,0.0,-4.1359,-4.1954,-4.2819,-4.353,-4.4202,-4.4834,-4.5712,-4.6269,-4.6196,-4.5988,-4.595,-4.6122,-4.6112,-4.6352,-4.6864,-4.7359,-4.781,-4.8306,-4.8306,-4.8306,-4.8306,-4.8306,-4.8306,-4.8306,-4.7131,-4.6599,-4.6526,-4.4929,-4.4195,-4.4176,-4.3699,-4.3515,-4.3497,-4.3322,-4.325,0.0,0.0,0.0,0.0,0.0,-4.8839,-4.8909,0.0,0.0,0.0,0.0,0.0,0.0,0.0,0.0,0.0,0.0,0.0,-4.4227,-4.348,-4.2617,-4.1997,-4.1735,-4.0153,-3.8659,0.0,0.0,0.0,-3.2559,-3.1881,-3.1511,-3.1409,-3.1409,-3.1058,-3.0389,-3.097,-3.097,-3.0389,-3.1087,-3.1524,-3.1756,-3.2437,-3.2841,-3.3093,-3.4169,-3.5117,-3.59,-3.6387,-3.7486,-3.8886,-3.8954,-3.9419,-3.9994,-4.0079,-4.0096,-4.0096,-4.0096,0.0,0.0,0.0,0.0,0.0,0.0,0.0,0.0,0.0,0.0,0.0,0.0,0.0,0.0,0.0,0.0,0.0,0.0,0.0,0.0,0.0,0.0,0.0,0.0,-4.1931,-4.2675,-4.3436,-4.3953,-4.4325,-4.4569,-4.5494,-4.5918,-4.5459,-4.5908,-4.6305,-4.6478,-4.6968,-4.7277,-4.7403,-4.7917,0.0,0.0,0.0,-4.8306,-4.8306,-4.8306,-4.8306,-4.8288,-4.6673,-4.5902,-4.5847,-4.4232,-4.3515,-4.3515,-4.3515,-4.3462,-4.3392,-4.305,-4.2972,-4.3261,-4.5113,-4.6048,-4.6579,-4.8161,-4.8822,-4.8891,0.0,0.0,0.0,0.0,0.0,0.0,0.0,0.0,0.0,-4.484,-4.4612,-4.4299,-4.3565,-4.2977,-4.2424,-4.1903,-3.9979,-3.7597,0.0,0.0,-3.3172,-3.2163,-3.1898,-3.1511,-3.097,-3.0777,-3.0359,-2.969,-2.9827,-2.9827,-2.969,-3.0554,-3.1014,-3.1175,-3.1964,-3.2641,-3.3172,-3.3417,-3.4084,-3.5048,-3.5143,-3.637,-3.8176,-3.8768,-3.9089,-3.9276,-3.9893,-4.0096,-4.0096,-4.0096,-4.0096,-4.0096,-4.0096,0.0,0.0,0.0,0.0,0.0,0.0,0.0,0.0,0.0,0.0,0.0,0.0,0.0,0.0,0.0,0.0,0.0,0.0,0.0,0.0,-4.1965,-4.2709,-4.347,-4.4248,-4.4461,-4.454,-4.4581,-4.4803,-4.4951,-4.4934,-4.5042,-4.5186,-4.5319,-4.5868,-4.6203,-4.6244,-4.719,-4.7754,-4.7754,-4.8094,-4.8306,-4.8306,-4.8306,-4.8306,-4.8288,0.0,0.0,-4.5847,-4.4232,-4.3515,-4.3515,-4.3515,-4.3322,-4.3013,-4.292,-4.3412,-4.428,-4.5108,-4.6484,-4.8089,-4.8421,-4.8661,-4.8822,0.0,0.0,0.0,0.0,0.0,0.0,0.0,0.0,0.0,0.0,-4.4751,-4.4457,-4.3921,-4.2918,-4.208,-4.149,-3.9221,0.0,0.0,-3.3962,-3.3339,-3.2547,-3.2122,-3.1741,-3.1408,-3.1248,-3.0644,-2.9659,-2.9889,-2.9827,-2.9504,-3.0389,-3.1043,-3.1508,-3.1979,-3.2425,-3.2815,-3.3093,-3.3649,-3.4407,-3.4407,-3.5167,-3.6453,-3.7489,-3.8345,-3.9039,-3.9436,-3.9791,-4.0163,-4.0536,-4.0646,-4.0696,-4.1068,-4.1213,-4.1145,0.0,0.0,0.0,0.0,0.0,0.0,0.0,0.0,0.0,0.0,0.0,0.0,0.0,0.0,-4.0333,0.0,0.0,-4.2117,-4.3278,-4.4062,-4.457,-4.4615,-4.4936,-4.4993,-4.4649,-4.4615,-4.4643,-4.4709,-4.4709,-4.4765,-4.4886,-4.5416,-4.5749,-4.59,-4.6694,-4.7182,-4.7248,-4.7482,-4.7713,-4.7955,-4.7955,-4.8055,-4.8288,-4.7095,-4.6287,-4.5847,-4.4437,-4.3688,-4.348,-4.305,-4.2864,-4.2899,-4.2826,-4.3355,-4.4263,-4.4898,-4.6374,-4.8151,-4.8151,-4.8382,-4.8715,0.0,0.0,0.0,0.0,0.0,0.0,0.0,0.0,0.0,0.0,0.0,-4.465,-4.4265,-4.292,-4.165,0.0,0.0,0.0,0.0,-3.4399,-3.3786,-3.3277,-3.2574,-3.2135,-3.2007,-3.1783,-3.1058,-2.9858,-3.0238,-3.0133,-2.9628,-3.048,-3.1219,-3.1853,-3.2135,-3.2287,-3.2425,-3.2868,-3.3407,-3.3986,-3.3885,-3.4235,-3.4923,-3.6004,-3.7175,-3.8337,-3.8837,-3.9412,-4.007,-4.0924,-4.1305,-4.1525,-4.21,-4.2286,-4.2151,-4.1424,-4.1178,0.0,0.0,0.0,0.0,0.0,0.0,0.0,0.0,0.0,-4.0316,-4.0316,-4.0553,-4.1085,-4.2286,-4.2625,-4.321,-4.4598,-4.5179,-4.5331,-4.4874,-4.5196,-4.5263,-4.4682,-4.4615,-4.4615,-4.4615,-4.4615,-4.4654,-4.4748,-4.5142,-4.5477,-4.5665,-4.6238,-4.6572,-4.6707,-4.684,-4.7071,-4.7464,-4.7464,-4.7653,-4.8015,-4.7212,-4.65,-4.5824,-4.4533,-4.3773,-4.3415,-4.2472,-4.2297,-4.2629,-4.2578,-4.3045,-4.3821,-4.4574,-4.5944,-4.7503,-4.7692,-4.8114,-4.8587,0.0,0.0,0.0,0.0,0.0,0.0,0.0,0.0,0.0,0.0,0.0,0.0,0.0,0.0,0.0,0.0,0.0,0.0,-3.5293,-3.4981,-3.4633,-3.4087,-3.3313,-3.2621,-3.201,-3.1391,-3.0704,-2.9981,-3.0042,-3.0011,-2.995,-3.0778,-3.1188,-3.1304,-3.2061,-3.2398,-3.2382,-3.2465,-3.3082,-3.396,-3.3469,-3.3903,-3.4809,-3.498,-3.5268,-3.5929,-3.8203,-3.9152,-3.9571,-4.0778,-4.1644,-4.2185,-4.2269,-4.2286,-4.2151,-4.1424,0.0,-4.0905,-4.0265,-4.0011,-3.9884,-3.9781,-3.9833,-3.9926,0.0,0.0,-4.1085,-4.1085,-4.2134,-4.3071,-4.3267,-4.3859,-4.4615,-4.5449,-4.5094,-4.4908,-4.55,-4.5077,-4.4699,-4.4615,-4.4615,-4.4615,-4.4615,-4.4615,-4.4615,-4.4626,-4.4776,-4.4896,-4.4923,-4.5606,-4.6017,-4.6,-4.659,-4.6931,-4.6976,-4.6976,-4.6981,-4.7049,-4.6239,-4.5809,-4.5666,-4.41,-4.3367,-4.3263,-4.21,-4.1604,-4.1675,-4.1957,-4.2538,-4.3358,-4.4102,-4.5182,-4.6483,-4.7295,-4.7995,-4.8457,0.0,0.0,0.0,0.0,0.0,0.0,0.0,0.0,0.0,0.0,0.0,0.0,0.0,0.0,0.0,0.0,0.0,0.0,-3.6253,-3.573,-3.5261,-3.4807,-3.4087,-3.3411,-3.2817,-3.2388,-3.169,-3.0719,-3.06,-3.0585,-3.0585,-3.1013,-3.1391,-3.1807,-3.261,-3.2986,-3.3013,-3.3391,-3.3987,-3.464,-3.4112,-3.4301,-3.4927,-3.4927,-3.475,-3.4746,-3.6588,-3.7633,0.0,0.0,-4.1207,-4.1988,-4.3253,-4.365,-4.347,-4.2709,-4.2436,0.0,-4.1052,-4.0696,-4.0627,-4.0592,-4.0618,-4.0889,-4.1724,-4.2216,-4.2625,-4.3081,-4.3656,-4.4231,-4.4671,-4.501,-4.5331,0.0,-4.5449,-4.5196,-4.506,-4.4801,-4.4615,-4.4615,-4.4615,-4.4615,-4.4615,-4.4615,-4.4615,-4.4615,-4.4654,-4.4737,-4.482,-4.5079,-4.5302,-4.5381,-4.5726,-4.6035,-4.631,-4.6442,-4.6631,-4.6908,-4.6569,-4.6136,-4.5673,-4.4706,-4.3656,-4.2503,-4.1783,-4.1356,-4.1192,-4.176,-4.2206,-4.262,-4.3828,-4.4796,-4.5609,-4.6477,-4.7291,-4.7955,0.0,0.0,0.0,0.0,0.0,0.0,0.0,0.0,0.0,0.0,0.0,0.0,0.0,0.0,0.0,0.0,0.0,0.0,0.0,-3.6576,-3.6065,-3.5698,-3.5015,-3.4422,-3.3912,-3.3556,-3.2966,-3.2078,-3.1982,-3.1942,-3.1942,-3.2038,-3.2345,-3.2841,-3.3417,-3.3684,-3.371,-3.4186,-3.4712,-3.5151,-3.4616,-3.4664,-3.5068,-3.5068,-3.4633,-3.4217,-3.5531,-3.6565,0.0,0.0,-4.0541,-4.1676,-4.3258,-4.3979,-4.4119,-4.3351,-4.2979,-4.2496,-4.1133,-4.0974,-4.1176,-4.1353,-4.1582,-4.2098,-4.3354,-4.3838,-4.4215,-4.4773,-4.5241,-4.5602,-4.594,-4.6007,-4.594,-4.5737,-4.5534,-4.5213,-4.4682,-4.4615,-4.4615,-4.4615,-4.4615,-4.4615,-4.4615,-4.4615,-4.4615,-4.4615,-4.4615,-4.4626,-4.4737,-4.4776,-4.4831,-4.4923,-4.5113,-4.5372,-4.5708,-4.5895,-4.6161,-4.6489,-4.6489,-4.6189,-4.5599,-4.4845,-4.3593,-4.1964,-4.1522,-4.1163,-4.0946,-4.1481,-4.1826,-4.212,-4.3241,-4.4123,-4.4886,-4.5463,-4.6412,-4.7399,0.0,0.0,0.0,0.0,0.0,0.0,0.0,0.0,0.0,0.0,0.0,0.0,0.0,0.0,0.0,0.0,0.0,0.0,0.0,-3.747,-3.7194,-3.686,-3.6146,-3.5564,-3.5151,-3.4624,-3.4333,-3.4293,-3.4309,-3.4309,-3.4309,-3.4293,-3.4293,-3.4333,-3.4358,-3.4358,-3.4382,-3.4382,-3.4712,-3.5151,-3.4616,-3.4736,-3.5197,-3.5197,-3.4783,-3.4358,-3.558,0.0,0.0,0.0,-3.9778,-4.1406,-4.1559,-4.244,0.0,-4.2641,-4.1866,0.0,0.0,0.0,-4.1163,-4.1735,-4.2494,-4.3345,-4.4091,-4.498,-4.5652,-4.5669,-4.6819,-4.7597,-4.6887,-4.6752,-4.6532,-4.5821,-4.5094,-4.4632,-4.4615,-4.4615,-4.4615,-4.4615,-4.4615,-4.4615,0.0,-4.4615,-4.4615,-4.4615,-4.4615,-4.4615,-4.4615,-4.4737,-4.4803,-4.4803,-4.5059,-4.5203,-4.523,-4.5353,-4.5423,-4.545,-4.545,-4.5432,-4.5363,-4.3922,-4.2817,-4.1964,-4.1222,-4.0894,-4.0912,-4.0929,-4.136,-4.2016,-4.2043,-4.2982,-4.4319,-4.4354,-4.5446,-4.6863,0.0,0.0,0.0,0.0,0.0,0.0,0.0,0.0,0.0,0.0,0.0,0.0,0.0,0.0,0.0,0.0,0.0,0.0,0.0,-3.8386,-3.7823,-3.7452,-3.7064,-3.6521,-3.5809,-3.548,-3.5021,-3.4406,-3.4406,-3.4406,-3.4406,-3.4406,-3.4406,-3.4431,-3.4854,-3.5193,-3.5424,-3.5869,-3.6159,-3.6319,-3.6117,-3.5981,-3.5871,-3.5871,-3.5677,-3.5475,0.0,0.0,0.0,0.0,0.0,0.0,-4.1211,0.0,0.0,-4.2497,0.0,0.0,0.0,0.0,-4.2763,-4.3512,-4.4283,-4.5177,-4.641,-4.6912,-4.731,-4.78,-4.8291,-4.8409,-4.7682,-4.7124,-4.6549,-4.5821,-4.5077,-4.4615,-4.4615,-4.4615,-4.4615,-4.4615,-4.4615,0.0,0.0,0.0,0.0,-4.4615,-4.4615,-4.4615,-4.4615,-4.4654,-4.4654,-4.4654,-4.4831,-4.4995,-4.5059,-4.5194,-4.53,-4.5397,-4.4906,-4.4665,-4.4613,-4.3103,-4.2275,-4.1964,-4.1222,-4.0912,-4.0912,-4.0912,-4.105,-4.1326,-4.1826,-4.2654,-4.3621,-4.4121,-4.4965,-4.5988,0.0,0.0,0.0,0.0,0.0,0.0,0.0,0.0,0.0,0.0,0.0,0.0,0.0,0.0,0.0,0.0,0.0,0.0,0.0,0.0,-3.8768,-3.7976,-3.7788,-3.738,-3.6683,-3.6544,-3.6181,-3.5589,-3.5562,-3.5535,-3.5535,-3.553,-3.553,-3.5557,-3.5976,-3.6315,-3.6566,-3.7006,-3.737,-3.7618,-3.7295,-3.7075,-3.6912,-3.6572,-3.6469,0.0,0.0,0.0,0.0,0.0,0.0,0.0,0.0,0.0,0.0,0.0,0.0,0.0,0.0,-4.285,-4.3749,-4.5066,-4.594,-4.6819,-4.8037,-4.8308,-4.8443,-4.89,-4.9001,-4.8781,-4.8054,-4.731,-4.6549,-4.5821,-4.5077,-4.4615,-4.4615,-4.4615,-4.4615,-4.4615,-4.4615,-4.4615,0.0,0.0,0.0,-4.4615,-4.4615,-4.4615,-4.4615,-4.4615,-4.4615,-4.4615,-4.4737,-4.4858,-4.5005,-4.5123,-4.5136,-4.501,-4.4535,-4.4156,-4.3862,-4.2585,-4.2016,-4.1964,-4.1222,-4.0912,-4.0912,-4.0912,-4.0912,-4.0963,-4.1429,-4.2258,-4.3258,-4.3724,-4.4527,-4.5485,0.0,0.0,0.0,0.0,0.0,0.0,0.0,0.0,0.0,0.0,0.0,0.0,0.0,0.0,0.0,0.0,0.0,0.0,0.0,0.0,0.0,-3.8585,-3.8389,-3.8143,-3.7736,-3.7736,-3.7718,-3.7701,-3.7631,-3.7596,-3.7596,-3.7542,-3.7542,-3.7596,-3.7596,-3.7649,-3.7736,-3.7736,-3.8221,-3.8887,-3.8044,-3.7949,-3.8188,-3.7345,0.0,0.0,0.0,0.0,0.0,0.0,0.0,0.0,0.0,0.0,0.0,0.0,0.0,-4.1382,-4.2193,-4.2975,-4.4075,-4.63,-4.7411,-4.8125,-4.8849,-4.9001,-4.9001,-4.9001,-4.9001,-4.8798,0.0,0.0,-4.6599,-4.5889,-4.5128,-4.4649,-4.4615,-4.4615,-4.4615,0.0,0.0,0.0,0.0,0.0,0.0,-4.4615,-4.4615,-4.4615,-4.4615,-4.4615,-4.4615,-4.4615,-4.472,-4.4858,-4.4978,-4.5089,-4.4844,-4.4311,-4.4225,-4.3828,-4.3103,-4.2309,-4.1947,-4.1888,-4.1205,-4.0912,-4.0912,-4.0912,-4.0912,-4.0912,-4.0912,-4.1843,-4.3189,-4.3189,-4.413,-4.5397,0.0,0.0,0.0,0.0,0.0,0.0,0.0,0.0,0.0,0.0,0.0,0.0,0.0,0.0,0.0,0.0,0.0,0.0,0.0,0.0,0.0,0.0,0.0,0.0,0.0,0.0,0.0,0.0,0.0,-3.7666,-3.7666,-3.7666,-3.7666,-3.7666,-3.7666,-3.7857,-3.8143,-3.8143,-3.8271,-3.8507,0.0,-3.869,-3.8272,0.0,0.0,0.0,0.0,0.0,0.0,0.0,0.0,0.0,0.0,-4.0214,-4.0004,0.0,0.0,-4.0443,-4.3255,-4.421,-4.489,-4.7063,-4.8189,-4.8781,-4.8968,-4.9001,-4.9001,-4.9001,-4.9001,-4.8951,0.0,0.0,0.0,-4.6633,-4.5906,0.0,-4.4682,-4.4615,0.0,-4.4615,0.0,-4.4615,-4.4615,-4.4615,0.0,-4.4615,-4.4615,-4.4615,-4.4615,-4.4615,-4.4615,-4.4615,-4.4626,-4.4709,-4.4858,-4.4538,-4.4345,-4.4294,-4.3138,-4.2499,-4.2292,-4.1533,-4.1188,-4.117,-4.0981,-4.0912,-4.0912,-4.0912,-4.0912,-4.0912,-4.0912,-4.1843,-4.3189,-4.3189,-4.413,-4.5397,0.0,0.0,0.0,0.0,0.0,0.0,0.0,0.0,0.0,0.0,0.0,0.0,0.0,0.0,0.0,0.0,0.0,0.0,0.0,0.0,0.0,0.0,0.0,0.0,0.0,0.0,0.0,0.0,0.0,0.0,0.0,-3.8243,-3.8243,-3.8275,-3.8275,-3.8402,-3.8655,0.0,0.0,0.0,0.0,0.0,0.0,0.0,0.0,0.0,0.0,0.0,0.0,0.0,0.0,-4.1346,-4.1346,-4.0815,-4.031,-4.0665,0.0,-4.1667,-4.3973,-4.4897,-4.5618,-4.7433,-4.8193,-4.8612,-4.8934,-4.9001,-4.9001,-4.9001,-4.9001,0.0,-4.9001,-4.8409,-4.7753,0.0,0.0,0.0,-4.5128,-4.4818,-4.4615,0.0,-4.4615,0.0,-4.4615,-4.4615,-4.4615,-4.4615,-4.4615,-4.4615,-4.4615,-4.4615,-4.4615,-4.4615,-4.4615,-4.4501,-4.4327,-4.4169,-4.3804,-4.3192,-4.2381,-4.1843,-4.1516,-4.1101,-4.0912,-4.0912,-4.0912,-4.0912,-4.0912,-4.0912,-4.0912,-4.0912,-4.0912,-4.1843,-4.3189,-4.3189,-4.413,-4.5397,0.0,0.0,0.0,0.0,0.0,0.0,0.0,0.0,0.0,0.0,0.0,0.0,0.0,0.0,0.0,0.0,0.0,0.0,0.0,0.0,0.0,0.0,0.0,0.0,0.0,0.0,0.0,0.0,0.0,0.0,0.0,0.0,0.0,0.0,0.0,0.0,0.0,0.0,0.0,0.0,0.0,0.0,0.0,0.0,0.0,0.0,0.0,0.0,0.0,0.0,-4.3181,-4.2406,-4.2307,-4.1827,-4.1347,-4.1546,-4.2489,-4.3743,-4.4766,-4.5466,-4.6281,-4.77,-4.8041,-4.8193,-4.8849,-4.9001,-4.9001,-4.9001,0.0,-4.9001,-4.9001,-4.8494,-4.799,-4.7906,0.0,-4.5821,-4.572,-4.506,-4.4615,-4.4615,-4.4615,-4.4615,-4.4615,-4.4615,-4.4615,-4.4615,-4.4615,-4.4615,-4.4615,-4.4615,-4.4615,-4.4615,-4.4513,-4.4196,-4.3688,-4.3732,-4.3117,-4.1795,-4.1839,-4.1533,-4.0912,-4.0912,-4.0912,-4.0912,-4.0912,-4.0912,-4.0912,-4.0912,-4.0912,-4.0912,-4.0912,-4.1843,-4.3189,-4.3189,-4.413,-4.5397,0.0,0.0,0.0,0.0,0.0,0.0,0.0,0.0,0.0,0.0,-4.8027,-4.6659,0.0,0.0,0.0,0.0,0.0,0.0,0.0,0.0,0.0,0.0,0.0,0.0,0.0,0.0,0.0,0.0,0.0,0.0,0.0,0.0,0.0,0.0,0.0,0.0,0.0,0.0,0.0,0.0,0.0,0.0,0.0,0.0,0.0,0.0,0.0,0.0,0.0,0.0,-4.2888,-4.2513,-4.1813,-4.1458,-4.1546,-4.2829,-4.3343,-4.4075,-4.6625,-4.7007,-4.703,-4.8459,-4.8815,-4.8849,-4.8968,-4.9001,0.0,0.0,-4.9001,-4.9001,-4.9001,-4.89,-4.8612,-4.799,-4.7175,-4.6397,-4.5788,-4.506,-4.4615,0.0,-4.4615,-4.4615,-4.4615,-4.4615,0.0,0.0,-4.4615,-4.4615,-4.4615,-4.4615,-4.4615,-4.4615,-4.3944,-4.3627,-4.3688,-4.2586,-4.1945,-4.1795,-4.1323,-4.1032,-4.0912,-4.0912,-4.0912,-4.0912,-4.0912,0.0,-4.0912,-4.0912,-4.0912,-4.0912,-4.0912,-4.1843,-4.3189,-4.3189,-4.413,-4.5397,0.0,0.0,0.0,0.0,0.0,0.0,0.0,-5.1014,-5.0557,-5.0055,-4.9182,-4.8074,-4.6672,-4.6087,-4.5807,0.0,0.0,0.0,0.0,0.0,0.0,0.0,0.0,0.0,0.0,0.0,0.0,0.0,0.0,0.0,0.0,0.0,0.0,0.0,0.0,0.0,0.0,0.0,0.0,0.0,0.0,0.0,0.0,0.0,0.0,0.0,0.0,0.0,0.0,0.0,-4.291,-4.2733,-4.2145,-4.2494,-4.3267,-4.3932,-4.4897,-4.6012,-4.7051,-4.7369,-4.7586,-4.825,-4.8443,-4.8545,-4.8917,0.0,0.0,0.0,-4.9001,-4.9001,-4.9001,-4.9001,0.0,-4.8545,-4.7868,-4.7107,-4.638,-4.5635,-4.501,-4.4649,-4.4615,-4.4615,-4.4615,-4.4615,-4.4615,-4.4615,-4.4615,-4.4615,-4.4615,-4.4615,-4.4615,-4.4615,-4.3826,-4.3305,-4.3093,-4.21,-4.1458,-4.1212,-4.0995,-4.0912,-4.0912,-4.0912,-4.0912,-4.0912,-4.0912,-4.0912,-4.0912,-4.0912,-4.0912,-4.0912,-4.0912,-4.1843,-4.3189,-4.3189,-4.413,-4.5397,0.0,0.0,0.0,0.0,0.0,0.0,0.0,-5.1406,-5.1132,-5.0397,-5.0073,-4.9356,-4.7923,-4.6771,-4.6078,0.0,0.0,0.0,0.0,0.0,0.0,0.0,0.0,0.0,0.0,0.0,0.0,0.0,0.0,0.0,0.0,0.0,0.0,0.0,0.0,0.0,0.0,0.0,0.0,0.0,0.0,0.0,0.0,0.0,0.0,0.0,0.0,0.0,0.0,0.0,-4.3097,-4.3263,-4.3115,-4.3878,-4.4844,-4.5072,-4.6443,-4.7804,-4.7394,-4.7699,-4.8125,-4.8125,-4.8125,-4.8308,-4.8883,-4.9001,0.0,0.0,-4.9001,-4.9001,-4.9001,-4.9001,-4.9001,0.0,-4.8392,-4.7618,-4.6904,-4.616,-4.5432,0.0,-4.4615,0.0,-4.4615,-4.4615,0.0,-4.4615,-4.4615,-4.4615,-4.4615,-4.4445,-4.4333,-4.4333,-4.342,-4.2685,-4.2241,-4.1648,-4.1133,-4.0673,-4.0817,-4.0912,-4.0912,-4.0912,-4.0912,-4.0912,-4.0912,-4.0912,-4.0912,-4.0912,-4.0912,-4.0912,-4.0912,-4.1843,-4.3189,-4.3189,-4.413,-4.5397,0.0,0.0,0.0,0.0,0.0,0.0,0.0,-5.1406,-5.1367,-5.1289,-5.0467,-4.9843,-4.966,-4.8041,-4.698,0.0,0.0,0.0,0.0,0.0,0.0,0.0,0.0,0.0,0.0,0.0,0.0,0.0,0.0,0.0,0.0,0.0,0.0,0.0,0.0,0.0,0.0,0.0,0.0,0.0,0.0,0.0,0.0,0.0,0.0,0.0,0.0,0.0,0.0,0.0,0.0,-4.4277,-4.4791,-4.4875,-4.5075,-4.6379,0.0,0.0,-4.8629,-4.8849,-4.89,-4.89,-4.89,-4.8917,-4.8984,0.0,0.0,-4.9001,-4.9001,-4.9001,-4.9001,-4.9001,-4.9001,-4.9001,0.0,-4.7618,-4.6904,-4.616,-4.5432,-4.4699,0.0,0.0,-4.4615,-4.4615,-4.4615,-4.4615,-4.4615,-4.4615,-4.4615,-4.391,-4.3494,-4.3494,-4.2151,-4.1373,-4.1305,-4.0839,-4.0578,-4.0534,-4.0776,-4.0912,-4.0912,-4.0912,-4.0912,-4.0912,-4.0912,-4.0912,0.0,-4.0912,-4.0912,-4.0912,-4.0912,-4.1843,-4.3189,-4.3189,-4.413,-4.5397,0.0,0.0,0.0,0.0,0.0,0.0,-5.1484,-5.1406,-5.1406,-5.1406,-5.0974,-5.0677,-5.0677,-4.9477,-4.8237,-4.7192,0.0,0.0,0.0,0.0,0.0,0.0,0.0,0.0,0.0,0.0,0.0,0.0,0.0,0.0,0.0,0.0,0.0,0.0,0.0,0.0,0.0,0.0,0.0,0.0,0.0,0.0,0.0,0.0,0.0,0.0,0.0,0.0,0.0,0.0,0.0,0.0,-4.5681,-4.6224,0.0,0.0,-4.815,-4.8721,-4.8948,-4.9001,-4.9001,-4.9001,-4.9001,-4.8883,-4.8443,0.0,-4.8223,-4.7767,-4.7682,-4.78,-4.8274,-4.8359,-4.8494,0.0,0.0,0.0,-4.6955,-4.6549,-4.5923,-4.475,-4.4615,-4.4615,0.0,0.0,-4.4615,-4.4615,-4.4147,-4.3876,-4.3876,-4.3561,-4.3217,-4.276,-4.1745,-4.1256,-4.1316,-4.077,-4.0534,-4.0624,-4.0817,-4.0912,-4.0912,-4.0912,-4.0912,-4.0912,-4.0912,-4.0912,0.0,-4.0912,-4.0912,-4.0912,-4.0912,-4.1843,-4.3189,-4.3189,-4.413,-4.5397,0.0,0.0,0.0,0.0,0.0,-5.2871,-5.2266,-5.1953,-5.1777,-5.1755,-5.1433,-5.1191,-5.1165,-5.05,-4.9455,-4.8005,-4.7637,0.0,0.0,0.0,0.0,0.0,0.0,0.0,0.0,0.0,0.0,-4.5594,-4.5594,0.0,0.0,0.0,0.0,0.0,0.0,0.0,0.0,0.0,0.0,0.0,0.0,0.0,0.0,0.0,0.0,0.0,0.0,0.0,0.0,0.0,0.0,0.0,0.0,0.0,0.0,0.0,-4.8694,-4.9168,-4.9077,-4.9032,-4.9001,-4.9001,-4.8849,-4.8545,0.0,0.0,-4.7445,-4.6904,-4.6786,-4.6955,-4.7479,-4.7581,-4.775,0.0,0.0,-4.7902,-4.665,-4.6464,-4.5933,-4.4461,0.0,-4.4265,-4.4265,-4.4468,-4.4513,-4.4248,-4.3724,-4.3206,-4.2767,-4.2733,-4.2523,-4.1982,-4.1255,-4.0917,-4.1002,-4.0643,-4.051,-4.0648,-4.0793,-4.0864,-4.0912,-4.0912,-4.0912,-4.0912,-4.0912,-4.0912,0.0,-4.0912,-4.0912,-4.0912,-4.0912,-4.1843,-4.3189,-4.3189,-4.413,-4.5397,0.0,0.0,0.0,0.0,0.0,0.0,-5.3965,-5.3242,-5.2655,-5.2593,-5.1778,-5.117,-5.1117,-5.0976,-5.055,-4.9745,-4.8875,0.0,0.0,0.0,0.0,0.0,0.0,0.0,0.0,0.0,-4.5594,-4.5594,-4.5594,-4.5594,-4.5594,0.0,0.0,0.0,0.0,0.0,0.0,0.0,0.0,0.0,0.0,0.0,0.0,0.0,0.0,0.0,0.0,0.0,0.0,0.0,0.0,0.0,0.0,0.0,0.0,0.0,-4.889,-4.9199,-4.9199,-4.9077,-4.9001,-4.9001,-4.846,-4.7906,0.0,0.0,-4.6802,-4.6786,-4.6786,-4.6786,-4.6802,-4.6802,-4.6802,-4.6802,0.0,0.0,-4.5821,-4.572,-4.5151,0.0,-4.3512,-4.3512,-4.3512,-4.4179,-4.4265,-4.346,-4.3392,-4.275,-4.1305,-4.1221,-4.1221,-4.1221,-4.0519,-4.0113,-4.0113,-4.0255,-4.0362,-4.0493,-4.0648,-4.0769,-4.0912,-4.0912,-4.0912,-4.0912,-4.0912,-4.0912,0.0,-4.0912,-4.0912,-4.0912,-4.0912,-4.1843,-4.3189,-4.3189,-4.413,-4.5397,0.0,0.0,0.0,0.0,0.0,0.0,0.0,-5.3769,-5.3553,-5.3506,-5.2672,-5.2046,-5.1933,-5.1305,-5.0801,-5.0531,-4.9765,0.0,0.0,0.0,0.0,0.0,0.0,0.0,0.0,0.0,-4.5648,-4.5594,-4.5594,-4.5893,-4.649,-4.649,-4.6778,0.0,0.0,0.0,0.0,0.0,0.0,0.0,0.0,0.0,0.0,0.0,0.0,0.0,0.0,0.0,0.0,0.0,0.0,0.0,0.0,0.0,0.0,0.0,0.0,0.0,-4.9124,-4.8795,-4.8374,-4.8287,-4.7699,-4.7022,-4.6515,0.0,-4.5906,-4.5382,-4.5309,-4.5432,-4.5957,-4.6058,-4.621,-4.6718,-4.6786,0.0,0.0,0.0,0.0,-4.3052,-4.3227,-4.3706,-4.4207,-4.3968,-4.3673,-4.3409,-4.2489,-4.1694,-4.1221,-4.0713,-4.0468,-4.0468,-4.0231,-4.0096,-4.0096,-4.0238,-4.0379,-4.051,-4.0648,-4.0769,-4.0912,-4.0912,-4.0912,-4.0912,-4.0912,-4.0912,-4.0912,-4.0912,-4.0912,-4.0912,-4.0912,-4.1843,-4.3189,-4.3189,-4.413,-4.5397,0.0,0.0,0.0,0.0,0.0,0.0,0.0,-5.4686,-5.4419,-5.4337,-5.3506,-5.2863,-5.2751,-5.1935,-5.1389,-5.1389,-5.0635,0.0,0.0,0.0,0.0,0.0,0.0,0.0,0.0,-4.6169,-4.5965,-4.5594,-4.5594,-4.5883,-4.6413,-4.6413,-4.6682,-4.7163,-4.7163,0.0,0.0,0.0,0.0,0.0,0.0,0.0,-4.744,0.0,0.0,0.0,0.0,0.0,0.0,0.0,0.0,0.0,0.0,0.0,0.0,0.0,0.0,0.0,0.0,-4.8069,-4.7653,-4.7509,-4.6938,0.0,0.0,-4.5483,-4.5145,-4.4699,-4.4615,-4.475,-4.5196,-4.528,-4.5432,-4.5889,-4.5748,-4.5358,0.0,0.0,0.0,-4.2317,-4.2463,-4.2908,-4.334,-4.3144,-4.2878,-4.2608,-4.1728,-4.1085,-4.0798,-4.0367,-4.0096,-4.0096,-4.0096,-4.0096,-4.0096,-4.0188,-4.0288,-4.0436,-4.0558,-4.0697,-4.084,-4.0888,-4.0912,-4.0912,-4.0912,-4.0912,0.0,-4.0912,-4.0912,-4.0912,-4.0912,-4.1843,-4.3189,-4.3189,-4.413,-4.5397,0.0,0.0,0.0,0.0,0.0,0.0,0.0,-5.5845,-5.5232,-5.5104,-5.4263,-5.3669,-5.3599,-5.2801,-5.2268,-5.221,0.0,0.0,0.0,0.0,0.0,0.0,0.0,0.0,-4.7116,-4.7036,-4.6628,-4.5864,-4.5864,-4.5902,-4.596,-4.5902,-4.5864,-4.5864,-4.5748,0.0,0.0,0.0,0.0,0.0,0.0,0.0,0.0,0.0,0.0,0.0,0.0,0.0,0.0,0.0,0.0,0.0,0.0,0.0,0.0,0.0,0.0,0.0,0.0,0.0,0.0,0.0,0.0,0.0,0.0,0.0,0.0,-4.4615,-4.4615,-4.4615,-4.4615,-4.4615,-4.457,-4.4542,-4.3943,-4.3706,0.0,-4.318,-4.2093,-4.1577,-4.1405,-4.1342,-4.1403,-4.1921,-4.1931,-4.1255,-4.1153,-4.0815,-4.0146,-4.0096,-4.0096,-4.0096,-4.0096,-4.0096,-4.0096,-4.0096,-4.0163,-4.0305,-4.0436,-4.0558,-4.0697,-4.084,-4.0912,0.0,-4.0912,-4.0912,-4.0912,-4.0912,-4.0912,-4.0912,-4.0912,-4.1809,-4.312,-4.3172,-4.4096,-4.5328,0.0,0.0,0.0,0.0,0.0,0.0,0.0,0.0,0.0,0.0,-5.5151,-5.4569,-5.4501,-5.371,-5.2917,0.0,0.0,0.0,0.0,0.0,0.0,0.0,0.0,0.0,-4.8004,-4.7976,-4.8157,-4.8509,-4.8509,-4.8836,-4.95,-4.8817,-4.8509,-4.8452,-4.7163,-4.6586,0.0,0.0,0.0,0.0,0.0,0.0,0.0,0.0,0.0,0.0,-5.3218,-5.316,0.0,0.0,0.0,0.0,0.0,0.0,0.0,0.0,-4.5673,0.0,0.0,0.0,0.0,0.0,0.0,0.0,0.0,0.0,0.0,0.0,0.0,0.0,0.0,-4.4615,-4.4412,-4.3839,-4.3601,-4.3196,-4.2348,-4.1067,-4.0524,-4.1401,-4.0974,-4.0853,-4.135,-4.1435,-4.139,-4.1221,-4.0679,-4.0282,-4.0113,-4.0096,-4.0096,-4.0096,-4.0096,-4.0096,-4.0096,-4.0096,-4.0163,-4.0305,-4.0436,-4.0558,-4.0697,-4.084,-4.0912,-4.0912,-4.0912,-4.0912,-4.0912,-4.0912,-4.0912,-4.0912,-4.0912,-4.1481,-4.2361,-4.2965,-4.3776,-4.463,0.0,0.0,0.0,0.0,0.0,0.0,0.0,0.0,0.0,0.0,0.0,0.0,0.0,0.0,0.0,0.0,0.0,0.0,0.0,0.0,0.0,0.0,0.0,-4.9513,-4.9451,-4.9451,-4.963,-4.999,-4.999,-5.025,-5.0693,-5.0231,-4.999,-4.9952,-4.9048,-4.8413,0.0,0.0,0.0,0.0,-5.2011,0.0,0.0,0.0,0.0,0.0,-5.3813,-5.3793,0.0,-5.3155,-5.1619,-4.9798,0.0,0.0,0.0,0.0,-4.5397,-4.5371,-4.5247,-4.5387,-4.5565,-4.5331,0.0,0.0,0.0,0.0,0.0,0.0,0.0,0.0,0.0,-4.4615,-4.4367,-4.3617,-4.3512,-4.29,-4.118,-4.0111,-3.9623,-3.9992,-3.9718,-3.9723,-4.0365,-4.0352,-4.0404,-4.0679,-4.0333,-4.0096,-4.0096,-4.0096,-4.0096,-4.0096,-4.0096,-4.0096,-4.0096,-4.0096,-4.0138,-4.0213,-4.0412,-4.0534,-4.0607,-4.0799,-4.0912,-4.0912,-4.0912,-4.0912,-4.0912,-4.0912,-4.0912,-4.0912,-4.0912,-4.136,-4.2102,-4.2896,-4.3672,-4.4414,0.0,0.0,0.0,0.0,0.0,0.0,0.0,0.0,0.0,0.0,0.0,0.0,0.0,0.0,0.0,0.0,0.0,0.0,0.0,0.0,0.0,0.0,0.0,-5.1109,-5.1187,-5.1178,-5.121,-5.1289,-5.1289,-5.1347,-5.1462,-5.1347,-5.1135,-5.0894,-5.102,-5.0606,0.0,0.0,-5.2587,0.0,-5.3857,0.0,0.0,0.0,0.0,0.0,0.0,0.0,0.0,-5.2677,-5.142,-4.9971,-4.8623,0.0,0.0,0.0,0.0,0.0,-4.5274,-4.5113,-4.4951,-4.4831,-4.4709,0.0,0.0,0.0,0.0,0.0,0.0,0.0,0.0,-4.4514,0.0,0.0,-4.3084,-4.2192,-4.0274,-3.9518,-3.8904,-3.819,-3.8169,-3.8421,-3.8953,-3.9044,-3.9295,-3.9918,-3.9969,-3.9995,-4.0113,-4.0096,-4.0096,-4.0096,-4.0096,-4.0096,-4.0096,-4.0096,-4.0096,-4.0096,-4.037,-4.051,-4.051,-4.0776,-4.0912,-4.0912,-4.0912,0.0,-4.0912,-4.0912,-4.0912,-4.0912,-4.0912,-4.1291,-4.1947,-4.2861,-4.3603,-4.4259,0.0,0.0,0.0,0.0,0.0,0.0,0.0,0.0,0.0,0.0,0.0,0.0,0.0,0.0,0.0,0.0,0.0,0.0,0.0,0.0,0.0,0.0,-5.1912,-5.2234,-5.2904,-5.2916,-5.3244,-5.3914,-5.3914,-5.426,-5.4914,-5.4241,-5.3126,-5.175,-5.2491,-5.2337,-5.1635,-5.351,-5.4145,-5.3968,-5.4574,0.0,0.0,0.0,0.0,0.0,0.0,0.0,0.0,-5.2492,-5.1034,-4.9167,-4.8421,0.0,0.0,0.0,0.0,0.0,-4.5371,-4.5184,-4.4951,-4.4831,-4.4776,-4.4737,0.0,0.0,0.0,0.0,0.0,0.0,0.0,-4.4076,-4.3453,0.0,-4.1214,-3.9767,-3.8769,-3.7996,-3.7519,-3.739,-3.7328,-3.7408,-3.7678,-3.8132,-3.8684,-3.9286,-3.9339,-3.9549,-4.007,-4.0096,-4.0096,-4.0096,-4.0096,-4.0096,-4.0096,-4.0096,-4.0096,-4.0096,-4.037,-4.051,-4.051,-4.0776,-4.0912,-4.0912,0.0,-4.0912,-4.0912,-4.0912,-4.0912,-4.0912,-4.0912,-4.0981,-4.124,-4.2672,-4.3276,-4.3569,0.0,0.0,0.0,0.0,0.0,0.0,0.0,0.0,0.0,0.0,0.0,0.0,0.0,0.0,0.0,0.0,0.0,0.0,0.0,0.0,0.0,-5.3522,-5.3516,-5.3646,-5.3928,-5.3947,-5.4331,-5.5145,-5.5145,-5.5338,-5.5684,-5.5318,-5.4491,-5.3337,-5.4184,-5.4087,-5.3395,-5.4626,-5.5145,-5.5132,0.0,0.0,0.0,0.0,0.0,0.0,0.0,0.0,0.0,0.0,-5.0415,-4.931,-4.8052,0.0,0.0,0.0,0.0,0.0,-4.5397,-4.5318,-4.5184,-4.4968,-4.4803,-4.4682,-4.4598,-4.4615,0.0,0.0,0.0,0.0,0.0,0.0,-4.3752,-4.2686,-4.0182,-3.834,-3.8147,-3.7259,-3.659,-3.6398,-3.6473,-3.6708,-3.7177,-3.7777,-3.843,-3.9152,-3.9497,-3.9799,-4.007,-4.0096,-4.0096,-4.0096,-4.0096,-4.0096,-4.0096,-4.0096,-4.0096,-4.0096,-4.0313,-4.0436,-4.051,-4.0704,-4.084,-4.0912,0.0,-4.0912,-4.0912,-4.0912,-4.0912,-4.0912,-4.0912,-4.0912,-4.1101,-4.262,-4.3707,-4.4492,0.0,0.0,0.0,0.0,0.0,0.0,0.0,0.0,0.0,0.0,0.0,0.0,0.0,0.0,0.0,0.0,0.0,0.0,0.0,0.0,-5.3401,-5.4718,-5.4916,-5.4958,-5.4853,-5.4823,-5.5111,-5.5724,-5.5714,-5.5703,-5.5703,-5.5703,-5.5376,-5.4799,-5.5434,-5.5357,-5.4818,-5.5434,-5.5703,-5.5692,0.0,0.0,0.0,0.0,0.0,0.0,0.0,0.0,0.0,0.0,0.0,0.0,0.0,0.0,0.0,-4.5837,-4.5502,-4.5397,-4.5397,-4.5344,-4.5264,-4.5059,0.0,-4.4682,-4.4598,-4.4615,0.0,0.0,0.0,0.0,0.0,-4.3958,-4.3132,-4.1589,-3.917,-3.7526,-3.7546,-3.6722,-3.6053,-3.5784,-3.5894,-3.6242,-3.6906,-3.7368,-3.8035,-3.892,-3.9418,-3.9799,-4.007,-4.0096,-4.0096,-4.0096,-4.0096,-4.0096,-4.0096,-4.0096,-4.0096,-4.0096,-4.0255,-4.0362,-4.0493,-4.0648,-4.0769,-4.0912,-4.0912,-4.0912,-4.0912,-4.0912,-4.0912,-4.0912,-4.0912,-4.1119,-4.1585,-4.2758,-4.413,-4.5397,0.0,0.0,0.0,0.0,0.0,0.0,0.0,0.0,0.0,0.0,0.0,0.0,0.0,0.0,0.0,0.0,0.0,0.0,0.0,0.0,-5.4641,-5.4705,-5.5477,-5.5893,-5.5884,-5.576,-5.5729,-5.5787,-5.5735,-5.5703,-5.5703,-5.5703,-5.5665,-5.5607,-5.5665,-5.5665,-5.5607,-5.5684,-5.5703,-5.5692,-5.5401,0.0,0.0,0.0,0.0,0.0,0.0,0.0,0.0,0.0,0.0,0.0,0.0,0.0,0.0,0.0,-4.5778,-4.5397,-4.5397,-4.5238,-4.5005,-4.5005,-4.4978,-4.4913,-4.4654,-4.4615,0.0,-4.4615,0.0,0.0,0.0,-4.2048,-4.0151,-3.8183,-3.7649,-3.7181,-3.6284,-3.6067,-3.6005,-3.5973,-3.6005,-3.6132,-3.6507,-3.6569,-3.7118,-3.8294,-3.839,-3.893,-4.0045,-4.0096,-4.0096,-4.0096,-4.0096,-4.0096,-4.0096,-4.0096,-4.0096,-4.0096,-4.0255,-4.0362,-4.0493,-4.0648,-4.0769,-4.0912,-4.0912,-4.0912,-4.0912,-4.0912,-4.0912,-4.0912,-4.0912,-4.1774,-4.3051,-4.3155,-4.413,-4.5397,0.0,0.0,0.0,0.0,0.0,0.0,0.0,0.0,0.0,0.0,0.0,0.0,0.0,0.0,0.0,0.0,0.0,0.0,0.0,0.0,-5.5017,-5.5483,-5.5815,-5.5999,-5.5999,-5.5866,-5.5776,-5.5735,-5.5714,-5.5703,-5.5703,-5.5703,-5.5703,-5.5703,-5.5703,-5.5703,-5.5703,-5.5703,-5.5703,-5.5692,-5.5401,-5.5217,0.0,0.0,0.0,0.0,0.0,0.0,0.0,0.0,-4.9116,0.0,0.0,0.0,0.0,0.0,0.0,-4.5397,-4.5397,-4.5318,-4.5091,-4.4468,-4.4338,0.0,0.0,-4.4615,-4.4468,-4.4001,-4.3576,0.0,0.0,0.0,-3.9013,-3.8246,-3.7328,-3.6548,-3.6082,-3.5894,-3.5831,-3.5831,-3.5831,-3.5958,-3.6274,-3.6662,-3.7251,-3.8222,-3.8657,-3.9216,-4.0045,-4.0096,-4.0096,-4.0096,-4.0096,-4.0096,-4.0096,-4.0096,-4.0096,-4.0096,-4.0163,-4.0288,-4.051,-4.0558,-4.068,-4.0912,-4.0912,-4.0912,-4.0912,-4.0912,-4.0912,-4.0912,-4.0912,-4.1843,-4.3189,-4.3189,-4.413,-4.5397,0.0,0.0,0.0,0.0,0.0,0.0,0.0,0.0,0.0,0.0,0.0,0.0,0.0,0.0,0.0,0.0,0.0,0.0,-5.5973,-5.549,-5.5423,-5.5986,-5.5989,-5.5981,-5.5933,-5.5846,-5.5776,-5.5735,-5.5714,-5.5671,-5.5573,-5.5573,-5.552,-5.5418,-5.5418,-5.5466,-5.5573,-5.5573,-5.5573,-5.5562,-5.5376,-5.5178,0.0,0.0,0.0,0.0,0.0,0.0,0.0,0.0,0.0,0.0,0.0,0.0,0.0,0.0,0.0,0.0,-4.5397,-4.5198,-4.481,-4.4137,0.0,0.0,-4.3624,-4.3603,-4.3462,-4.2937,-4.2157,-4.12,-4.0086,0.0,0.0,-3.7824,-3.6894,-3.6148,-3.5926,-3.5799,-3.5688,-3.5688,-3.5752,-3.5879,-3.6164,-3.6646,-3.7237,-3.7953,-3.8574,-3.9189,-3.9773,-3.9995,-4.0096,-4.0096,-4.0096,-4.0096,-4.0096,-4.0096,-4.0096,-4.0096,-4.0096,-4.0238,-4.0436,-4.0485,-4.0631,-4.084,-4.0888,-4.0912,-4.0912,-4.0912,-4.0912,-4.0929,-4.117,-4.205,-4.3224,-4.3465,-4.432,-4.5397,0.0,0.0,0.0,0.0,0.0,0.0,0.0,0.0,0.0,0.0,0.0,0.0,0.0,0.0,0.0,0.0,0.0,0.0,-5.6012,-5.6003,-5.6005,-5.5999,-5.599,-5.5933,-5.5797,-5.5787,-5.5787,-5.5806,-5.5735,-5.5562,-5.5301,-5.5301,-5.5124,-5.4791,-5.4791,-5.4981,-5.5301,-5.5301,-5.5301,-5.5301,-5.5288,-5.4895,-5.4315,0.0,0.0,0.0,0.0,0.0,0.0,0.0,0.0,0.0,0.0,0.0,0.0,0.0,-4.6175,-4.5397,-4.5397,-4.4767,-4.4104,0.0,0.0,0.0,-4.1715,-4.1483,-4.1387,-4.1387,-4.037,-3.9296,-3.86,-3.7951,0.0,-3.6349,-3.6196,-3.607,-3.5752,-3.5688,-3.5688,-3.5688,-3.5863,-3.6053,-3.6179,-3.6383,-3.6754,-3.7358,-3.7953,-3.8574,-3.9179,-3.9773,-4.0096,-4.0096,-4.0096,-4.0096,-4.0096,-4.0096,-4.0096,-4.0096,-4.0096,-4.0163,-4.0288,-4.0436,-4.0558,-4.0697,-4.084,-4.0912,-4.0912,-4.0912,-4.0912,-4.0981,-4.1723,-4.2499,-4.3293,-4.4035,-4.4768,-4.5397,0.0,0.0,0.0,0.0,0.0,0.0,0.0,0.0,0.0,0.0,0.0,0.0,0.0,0.0,0.0,0.0,0.0,0.0,-5.6012,-5.5996,-5.5989,-5.5999,-5.5914,-5.5726,-5.5451,-5.5218,-5.5211,-5.5449,-5.5185,-5.5023,-5.4938,-5.4938,-5.4895,-5.4791,-5.4791,-5.4851,-5.4938,-5.4938,-5.4938,-5.4924,-5.4682,-5.4479,-5.4281,0.0,0.0,0.0,0.0,0.0,0.0,0.0,0.0,0.0,0.0,0.0,0.0,0.0,-4.597,-4.5397,-4.5397,-4.4846,0.0,-4.3494,0.0,0.0,0.0,-4.0751,0.0,0.0,-3.8667,-3.7887,-3.7235,-3.694,0.0,-3.6445,-3.6226,-3.6022,-3.5941,-3.5701,-3.5589,-3.5688,-3.5752,-3.5863,-3.6022,-3.61,-3.6461,-3.7147,-3.7354,-3.7966,-3.9152,-3.9365,-3.967,-4.007,-4.0096,-4.0096,-4.0096,-4.0096,-4.0096,-4.0096,-4.0096,-4.0163,-4.0288,-4.0436,-4.0558,-4.0697,-4.084,-4.0912,-4.0912,-4.0912,-4.0912,-4.0981,-4.1723,-4.2499,-4.3293,-4.4035,-4.4768,-4.5397,0.0,0.0,0.0,0.0,0.0,0.0,0.0,0.0,0.0,0.0,0.0,0.0,0.0,0.0,0.0,0.0,0.0,0.0,0.0,-5.5961,-5.5953,-5.5924,-5.5846,-5.5632,-5.5313,-5.4847,-5.47,-5.4909,-5.4836,-5.4731,-5.4607,-5.4607,-5.4528,-5.4397,-5.4397,-5.4479,-5.4607,-5.4607,-5.4607,-5.4591,-5.438,-5.4212,-5.4072,0.0,0.0,0.0,0.0,0.0,0.0,0.0,0.0,0.0,0.0,0.0,0.0,-4.6699,-4.601,-4.5328,-4.5044,-4.4406,0.0,-4.2814,-4.1791,-4.062,-3.9137,0.0,0.0,0.0,-3.739,-3.6969,-3.6569,-3.6492,-3.646,-3.6383,-3.6211,-3.6068,-3.6005,-3.5765,-3.5621,-3.5688,-3.5688,-3.5752,-3.5863,-3.5941,-3.6179,-3.6631,-3.692,-3.7472,-3.8306,-3.892,-3.9365,-3.9722,-3.9969,-4.0096,-4.0096,-4.0096,-4.0096,-4.0096,-4.0096,-4.0138,-4.0213,-4.0412,-4.0534,-4.0648,-4.0817,-4.0912,-4.0912,-4.0912,-4.0912,-4.1015,-4.2068,-4.2775,-4.331,-4.4354,-4.5027,-4.5397,0.0,0.0,0.0,0.0,0.0,0.0,0.0,0.0,0.0,0.0,-5.5987,0.0,0.0,0.0,0.0,0.0,0.0,0.0,0.0,0.0,-5.5856,-5.5797,-5.5745,-5.5554,-5.5217,-5.4572,-5.4264,-5.4264,-5.456,-5.456,-5.4264,-5.4264,-5.4089,-5.3813,-5.3813,-5.3963,-5.4264,-5.4264,-5.4264,-5.4264,-5.4264,-5.4072,-5.3813,-5.3813,0.0,0.0,0.0,0.0,0.0,0.0,0.0,0.0,0.0,0.0,-4.7259,-4.7066,-4.6293,-4.5329,-4.4518,-4.3759,-4.3,-4.2206,-4.099,0.0,-3.8214,-3.7594,-3.7148,-3.66,0.0,-3.6492,-3.6492,-3.6492,-3.6445,-3.6274,-3.6211,-3.6148,-3.6037,-3.5863,-3.572,-3.5688,-3.5688,-3.5688,-3.5688,-3.5846,-3.5973,-3.5973,-3.66,-3.7041,-3.7101,-3.8334,-3.9098,-3.9206,-3.9722,-4.0045,-4.0096,-4.0096,-4.0096,-4.0096,-4.0096,-4.0096,-4.0096,-4.0362,-4.051,-4.0534,-4.0776,-4.0912,-4.0912,-4.0912,-4.0912,-4.105,-4.2603,-4.3189,-4.3379,-4.4872,-4.5397,-4.5397,0.0,0.0,0.0,0.0,0.0,0.0,0.0,0.0,0.0,0.0,0.0,0.0,0.0,0.0,0.0,0.0,0.0,0.0,0.0,0.0,-5.5826,-5.5797,-5.5301,-5.4861,-5.4528,-5.4125,-5.3926,-5.3926,-5.3981,-5.3981,-5.3926,-5.3926,-5.387,-5.3813,-5.3813,-5.3832,-5.3926,-5.3926,-5.3926,-5.3926,-5.3926,-5.387,-5.3813,-5.3813,-5.3813,0.0,0.0,0.0,0.0,0.0,0.0,0.0,-4.8891,-4.8439,-4.7818,-4.7302,-4.6653,-4.5852,0.0,-4.3759,0.0,0.0,-4.0493,-3.8816,-3.8071,-3.7268,-3.6662,-3.6523,-3.6492,-3.6492,-3.6492,-3.6492,-3.6492,-3.6445,-3.6305,-3.6179,-3.6148,-3.6022,-3.5863,-3.572,-3.5688,-3.5671,-3.5539,-3.5587,-3.5636,-3.5767,-3.6053,-3.6492,-3.7055,-3.7533,-3.8226,-3.9179,-3.9339,-3.9618,-4.0113,-4.0096,-4.0096,-4.0096,-4.0096,-4.0096,-4.0113,-4.0263,-4.0478,-4.0673,-4.084,-4.0912,-4.0912,-4.0912,-4.0912,-4.105,-4.2603,-4.3189,-4.3379,-4.4872,-4.5397,-4.5397,0.0,0.0,0.0,0.0,0.0,0.0,0.0,0.0,0.0,0.0,0.0,0.0,0.0,0.0,0.0,0.0,0.0,0.0,0.0,0.0,0.0,-5.5737,-5.5145,-5.4716,-5.4544,-5.4054,-5.3813,-5.3813,-5.3813,-5.3813,-5.3813,-5.3813,-5.3813,-5.3813,-5.3813,-5.3813,-5.3813,-5.3813,-5.3813,-5.3813,-5.3813,-5.3813,-5.3813,-5.3813,-5.3813,-5.359,-5.1974,0.0,0.0,0.0,0.0,0.0,0.0,0.0,-4.7979,-4.7367,-4.6768,0.0,0.0,0.0,0.0,-4.1513,0.0,-3.8805,-3.8311,-3.7447,-3.6754,-3.6754,-3.6616,-3.6492,-3.6492,-3.6492,-3.6492,-3.6492,-3.6414,-3.6352,-3.6352,-3.6179,-3.6022,-3.5863,-3.5752,-3.5638,-3.5504,-3.5504,-3.5522,-3.5589,-3.5782,-3.607,-3.6554,-3.6996,-3.7722,-3.8739,-3.9055,-3.9497,-4.0096,-4.0096,-4.0096,-4.0096,-4.0096,-4.0096,-4.0113,-4.0313,-4.0527,-4.0697,-4.084,-4.0912,-4.0912,-4.0912,-4.0912,-4.105,-4.2603,-4.3189,-4.3379,-4.4872,-4.5397,-4.5397,0.0,0.0,0.0,0.0,0.0,0.0,0.0,0.0,0.0,0.0,0.0,0.0,0.0,0.0,0.0,0.0,0.0,0.0,0.0,0.0,0.0,0.0,-5.5105,-5.4776,-5.4716,-5.4125,-5.3813,-5.3813,-5.3813,-5.3738,-5.3608,-5.3738,-5.3813,-5.3813,-5.3813,-5.3813,-5.3813,-5.3813,-5.3813,-5.3813,-5.3813,-5.3813,-5.3813,-5.3813,-5.3813,-5.359,-5.1974,-5.1398,-5.1138,-4.9466,0.0,0.0,0.0,0.0,-4.8135,-4.7533,-4.682,0.0,0.0,0.0,-4.24,-4.0711,-3.9747,0.0,-3.8601,-3.7754,-3.706,-3.6999,-3.6724,-3.6492,-3.6492,-3.6492,-3.6492,-3.6492,-3.6492,-3.6492,-3.6492,-3.6352,-3.6211,-3.6053,-3.5894,-3.5735,-3.5554,-3.5522,-3.5522,-3.5504,-3.5621,-3.5799,-3.6005,-3.6616,-3.7354,-3.8278,-3.8767,-3.9391,-4.0096,-4.0096,-4.0096,-4.0096,-4.0096,-4.0096,-4.0113,-4.0345,-4.0534,-4.0673,-4.0817,-4.0888,-4.0912,-4.0912,-4.0912,-4.105,-4.2603,-4.3189,-4.3379,-4.4872,-4.5397,-4.5397,0.0,0.0,0.0,0.0,0.0,0.0,0.0,0.0,0.0,0.0,0.0,0.0,0.0,0.0,0.0,0.0,0.0,0.0,0.0,0.0,0.0,-5.5364,-5.4995,-5.467,-5.4364,-5.3981,-5.3813,-5.3813,-5.3813,-5.3441,-5.2791,-5.3478,-5.3813,-5.3813,-5.3813,-5.3813,-5.3813,-5.3813,-5.3813,-5.3813,-5.3813,-5.3813,-5.3813,-5.3813,-5.3813,-5.359,-5.1974,-5.1398,-5.1138,-4.9466,-4.8909,0.0,0.0,0.0,-4.8696,-4.8135,0.0,0.0,0.0,0.0,-4.1058,0.0,-3.9747,-3.9082,0.0,0.0,-3.7284,0.0,-3.6724,-3.6492,-3.6492,-3.6492,-3.6492,-3.6492,-3.6492,-3.6492,-3.6492,-3.6492,-3.6383,-3.6211,-3.6133,-3.6006,-3.5703,-3.5655,-3.5621,-3.5504,-3.5621,-3.5799,-3.6005,-3.6196,-3.692,-3.825,-3.8379,-3.8957,-4.007,-4.0096,-4.0096,-4.0096,-4.0096,-4.0096,-4.0113,-4.0263,-4.0387,-4.0534,-4.0673,-4.0793,-4.0912,-4.0912,-4.0912,-4.105,-4.2603,-4.3189,-4.3379,-4.4872,-4.5397,-4.5397,0.0,0.0,0.0,0.0,0.0,0.0,0.0,0.0,0.0,0.0,0.0,0.0,0.0,0.0,0.0,0.0,0.0,0.0,0.0,0.0,0.0,-5.5295,-5.4966,-5.4639,-5.4315,-5.3981,-5.359,-5.3144,-5.3144,-5.2717,-5.1936,-5.2289,-5.2698,-5.3144,-5.3144,0.0,0.0,-5.3754,-5.3735,-5.3735,-5.3735,-5.3716,-5.3602,-5.3273,-5.3088,-5.2808,-5.125,-5.0673,-5.0488,-4.9299,-4.8909,-4.8909,-4.8909,0.0,0.0,0.0,0.0,0.0,-4.3899,-4.2143,-4.0864,0.0,-4.0221,-3.9679,-3.9226,-3.8546,-3.7911,-3.7581,-3.7119,-3.6708,-3.6523,-3.6492,-3.6492,-3.6492,-3.6492,-3.6492,-3.6492,-3.6492,-3.6414,-3.6211,-3.6196,-3.6101,-3.5894,-3.5863,-3.5814,-3.5621,-3.5767,-3.5894,-3.6005,-3.6116,-3.6845,-3.825,-3.8306,-3.8876,-4.007,-4.0096,-4.0096,-4.0096,-4.0096,-4.0096,-4.0096,-4.0163,-4.0313,-4.051,-4.0648,-4.0769,-4.0912,-4.0912,-4.0912,-4.105,-4.2603,-4.3189,-4.3379,-4.4872,-4.5397,-4.5397,0.0,0.0,0.0,0.0,0.0,0.0,0.0,0.0,0.0,0.0,0.0,0.0,0.0,0.0,0.0,0.0,0.0,0.0,0.0,0.0,0.0,-5.4664,-5.4562,-5.4238,-5.3695,-5.3366,-5.2902,-5.2308,-5.2308,-5.1881,-5.1063,-5.1063,-5.138,-5.1955,-5.2382,-5.2772,0.0,0.0,-5.323,-5.3045,-5.3045,-5.2987,-5.2856,0.0,-5.2177,-5.1917,-5.0582,-5.0098,-4.9986,-4.9169,-4.8909,-4.8909,-4.8909,-4.8909,0.0,0.0,0.0,0.0,0.0,0.0,-4.0989,-4.0989,-4.0631,-4.0213,0.0,0.0,-3.8535,-3.8112,-3.761,-3.7135,-3.6785,-3.66,-3.6492,-3.6492,-3.6492,-3.6492,-3.6492,-3.6492,-3.6445,-3.6274,-3.6274,-3.6211,-3.6068,-3.6053,-3.5958,-3.5799,-3.5926,-3.6005,-3.6068,-3.6148,-3.6784,-3.8039,-3.8222,-3.8821,-3.985,-4.002,-4.0096,-4.0096,-4.0096,-4.0096,-4.0096,-4.0096,-4.0246,-4.051,-4.0624,-4.0745,-4.0912,-4.0912,-4.0912,-4.105,-4.2603,-4.3189,-4.3379,-4.4872,-4.5397,-4.5397,0.0,0.0,0.0,0.0,0.0,0.0,0.0,0.0,0.0,0.0,0.0,0.0,0.0,-5.453,-5.3837,-5.2173,0.0,0.0,0.0,0.0,0.0,-5.2975,-5.3397,0.0,-5.2057,-5.1688,-5.1491,-5.1454,-5.1454,-5.1026,-5.0172,-5.0172,-5.0155,-5.0213,-5.1732,-5.201,-5.138,0.0,0.0,-5.1248,-5.1248,-5.1229,-5.1229,0.0,0.0,0.0,-5.0377,-5.0098,-4.9986,-4.9169,-4.8909,-4.8909,-4.8909,-4.8909,0.0,0.0,0.0,0.0,0.0,-4.1618,0.0,-4.1186,-4.0734,-4.0288,0.0,0.0,-3.8871,-3.8546,-3.8141,-3.774,-3.7417,-3.6892,-3.6492,-3.6492,-3.6492,-3.6492,-3.6492,-3.6492,-3.6492,-3.6492,-3.6492,-3.6414,-3.6211,-3.6179,-3.6148,-3.6005,-3.6005,-3.6068,-3.6179,-3.6211,-3.66,-3.7401,-3.801,-3.8601,-3.9232,-3.9799,-4.0096,-4.0096,-4.0096,-4.0096,-4.0096,-4.0096,-4.0246,-4.051,-4.051,-4.0655,-4.0912,-4.0912,-4.0912,-4.105,-4.2603,-4.3189,-4.3379,-4.4872,-4.5397,-4.5397,0.0,0.0,0.0,0.0,0.0,0.0,0.0,0.0,0.0,0.0,0.0,0.0,0.0,-5.3121,-5.2315,-5.1702,-5.1135,0.0,0.0,0.0,0.0,-5.2223,-5.2405,-5.2223,-5.1575,-5.1452,-5.1156,0.0,-5.0599,-5.0153,-4.9336,-4.9336,-4.9283,-4.9268,-5.0361,-5.0953,-5.1156,-5.1337,0.0,-5.0984,-5.0984,-5.0944,-5.0868,0.0,0.0,-5.0138,-4.9509,-4.9266,-4.9247,-4.8984,-4.8909,0.0,0.0,0.0,0.0,0.0,0.0,0.0,0.0,0.0,0.0,-4.1237,-4.0948,-4.0624,-4.0355,-4.0062,-3.9635,-3.8963,-3.8535,-3.8169,-3.7783,-3.7358,-3.7013,-3.6847,-3.6816,-3.6754,-3.6523,-3.6492,-3.6492,-3.6492,-3.6492,-3.646,-3.6383,-3.6383,-3.632,-3.6148,-3.6258,-3.6289,-3.6196,-3.6305,-3.6708,-3.7387,-3.7982,-3.8794,-3.9773,-3.9995,-4.0096,-4.0096,-4.0096,-4.0096,-4.0096,-4.0096,-4.0246,-4.051,-4.051,-4.0655,-4.0912,-4.0912,-4.0912,-4.105,-4.2603,-4.3189,-4.3379,-4.4872,-4.5397,-4.5397,0.0,0.0,0.0,0.0,0.0,0.0,0.0,0.0,0.0,0.0,0.0,0.0,0.0,0.0,-5.125,-5.0945,-5.0399,-5.0303,-5.0887,-5.1038,-5.1092,-5.1061,-5.1308,-5.1183,-5.0562,-5.0562,0.0,0.0,0.0,0.0,0.0,-4.8874,-4.8821,-4.8769,-4.927,-4.9769,0.0,0.0,0.0,-5.0039,-5.0039,-4.9999,-4.9922,0.0,0.0,-4.925,-4.8864,-4.8732,-4.875,-4.8839,0.0,0.0,0.0,0.0,0.0,0.0,0.0,0.0,-4.325,0.0,0.0,0.0,-4.1129,-4.084,-4.0558,-4.0404,-4.0138,-3.9556,-3.9135,-3.8739,-3.8327,-3.8087,-3.777,-3.721,-3.706,-3.6908,-3.6693,-3.6585,-3.6492,-3.6492,-3.6492,-3.6492,-3.6492,-3.6492,-3.6445,-3.6305,-3.6414,-3.6445,-3.6305,-3.6414,-3.6861,-3.7695,-3.8096,-3.8876,-4.007,-4.0096,-4.0096,-4.0096,-4.0096,-4.0096,-4.0096,-4.0096,-4.0246,-4.051,-4.051,-4.0655,-4.0912,-4.0912,-4.0912,-4.105,-4.2603,-4.3189,-4.3379,-4.4872,-4.5397,-4.5397,0.0,0.0,0.0,0.0,0.0,0.0,0.0,0.0,0.0,-5.4776,0.0,0.0,0.0,0.0,0.0,-4.986,-4.9784,-4.979,-4.979,-5.0561,-5.0534,-4.9434,0.0,0.0,0.0,0.0,0.0,0.0,0.0,0.0,0.0,0.0,-4.8732,-4.8587,-4.8532,-4.8513,-4.8549,0.0,-4.9058,-4.8306,-4.8306,-4.8306,-4.8306,0.0,0.0,0.0,-4.8569,-4.8587,-4.8624,-4.875,0.0,0.0,0.0,0.0,0.0,0.0,0.0,0.0,0.0,0.0,0.0,0.0,0.0,0.0,-4.0894,-4.0583,-4.0313,-4.0305,-3.9952,-3.948,-3.9088,-3.9023,-3.8678,-3.7637,-3.721,-3.6999,-3.7015,-3.6724,-3.6492,-3.6492,-3.6492,-3.6492,-3.6492,-3.6492,-3.6492,-3.6492,-3.6492,-3.6492,-3.6492,-3.6492,-3.7058,-3.825,-3.8306,-3.8876,-4.007,-4.0096,-4.0096,-4.0096,-4.0096,-4.0096,-4.0096,-4.0096,-4.0246,-4.0493,-4.051,-4.0655,-4.0894,-4.0912,-4.0912,-4.105,-4.2603,-4.3189,-4.3379,-4.4872,-4.5397,-4.5397,0.0,0.0,0.0,0.0,0.0,0.0,0.0,0.0,-5.4072,0.0,0.0,0.0,-5.1678,-5.0579,-4.9847,-4.9809,-4.9627,-4.9514,-4.9514,-4.9524,-4.9384,-4.9062,-4.9249,-4.9216,-4.8909,0.0,0.0,0.0,0.0,0.0,0.0,0.0,0.0,0.0,-4.8513,-4.8438,-4.8381,-4.8563,0.0,-4.8306,-4.8306,-4.8306,0.0,0.0,0.0,0.0,0.0,-4.8532,-4.8532,0.0,-4.8715,-4.8712,0.0,0.0,0.0,0.0,0.0,0.0,-4.3429,0.0,0.0,0.0,0.0,0.0,0.0,-4.0799,-4.0631,-4.0355,-4.0188,-3.9969,-3.9523,-3.9428,-3.9348,-3.9022,-3.801,-3.721,-3.703,-3.6724,-3.6492,-3.6492,-3.6492,-3.6492,-3.6492,-3.6492,-3.6492,0.0,-3.6492,-3.6492,-3.6492,-3.6492,-3.7058,-3.825,-3.8306,-3.8876,-4.007,-4.0096,-4.0096,-4.0096,-4.0096,-4.0096,-4.0096,-4.0096,-4.0188,-4.0362,-4.0461,-4.0607,-4.0769,-4.0864,-4.0912,-4.105,-4.2603,-4.3189,-4.3379,-4.4872,-4.5397,-4.5397,0.0,0.0,0.0,0.0,0.0,0.0,-5.3813,-5.3813,-5.3813,0.0,0.0,0.0,-5.0432,-4.9655,-4.9255,-4.9401,-4.9283,-4.9193,-4.9193,-4.901,-4.8909,-4.8909,-4.8909,-4.8909,-4.8909,-4.8909,0.0,0.0,0.0,0.0,0.0,0.0,0.0,0.0,0.0,0.0,0.0,0.0,0.0,0.0,-4.8306,0.0,0.0,-4.8306,-4.8306,0.0,0.0,0.0,-4.842,-4.8532,-4.8402,0.0,0.0,0.0,0.0,0.0,0.0,0.0,0.0,0.0,0.0,0.0,0.0,0.0,-4.1192,-4.1018,-4.0823,-4.0583,-4.0534,-4.0412,-3.9978,-3.9885,-3.9833,-3.9636,-3.8794,-3.8042,-3.7682,-3.7089,-3.6724,-3.6724,-3.6585,-3.6492,-3.6492,-3.6492,-3.6492,-3.6492,-3.6492,-3.6492,-3.6492,-3.6492,-3.7058,-3.825,-3.8306,-3.8876,-4.007,-4.0096,-4.0096,-4.0096,-4.0096,-4.0096,-4.0096,-4.0096,-4.0163,-4.0305,-4.0436,-4.0583,-4.0697,-4.084,-4.0912,-4.105,-4.2603,-4.3189,-4.3379,-4.4872,-4.5397,-4.5397,0.0,0.0,0.0,0.0,0.0,0.0,-5.3774,-5.3774,-5.3774,0.0,-5.2364,-5.0767,-4.9171,-4.8911,-4.8874,-4.8874,-4.8874,-4.8874,-4.8874,-4.8891,-4.8891,-4.8891,-4.8891,-4.8909,-4.8909,-4.8909,-4.8909,0.0,0.0,0.0,0.0,0.0,0.0,0.0,0.0,0.0,0.0,0.0,0.0,-4.8229,-4.8287,-4.8306,0.0,0.0,-4.8306,-4.8306,-4.8306,-4.8306,-4.8325,-4.8346,-4.7924,0.0,0.0,0.0,0.0,0.0,-4.3771,0.0,0.0,0.0,0.0,0.0,-4.2095,0.0,-4.1583,-4.126,-4.0965,-4.0965,-4.0918,-4.0776,-4.0412,-4.0379,-4.0221,-3.9817,-3.9523,-3.9135,-3.8657,-3.774,-3.7121,-3.7075,-3.677,-3.6554,-3.6492,-3.6492,-3.6492,-3.6492,-3.6492,-3.6492,-3.6492,-3.6492,-3.7028,-3.8165,-3.821,-3.8794,-3.9995,-3.9995,-4.002,-4.0096,-4.0096,-4.0096,-4.0096,-4.0096,-4.0163,-4.0305,-4.0436,-4.0558,-4.0697,-4.084,-4.0963,-4.117,-4.262,-4.3241,-4.35,-4.488,-4.5397,-4.5397,0.0,0.0,0.0,0.0,0.0,-5.3676,-5.3579,0.0,-5.3559,-5.3559,-5.2154,-5.0768,-4.9732,0.0,0.0,0.0,-4.866,-4.866,-4.866,-4.8768,-4.8822,-4.8822,-4.8874,-4.8909,-4.8909,-4.8909,-4.8874,-4.8822,0.0,0.0,0.0,0.0,0.0,0.0,0.0,0.0,0.0,0.0,0.0,-4.7775,-4.8152,-4.8306,-4.8306,-4.8306,-4.8306,-4.8306,-4.8306,-4.8306,-4.8233,-4.7721,-4.7426,-4.7058,0.0,0.0,0.0,-4.3841,0.0,0.0,0.0,0.0,0.0,0.0,-4.2711,0.0,-4.2136,-4.1713,-4.1378,-4.1378,-4.1117,-4.0888,-4.0817,-4.0776,-4.0752,-4.0662,-4.032,-3.9867,-3.9162,-3.8383,-3.7799,-3.7504,-3.7134,-3.6816,-3.6523,-3.6492,-3.6492,-3.6492,-3.6492,-3.6492,-3.6492,-3.6492,-3.6831,-3.7549,-3.7578,-3.8169,-3.9365,-3.9365,-3.9618,-4.0096,-4.0096,-4.0096,-4.0096,-4.0096,-4.0096,-4.0163,-4.0395,-4.051,-4.0558,-4.0799,-4.1257,-4.1895,-4.2827,-4.3552,-4.419,-4.5052,-4.5397,-4.5397,0.0,0.0,0.0,0.0,0.0,0.0,0.0,0.0,0.0,0.0,0.0,0.0,0.0,0.0,0.0,0.0,0.0,0.0,0.0,-4.866,-4.8715,-4.8715,-4.8732,-4.875,-4.875,-4.875,-4.8732,-4.8715,0.0,0.0,0.0,0.0,0.0,0.0,0.0,0.0,0.0,0.0,-4.7044,-4.7291,-4.7775,0.0,-4.8306,-4.8306,-4.8306,-4.8306,-4.8306,-4.8049,-4.7645,-4.7316,-4.6673,0.0,-4.5055,-4.4522,-4.4118,0.0,-4.3515,-4.3515,0.0,0.0,0.0,-4.325,-4.305,0.0,0.0,-4.2011,-4.1494,-4.1494,-4.1186,-4.0912,-4.0912,-4.0912,-4.0912,-4.0912,-4.0728,-4.0485,-4.0087,-3.9242,-3.859,-3.8435,-3.8067,-3.765,-3.7103,-3.7042,-3.6906,-3.6523,-3.6492,-3.6492,-3.6492,-3.6492,-3.6785,-3.7387,-3.7417,-3.7969,-3.9179,-3.9206,-3.9497,-4.0096,-4.0096,-4.0096,-4.0096,-4.0096,-4.0096,-4.0121,-4.037,-4.051,-4.0534,-4.0776,-4.1585,-4.2637,-4.3034,-4.3655,-4.4397,-4.5121,-4.5397,-4.5397,0.0,0.0,0.0,0.0,0.0,0.0,0.0,0.0,0.0,0.0,0.0,0.0,0.0,0.0,0.0,0.0,0.0,0.0,0.0,-4.8569,-4.8587,-4.8587,-4.8587,-4.8605,-4.8605,-4.8605,-4.8587,-4.8587,0.0,0.0,0.0,0.0,0.0,0.0,0.0,0.0,0.0,0.0,0.0,-4.6794,0.0,-4.7611,-4.8015,-4.8015,-4.8093,-4.8153,-4.8084,-4.7645,-4.7058,-4.6746,-4.5773,-4.4654,-4.4525,-4.4011,0.0,0.0,0.0,0.0,0.0,0.0,0.0,0.0,0.0,-4.3031,0.0,0.0,0.0,-4.1437,-4.0974,-4.0591,-4.0653,-4.067,-4.0722,-4.0877,-4.0912,0.0,0.0,-4.0112,0.0,-3.9322,-3.9022,-3.8513,-3.7764,-3.7576,-3.7222,-3.6554,-3.6492,-3.6492,-3.6492,-3.6492,-3.6723,-3.7208,-3.7238,-3.7796,-3.9001,-3.9028,-3.9391,-4.0096,-4.0096,-4.0096,-4.0096,-4.0096,-4.0096,-4.0121,-4.037,-4.051,-4.0534,-4.0776,-4.1809,-4.3189,-4.3189,-4.3741,-4.4578,-4.5173,-4.5397,-4.5397,-5.3224,-5.3519,0.0,0.0,0.0,0.0,0.0,0.0,0.0,0.0,0.0,0.0,0.0,0.0,0.0,0.0,0.0,0.0,-4.8344,-4.8457,-4.8513,-4.8513,-4.8569,-4.8605,-4.8605,-4.8605,-4.8569,-4.8513,0.0,0.0,0.0,0.0,0.0,0.0,-4.6513,0.0,0.0,0.0,-4.5837,0.0,-4.6339,-4.6631,0.0,-4.7066,-4.7313,-4.7625,-4.7347,-4.7186,-4.6874,0.0,-4.4838,-4.458,0.0,-4.357,-4.3515,-4.3515,0.0,0.0,0.0,0.0,0.0,0.0,-4.348,0.0,0.0,0.0,-4.1497,-4.1201,0.0,0.0,0.0,0.0,0.0,0.0,0.0,0.0,-4.0912,-4.0799,-4.0476,-3.9808,-3.9385,-3.8838,-3.8128,-3.7433,-3.6892,-3.6523,-3.6492,-3.6492,-3.6492,-3.6492,-3.6523,-3.6616,-3.66,-3.7193,-3.839,-3.839,-3.8984,-4.0096,-4.0096,-4.0096,-4.0096,-4.0096,-4.0096,-4.0121,-4.037,-4.051,-4.0534,-4.0776,-4.1809,-4.3189,-4.3189,-4.4044,-4.5276,-4.5363,-4.5397,-4.5397,-5.185,-5.1999,0.0,0.0,0.0,0.0,0.0,0.0,0.0,0.0,0.0,0.0,0.0,0.0,0.0,0.0,0.0,-4.8306,-4.8306,0.0,0.0,-4.8382,-4.8401,-4.8439,-4.8439,-4.8439,-4.842,-4.8382,-4.8113,0.0,0.0,0.0,0.0,0.0,-4.607,0.0,-4.6161,0.0,-4.5537,0.0,0.0,0.0,0.0,-4.6678,-4.7182,-4.7503,-4.6904,-4.6575,-4.6232,0.0,-4.4397,0.0,0.0,0.0,0.0,-4.3515,0.0,0.0,0.0,0.0,0.0,0.0,0.0,0.0,-4.291,0.0,-4.1432,0.0,0.0,0.0,0.0,0.0,0.0,0.0,-4.0601,0.0,0.0,0.0,-4.0799,-4.0476,0.0,0.0,-3.9038,-3.8311,-3.7637,-3.7074,-3.7342,-3.7385,-3.7043,-3.7013,-3.7013,-3.7013,-3.7013,-3.7431,-3.8278,-3.8657,-3.9242,-4.0096,-4.0096,-4.0096,-4.0096,-4.0096,-4.0096,-4.0096,-4.0313,-4.0436,-4.051,-4.0721,-4.1736,-4.3189,-4.3189,-4.4096,-4.5397,-4.5397,-4.5397,-4.5397,-4.9789,0.0,0.0,0.0,0.0,0.0,-5.0396,-5.0396,-5.0305,-5.0086,0.0,0.0,-4.9065,-4.8478,0.0,0.0,-4.8306,-4.8306,-4.8306,0.0,-4.8306,-4.8306,-4.8306,-4.8306,-4.8306,-4.8306,-4.8248,-4.8113,-4.7775,0.0,0.0,0.0,0.0,0.0,0.0,-4.5615,-4.5955,0.0,-4.5397,-4.5397,-4.5397,-4.5276,-4.52,-4.6052,-4.6574,-4.6762,-4.5879,-4.5421,-4.5074,-4.429,-4.3725,0.0,-4.3339,0.0,-4.3515,0.0,0.0,0.0,-4.3515,0.0,0.0,0.0,0.0,0.0,0.0,0.0,0.0,0.0,0.0,0.0,0.0,0.0,0.0,0.0,0.0,-4.1065,0.0,-4.0965,0.0,0.0,0.0,0.0,0.0,-3.9076,-3.8407,-3.7738,-3.8124,-3.8153,-3.765,-3.7666,-3.7578,-3.7417,-3.7549,-3.7854,-3.8294,-3.8892,-3.9497,-4.0096,-4.0096,-4.0096,-4.0096,-4.0096,-4.0096,-4.0113,-4.0238,-4.0362,-4.0527,-4.0854,-4.1877,-4.3224,-4.3414,-4.4268,-4.5397,-4.5397,-4.5397,-4.5397,-4.7025,-4.865,0.0,0.0,0.0,-4.9341,-4.9341,-4.9341,-4.9073,-4.8286,-4.8161,0.0,0.0,0.0,0.0,0.0,0.0,-4.8306,-4.8306,0.0,-4.8306,-4.8306,-4.8306,-4.8306,-4.8306,-4.8306,-4.8093,-4.7611,-4.7611,0.0,0.0,0.0,0.0,0.0,-4.5423,-4.5397,-4.5423,-4.5397,-4.5397,-4.5397,-4.5397,-4.4975,-4.4379,0.0,-4.5058,-4.4941,-4.3875,0.0,0.0,-4.2542,-4.2555,0.0,0.0,0.0,0.0,0.0,0.0,0.0,0.0,0.0,0.0,-4.3515,0.0,0.0,0.0,0.0,-4.0776,0.0,0.0,0.0,0.0,0.0,0.0,0.0,0.0,0.0,0.0,0.0,0.0,0.0,0.0,0.0,0.0,-3.9411,-3.8974,-3.8502,-3.8474,-3.8418,-3.8278,-3.8278,-3.801,-3.7417,-3.7953,-3.8278,-3.8306,-3.8892,-3.9497,-4.0096,-4.0096,-4.0096,-4.0096,-4.0096,-4.0096,-4.0113,-4.0238,-4.0362,-4.0561,-4.142,-4.2341,-4.3276,-4.3983,-4.4734,-4.5397,-4.5397,-4.5397,-4.5397,0.0,0.0,0.0,0.0,0.0,-4.7717,-4.7717,-4.7717,-4.7627,-4.7337,-4.7301,0.0,0.0,-4.7138,-4.7313,0.0,0.0,-4.7975,-4.8287,-4.8306,0.0,-4.8306,-4.8306,-4.8306,-4.8306,-4.7995,-4.7775,-4.7611,-4.6981,0.0,0.0,0.0,0.0,0.0,0.0,-4.5397,0.0,0.0,0.0,0.0,0.0,-4.4535,-4.4319,0.0,-4.4429,-4.4144,-4.3243,-4.3141,0.0,-4.2465,-4.2318,-4.2438,-4.2438,-4.275,-4.3087,-4.3087,-4.3304,0.0,0.0,0.0,-4.3515,-4.3515,0.0,0.0,0.0,0.0,0.0,0.0,0.0,0.0,0.0,0.0,0.0,0.0,0.0,0.0,0.0,0.0,0.0,0.0,0.0,0.0,0.0,0.0,-3.9885,-3.9156,-3.9454,-3.947,-3.892,-3.8892,-3.881,-3.859,-3.8783,-3.8892,-3.8892,-3.9497,-3.9918,-4.0096,-4.0096,-4.0096,-4.0096,-4.0096,-4.0096,-4.0096,-4.0163,-4.0271,-4.0561,-4.1346,-4.2266,-4.3276,-4.4018,-4.4751,-4.5397,-4.5397,-4.5397,-4.5397,-4.5963,0.0,0.0,0.0,-4.637,-4.637,-4.637,-4.637,-4.637,-4.637,-4.637,0.0,-4.6631,0.0,-4.684,0.0,-4.7356,-4.7485,-4.7775,-4.7795,0.0,-4.7795,-4.7795,-4.7795,0.0,-4.7506,-4.727,0.0,0.0,-4.6087,0.0,0.0,0.0,0.0,0.0,-4.5397,-4.5397,-4.5397,-4.5397,0.0,0.0,-4.3958,0.0,0.0,-4.3328,-4.3109,0.0,-4.2244,-4.2427,-4.1911,-4.1821,-4.1948,-4.1948,-4.2259,-4.2653,-4.2653,-4.2827,-4.305,-4.305,-4.305,0.0,-4.305,-4.316,0.0,-4.1223,0.0,-4.0636,0.0,0.0,0.0,0.0,0.0,0.0,0.0,0.0,0.0,0.0,-4.1948,0.0,0.0,0.0,0.0,0.0,-4.0769,-4.0534,-3.991,-4.0196,-4.0146,0.0,-3.9566,-3.9418,-3.9206,-3.9418,-3.9418,-3.9206,-3.9799,-4.0096,-4.0096,-4.0096,-4.0096,-4.0096,-4.0096,-4.0096,-4.0096,-4.0096,-4.0246,-4.0578,-4.1604,-4.2474,-4.3293,-4.4285,-4.4992,-4.5397,-4.5397,-4.5397,-4.5397,-4.5371,-4.5371,-4.5371,-4.5371,-4.5397,-4.5397,0.0,0.0,-4.5397,0.0,-4.5371,-4.5563,-4.6087,-4.6137,-4.6339,-4.6817,-4.6863,-4.6863,-4.6908,-4.6908,0.0,0.0,-4.6908,-4.6908,-4.6908,0.0,0.0,0.0,0.0,0.0,0.0,0.0,0.0,0.0,-4.5397,0.0,-4.5397,-4.5397,-4.538,-4.5276,-4.4492,-4.3227,-4.1795,-4.1761,-4.1818,-4.1836,-4.1129,-4.0888,-4.0888,-4.0912,-4.114,-4.1468,-4.1468,-4.1799,-4.2157,-4.2157,-4.2177,-4.2198,-4.2198,-4.2198,-4.2198,-4.2198,-4.2519,0.0,0.0,0.0,-4.0533,0.0,0.0,0.0,0.0,0.0,0.0,0.0,0.0,0.0,0.0,0.0,0.0,0.0,0.0,0.0,0.0,-4.0912,-4.084,-4.0697,-4.0583,-4.0436,0.0,-4.0188,-3.9825,-3.9259,-3.9799,-3.9825,-3.9259,-3.9799,-4.0096,-4.0096,-4.0096,-4.0096,-4.0096,-4.0096,-4.0096,-4.0096,-4.0096,-4.0246,-4.0605,-4.2142,-4.2954,-4.3345,-4.4811,-4.5397,-4.5397,-4.5397,-4.5397,-4.5397,-4.5113,-4.5086,-4.5086,-4.5086,-4.5264,-4.5397,0.0,0.0,0.0,0.0,-4.5167,-4.5167,-4.5283,-4.531,-4.5537,-4.6116,-4.6165,0.0,0.0,0.0,0.0,-4.6908,-4.6908,-4.6908,-4.6908,-4.6578,-4.6315,-4.6211,0.0,0.0,-4.5397,0.0,0.0,0.0,0.0,0.0,-4.5397,-4.5397,-4.5096,-4.4458,-4.3012,-4.2163,-4.1744,0.0,-4.0874,-4.0864,-4.0789,-4.0745,-4.0769,-4.0864,-4.0965,-4.1065,-4.1065,-4.1351,-4.167,-4.167,-4.1927,-4.2198,-4.2198,-4.2198,-4.2198,-4.2198,-4.1888,-4.1289,0.0,0.0,0.0,0.0,0.0,0.0,0.0,0.0,0.0,0.0,0.0,0.0,0.0,0.0,0.0,-4.2074,0.0,0.0,-4.0918,-4.0912,-4.084,-4.0697,-4.0673,0.0,0.0,0.0,-4.0138,-3.9893,-4.002,-4.002,-3.9867,-4.002,-4.0096,-4.0096,-4.0096,-4.0096,-4.0096,-4.0096,-4.0096,-4.0096,-4.0096,-4.0188,-4.0457,-4.1963,-4.2766,-4.321,-4.4689,-4.53,-4.5397,-4.5397,-4.5397,-4.5397,-4.5005,-4.5005,-4.5005,-4.5005,0.0,0.0,-4.5238,-4.5167,0.0,-4.5096,-4.5059,0.0,-4.5005,-4.5005,-4.515,-4.5468,-4.552,0.0,-4.6035,0.0,0.0,-4.6133,-4.6175,-4.62,-4.6224,-4.5988,0.0,-4.5854,0.0,0.0,-4.5397,0.0,0.0,0.0,0.0,-4.5371,-4.5283,-4.4921,-4.4293,-4.3486,-4.2226,-4.1465,0.0,-4.0607,-4.0387,-4.032,-4.0478,-4.0576,-4.0631,-4.0769,-4.0817,-4.0817,-4.0888,-4.1018,-4.1146,-4.1214,-4.1378,-4.1556,-4.1622,-4.1622,-4.1622,-4.1622,-4.1213,-4.058,-3.9727,-3.9085,-3.847,0.0,-3.7505,-3.7578,0.0,0.0,0.0,0.0,0.0,0.0,0.0,0.0,0.0,0.0,-4.1842,0.0,-4.0965,-4.0912,-4.0864,-4.0793,-4.0721,0.0,0.0,0.0,-4.0238,-4.0096,-4.0096,-4.0096,-4.0096,-4.0096,-4.0096,-4.0096,-4.0096,-4.0096,-4.0096,-4.0096,-4.0096,-4.0096,-4.0096,-4.0188,-4.0407,-4.1895,-4.2697,-4.3142,-4.4689,-4.5327,-4.5397,-4.5397,-4.5397,-4.5397,-4.4951,-4.4951,0.0,0.0,0.0,0.0,0.0,-4.4951,0.0,-4.4978,0.0,-4.4951,-4.4951,-4.4951,-4.4951,-4.4951,-4.4978,-4.4978,-4.5005,-4.5005,-4.5059,-4.515,-4.5177,-4.522,-4.5344,-4.5344,-4.5371,0.0,0.0,0.0,0.0,0.0,0.0,0.0,0.0,0.0,0.0,-4.4118,-4.327,-4.2501,-4.1732,-4.0991,-4.0305,-4.028,-4.0188,-4.0113,-4.0238,-4.0362,-4.0485,-4.0624,-4.0673,-4.0697,-4.0817,-4.0769,-4.0697,-4.0799,-4.0793,-4.0721,-4.084,-4.0888,-4.0912,-4.0888,-4.0497,-3.9952,-3.9227,-3.8715,-3.8177,-3.7464,-3.7339,-3.7358,0.0,0.0,0.0,0.0,0.0,0.0,0.0,0.0,0.0,0.0,0.0,0.0,0.0,0.0,0.0,0.0,-4.0793,0.0,0.0,0.0,-4.0263,-4.0096,-4.0096,-4.0096,-4.0096,-4.0096,-4.0096,-4.0096,-4.0096,-4.0096,-4.0096,-4.0096,-4.0096,-4.0096,-4.0096,-4.0214,-4.0518,-4.192,-4.2791,-4.3391,-4.4828,-4.5397,-4.5397,-4.5397,-4.5397,-4.5397,-4.4682,-4.4682,0.0,0.0,0.0,-4.4682,-4.4682,-4.4748,-4.4831,-4.4831,-4.4737,-4.4682,-4.4682,-4.4682,-4.4709,-4.4831,-4.4831,0.0,0.0,0.0,0.0,-4.5032,-4.5032,-4.5059,-4.5059,-4.5059,-4.5113,0.0,0.0,0.0,0.0,0.0,0.0,0.0,0.0,0.0,-4.4074,-4.3253,0.0,-4.1715,-4.0881,-4.0432,-4.0305,-4.0188,-4.0138,-4.0096,-4.0138,-4.0213,-4.0355,-4.0485,-4.0534,-4.0534,-4.0558,-4.0558,-4.0534,-4.0558,-4.0631,-4.0697,-4.0721,-4.0817,-4.0871,-4.0769,-3.9732,-3.867,-3.8437,-3.7469,-3.6599,-3.6461,-3.6468,-3.6618,-3.6939,0.0,0.0,0.0,0.0,0.0,0.0,0.0,0.0,0.0,0.0,-4.1423,0.0,0.0,0.0,0.0,0.0,0.0,0.0,0.0,-4.0345,0.0,-4.0096,0.0,0.0,0.0,-4.0096,-4.0096,-4.0096,-4.0096,-4.0096,-4.0096,-4.0096,-4.0096,-4.0096,-4.0451,-4.1111,-4.1984,-4.3229,-4.47,-4.5091,-4.53,-4.5397,-4.5397,-4.5397,-4.5397,-4.4598,0.0,0.0,0.0,0.0,0.0,0.0,-4.4654,-4.4709,-4.4709,-4.4626,-4.4615,-4.4615,-4.4615,-4.4643,-4.4682,-4.4709,-4.472,-4.4776,-4.4776,-4.4831,-4.4886,-4.4913,-4.494,-4.5005,-4.5005,-4.5032,-4.5113,0.0,0.0,0.0,0.0,0.0,0.0,0.0,-4.4119,0.0,0.0,0.0,-4.1325,-4.0518,-4.0188,-4.0188,-4.0121,-4.0096,-4.0096,-4.0096,-4.0138,-4.0213,-4.0337,-4.0387,-4.0412,-4.0485,-4.0461,-4.0412,-4.0485,-4.0485,-4.0502,-4.0583,-4.0631,-4.068,-4.0607,-3.9435,-3.8265,-3.8213,-3.7096,-3.6122,-3.6204,-3.6229,-3.6439,-3.7092,-3.8003,0.0,0.0,0.0,0.0,0.0,0.0,-4.1687,0.0,0.0,0.0,0.0,0.0,0.0,0.0,0.0,-4.0776,-4.0493,0.0,-4.0387,0.0,0.0,0.0,-4.0096,0.0,-4.0096,-4.0096,-4.0096,-4.0096,-4.0096,-4.0096,-4.0096,-4.0096,-4.0096,-4.051,-4.1288,-4.2518,-4.3773,-4.4913,-4.5113,-4.5194,-4.5211,-4.5344,-4.5371,-4.53,-4.4615,-4.4615,0.0,0.0,-4.4615,-4.4615,-4.4615,-4.4615,-4.4615,-4.4615,-4.4615,-4.4615,-4.4615,-4.4615,-4.4615,-4.4615,-4.4615,-4.4615,-4.4615,-4.4615,-4.4654,-4.4748,-4.4765,-4.4803,-4.4896,-4.4896,-4.494,0.0,0.0,0.0,0.0,0.0,0.0,0.0,0.0,0.0,0.0,0.0,-4.1119,-4.0916,-4.0333,-4.0096,-4.0096,-4.0096,-4.0096,-4.0096,-4.0096,-4.0096,-4.0113,-4.0213,-4.0263,-4.028,-4.0387,-4.0337,-4.0263,-4.037,-4.0362,-4.0313,-4.0436,-4.0485,-4.0493,-4.0461,-3.9317,-3.8167,-3.8138,-3.7024,-3.5993,-3.6079,-3.6122,-3.6376,-3.7085,-3.7348,0.0,0.0,0.0,0.0,0.0,0.0,0.0,0.0,0.0,0.0,-4.0894,0.0,0.0,0.0,0.0,-4.0752,-4.051,-4.0485,-4.0362,0.0,0.0,-4.0096,-4.0096,0.0,-4.0096,-4.0096,-4.0096,-4.0096,-4.0096,-4.0096,-4.0096,-4.0096,-4.0096,-4.062,-4.1559,-4.3216,-4.4238,-4.4831,-4.5032,-4.5059,-4.5049,-4.5238,-4.5274,-4.522,0.0,0.0,0.0,0.0,0.0,-4.4615,-4.4615,-4.4615,-4.4615,-4.4615,-4.4615,-4.4615,-4.4615,-4.4615,-4.4615,-4.4615,-4.4615,-4.4615,-4.4615,-4.4615,-4.4615,-4.4626,-4.4626,-4.4626,-4.4626,-4.4626,-4.4709,0.0,0.0,-4.4886,0.0,0.0,0.0,0.0,0.0,0.0,0.0,-4.1542,-4.0798,-4.0197,-4.013,-4.0096,-4.0096,-4.0096,-4.0096,-4.0096,-4.0096,-4.0096,-4.0096,-4.0096,-4.0138,-4.0138,-4.0121,-4.0121,-4.0138,-4.0121,-4.0213,-4.0288,-4.033,-4.0412,-4.0485,-4.0337,-3.9207,-3.8078,-3.7953,-3.6837,-3.5817,-3.5839,-3.5932,-3.6075,-3.629,-3.6878,-3.7399,0.0,0.0,0.0,0.0,0.0,-4.0942,-4.0894,0.0,0.0,-4.0721,-4.084,0.0,0.0,-4.0721,-4.0631,-4.051,-4.0387,-4.0238,-4.0096,-4.0096,-4.0096,-4.0096,-4.0096,-4.0096,-4.0096,-4.0096,-4.0096,-4.0096,-4.0096,-4.0096,-4.0096,-4.0096,-4.0908,-4.2303,-4.387,-4.4614,-4.4803,-4.4831,-4.4896,-4.5005,-4.5032,-4.5113,-4.5203,0.0,0.0,0.0,0.0,0.0,0.0,0.0,-4.4615,-4.4615,-4.4615,-4.4615,-4.4615,-4.4615,-4.4615,-4.4615,-4.4615,-4.4615,-4.4615,-4.4615,-4.4615,-4.4615,-4.4615,-4.4615,-4.4615,-4.4615,-4.4615,-4.4643,0.0,0.0,0.0,0.0,0.0,0.0,0.0,0.0,-4.2337,-4.1593,-4.0849,-4.0383,-4.0096,-4.0096,-4.0096,-4.0096,-4.0096,-4.0096,-4.0096,-4.0096,-4.0096,-4.0096,-4.0096,-4.0096,-4.0096,-4.0096,-4.0096,-4.0096,-4.0096,-4.0138,-4.0188,-4.0188,-4.0238,-4.0263,-4.0188,-3.9061,-3.7977,-3.7905,-3.6745,-3.5689,-3.5795,-3.5905,-3.6019,-3.6062,-3.6319,-3.6683,-3.7185,0.0,0.0,0.0,0.0,0.0,-4.0888,0.0,-4.0769,0.0,-4.0745,0.0,0.0,0.0,-4.0648,-4.051,-4.0362,-4.0238,-4.0096,0.0,-4.0096,-4.0096,-4.0096,-4.0096,-4.0096,-4.0096,-4.0096,-4.0096,-4.0096,-4.035,-4.0781,-4.1221,-4.1999,-4.3064,-4.413,-4.4626,-4.4682,-4.4776,-4.4776,-4.4776,-4.4923,-4.5032,-4.5086,-4.4615,0.0,-4.4615,0.0,-4.4615,-4.4615,-4.4615,-4.4615,-4.4615,-4.4615,-4.4615,-4.4615,-4.4615,-4.4615,-4.4615,-4.4615,-4.4615,-4.4615,-4.4615,-4.4615,-4.4615,-4.4615,-4.4615,0.0,-4.4615,-4.4615,-4.4615,-4.4615,-4.4615,0.0,0.0,0.0,0.0,0.0,-4.2303,-4.1694,-4.1153,-4.0417,-4.0096,-4.0096,-4.0096,-4.0096,-4.007,-3.9918,-3.9944,-4.0087,-3.9918,-3.9944,-4.0096,-4.0096,-4.0096,-4.0096,-4.0096,-4.0096,-4.0096,-4.0096,-4.0096,-4.0096,-4.0096,-4.0096,-4.0096,-4.0096,-3.914,-3.8176,-3.7956,-3.6907,-3.5915,-3.5762,-3.5839,-3.5888,-3.5932,-3.5932,-3.6188,-3.6961,0.0,0.0,0.0,-4.0192,0.0,-4.084,-4.0769,-4.0673,-4.0648,-4.0673,0.0,0.0,0.0,-4.0551,-4.0436,-4.0313,-4.0188,0.0,0.0,0.0,-4.0096,-4.0096,-4.0096,-4.0096,-4.0096,-4.0096,-4.0096,-4.0096,-4.0493,-4.1238,-4.1982,-4.2726,-4.3443,-4.4265,-4.4615,-4.4598,-4.4709,-4.4682,-4.4626,-4.4803,-4.4913,-4.4951,-4.4615,-4.4615,-4.4615,-4.4615,-4.4615,-4.4615,-4.4615,-4.4615,-4.4615,-4.4615,-4.4615,-4.4615,-4.4615,-4.4615,-4.4615,-4.4615,-4.4615,-4.4615,-4.4615,-4.4615,-4.4615,0.0,0.0,-4.4615,-4.4615,-4.4615,-4.4615,-4.4615,0.0,0.0,-4.4581,0.0,-4.3031,-4.2269,-4.1542,-4.1221,-4.1153,-4.0417,-4.0096,-4.0096,-4.0096,-4.0096,-4.002,-3.9444,-3.9592,-4.002,-3.9418,-3.9575,-4.0096,-4.0096,-4.0096,-4.0096,-4.0096,-4.0096,-4.0096,-4.0096,-4.0096,-4.0096,-4.0096,-4.0096,-4.0096,-4.0096,-3.9554,-3.8802,-3.8075,-3.7313,-3.6575,-3.5752,-3.56,-3.5644,-3.5773,-3.5795,-3.6094,-3.6956,0.0,0.0,0.0,-4.0048,0.0,-4.0697,-4.0697,-4.0648,-4.051,-4.0624,0.0,0.0,0.0,0.0,0.0,0.0,0.0,-4.0096,-4.0096,0.0,-4.0096,-4.0096,-4.0096,-4.0096,-4.0096,-4.0096,-4.0096,-4.0096,-4.0493,-4.1238,-4.1982,-4.2726,-4.3443,-4.4265,-4.4615,-4.4615,-4.4615,-4.4615,-4.4615,-4.4598,-4.4682,-4.4803,-4.3169,-4.3169,-4.3169,-4.3169,-4.3169,-4.3169,-4.3169,-4.3169,-4.3169,-4.3169,-4.3558,-4.3693,-4.3229,-4.4035,-4.4615,0.0,-4.4615,-4.4615,0.0,-4.4615,-4.4615,-4.4615,-4.4615,-4.4615,-4.4615,-4.4615,-4.4615,-4.4615,0.0,0.0,0.0,-4.3014,-4.2252,-4.1542,-4.1305,-4.0916,-4.0434,-4.0197,-4.0096,-4.0045,-3.9644,-3.9497,-3.9418,-3.8821,-3.8712,-3.8903,-3.9109,-3.9312,-3.9566,-3.9969,-4.0096,-4.0096,-4.0096,-4.0096,-4.0096,-4.0096,-4.0096,-4.0096,-4.0096,-4.0096,-4.0096,-4.0096,-3.9554,-3.8937,-3.87,-3.7692,-3.6728,-3.6468,-3.6417,-3.644,-3.6463,-3.6886,-3.7333,-3.7594,-3.8262,0.0,-3.9214,0.0,-4.0412,-4.0558,-4.0461,-4.0429,-4.0379,-4.0387,0.0,0.0,0.0,0.0,0.0,0.0,0.0,0.0,-4.0096,0.0,-4.0096,-4.0096,-4.0096,-4.0096,-4.0096,-4.0096,-4.013,-4.0612,-4.1255,-4.1982,-4.2726,-4.3487,-4.4231,-4.4496,-4.4615,-4.4615,-4.4615,-4.4615,-4.4615,-4.4615,-4.4682,-4.4803,-4.2426,-4.241,-4.2379,-4.2332,-4.2316,-4.2316,-4.2316,-4.2316,-4.2316,-4.2316,-4.2722,-4.2892,-4.2489,-4.3243,0.0,-4.4179,-4.4179,-4.431,-4.457,-4.4615,-4.4615,-4.4615,-4.4615,-4.4615,-4.4615,-4.4615,0.0,-4.4615,-4.4282,-4.3758,-4.298,-4.2236,-4.1491,-4.0781,-4.0781,-4.0536,-4.0096,-4.0096,-4.0096,-4.0045,-3.9444,-3.9206,-3.9109,-3.8266,-3.8096,-3.8306,-3.8463,-3.881,-3.9259,-3.9627,-3.9901,-4.0096,-4.0096,-4.0096,-4.0096,-4.0096,-4.0096,-4.0096,-4.0096,-4.0096,-4.0096,-4.0096,-3.9757,-3.9326,-3.9056,-3.8058,-3.7195,-3.7195,-3.7195,-3.7195,-3.7195,-3.7584,-3.799,-3.8278,-3.87,-3.9114,-3.95,0.0,-4.0263,0.0,0.0,0.0,0.0,-4.0305,-4.0238,0.0,0.0,0.0,0.0,0.0,0.0,-4.0096,-4.0096,-4.0096,-4.0096,-4.0096,-4.0096,-4.0096,-4.0096,-4.0248,-4.0536,-4.0984,-4.1762,-4.2743,-4.3217,-4.3859,-4.4615,-4.4615,-4.4615,-4.4615,-4.4615,-4.4615,-4.4615,-4.4615,-4.4654,-4.472,-4.2173,-4.2141,-4.2078,0.0,-4.1869,0.0,-4.1869,-4.1869,-4.1869,-4.1869,-4.2062,-4.2205,-4.2141,-4.23,-4.2645,-4.3257,0.0,0.0,-4.4412,-4.444,-4.444,-4.444,-4.4514,-4.4542,-4.4542,-4.457,-4.4615,-4.4615,-4.3741,-4.298,-4.2269,-4.1491,-4.0747,-4.0096,-4.0045,-4.0045,-4.002,-3.9995,-3.9995,-3.9995,-3.9339,-3.9098,-3.9001,-3.7812,-3.7679,-3.8124,-3.7578,-3.8112,-3.9082,-3.9109,-3.9523,-4.002,-3.9995,-3.9995,-4.0045,-4.007,-4.0096,-4.0096,-4.0096,-4.0096,-4.0096,-4.0096,-4.0096,-3.9926,-3.9225,-3.8514,-3.799,-3.799,-3.799,-3.799,-3.799,-3.8024,-3.8278,-3.8954,-3.9073,-3.9334,-4.0011,-4.0096,-4.0163,0.0,0.0,0.0,-4.0305,-4.0305,-4.0238,0.0,0.0,0.0,0.0,0.0,-4.0096,-4.0096,-4.0096,-4.0096,-4.0096,-4.0096,-4.0096,-4.0096,-4.0146,-4.0527,-4.1204,-4.1322,-4.2117,-4.3392,-4.3443,-4.391,-4.4615,-4.4615,-4.4615,-4.4615,-4.4615,-4.4615,-4.4615,-4.4615,-4.4615,-4.4615,0.0,0.0,-4.0543,-4.0474,-4.0474,-4.0474,-4.0474,-4.0474,-4.0474,-4.0474,-4.0974,-4.1093,-4.0597,-4.1042,-4.1411,-4.1559,-4.2284,-4.28,-4.3,-4.3,-4.3,-4.3,-4.3499,-4.3764,-4.3764,-4.431,-4.4615,-4.4615,-4.3217,-4.2472,-4.2252,-4.0976,-4.0282,-4.007,-3.9618,-3.9418,-3.9391,-3.893,-3.8984,-3.9312,-3.8254,-3.8096,-3.8379,-3.7163,-3.68,-3.6967,-3.7298,-3.7578,-3.7883,-3.8351,-3.8903,-3.9339,-3.8876,-3.9038,-3.9497,-3.9969,-4.0096,-4.0096,-4.0096,-4.0096,-4.0096,-4.0096,-4.0096,-4.0062,-3.9893,-3.9259,-3.8734,-3.8734,-3.8734,-3.8734,-3.8734,-3.9191,-3.9656,-3.9808,-3.9842,-3.991,-4.0079,-4.0096,-4.0096,0.0,-4.0163,-4.0163,-4.0163,-4.0163,-4.0121,0.0,0.0,0.0,-4.0096,-4.0096,-4.0096,-4.0096,-4.0096,-4.0096,-4.0096,-4.0096,-4.0096,-4.0113,-4.0663,-4.1035,-4.1238,-4.2388,-4.3054,-4.3426,-4.4045,-4.4429,-4.4615,-4.4615,-4.4615,-4.4615,-4.4615,-4.4615,-4.4615,-4.4615,-4.4615,-4.4615,-3.9889,-3.9854,-3.9818,-3.9747,-3.9711,-3.9711,-3.9711,-3.9711,-3.9711,-3.9711,-4.0126,-4.025,-3.991,-4.0281,-4.0528,-4.0528,-4.1426,-4.2078,-4.2395,-4.2458,-4.252,-4.252,-4.2862,-4.3045,-4.3045,-4.3439,-4.3634,-4.3634,-4.246,-4.1888,-4.1814,-4.0407,-3.9734,-3.967,-3.9055,-3.8794,-3.8783,-3.8435,-3.849,-3.8712,-3.7767,-3.7608,-3.7796,-3.6861,-3.6492,-3.6554,-3.6861,-3.7164,-3.7431,-3.7767,-3.8294,-3.8767,-3.8739,-3.8947,-3.9312,-3.9918,-3.9901,-3.9696,-3.9696,-3.9893,-4.0096,-4.0096,-4.0096,-4.0096,-4.0096,-3.9791,-3.9503,-3.9503,-3.9503,-3.9503,-3.9503,-3.9842,-4.0096,-4.0096,-4.0096,-4.0096,-4.0096,-4.0096,-4.0096,-4.0096,-4.0096,-4.0096,-4.0096,-4.0096,-4.0096,-4.0096,-4.0096,0.0,-4.0096,-4.0096,-4.0096,-4.0096,-4.0096,-4.0096,-4.0096,-4.0096,-4.0096,-4.0113,-4.0849,-4.139,-4.1745,-4.2868,-4.3606,-4.3978,-4.4401,-4.4615,-4.4615,-4.4615,-4.4615,-4.4615,-4.4615,-4.4615,-4.4615,-4.4615,-4.4615,-4.4615,-3.9696,-3.9646,-3.9589,-3.9424,-3.9388,-3.9388,-3.9388,-3.9388,-3.9388,-3.9388,-3.9553,-3.9646,-3.9646,-3.9818,-3.9905,-3.9905,-4.0597,-4.1327,-4.1917,-4.2046,-4.2109,-4.2109,-4.2237,-4.23,-4.2332,-4.2458,-4.252,-4.252,-4.1763,-4.1322,-4.1127,-3.9874,-3.9231,-3.9028,-3.8435,-3.8165,-3.8153,-3.8067,-3.8096,-3.8124,-3.7519,-3.7328,-3.7328,-3.6723,-3.6492,-3.6492,-3.6492,-3.6831,-3.7268,-3.7268,-3.765,-3.8238,-3.8673,-3.8865,-3.9001,-3.9428,-3.9322,-3.9109,-3.9286,-3.9722,-4.0096,-4.0096,-4.0096,-4.0096,-4.0096,-4.0096,-4.0096,-4.0096,-4.0096,-4.0096,-4.0096,-4.0096,-4.0096,-4.0096,-4.0096,-4.0096,-4.0096,0.0,-4.0096,-4.0096,-4.0096,-4.0096,-4.0096,-4.0096,-4.0096,-4.0096,-4.0096,-4.0096,-4.0096,-4.0096,-4.0096,-4.0096,-4.0096,-4.0096,-4.0096,-4.0096,-4.0163,-4.0282,-4.1001,-4.1745,-4.2489,-4.325,-4.3944,-4.4615,-4.4615,-4.4615,-4.4615,-4.4615,-4.4615,-4.4615,-4.4615,-4.4615,-4.4615,-4.4615,-4.4615,-4.4615,-3.9445,-3.946,-3.946,-3.9424,-3.9388,-3.9388,-3.9388,-3.9388,-3.9388,-3.9388,-3.9424,-3.946,-3.946,-3.9445,-3.9496,-3.9496,-3.9788,-4.0056,-4.0351,-4.0385,-4.0385,-4.0385,-4.094,-4.1327,-4.1492,-4.2141,-4.252,-4.252,-4.1763,-4.1112,-4.0518,-3.9687,-3.8987,-3.839,-3.7796,-3.7549,-3.7519,-3.7013,-3.7058,-3.749,-3.6892,-3.6952,-3.7328,-3.6723,-3.6492,-3.6492,-3.6492,-3.6554,-3.6631,-3.6631,-3.7028,-3.746,-3.7058,-3.7268,-3.7608,-3.7163,-3.7722,-3.864,-3.9679,-4.002,-4.0096,-4.0096,-4.0096,-4.0096,-4.0096,-4.0096,-4.0096,-4.0096,-4.0096,-4.0096,-4.0096,-4.0096,-4.0096,-4.0096,-4.0096,-4.0096,-4.0096,0.0,-4.0096,-4.0096,-4.0096,-4.0096,-4.0096,-4.0096,-4.0096,-4.0096,-4.0096,-4.0096,-4.0096,-4.0096,-4.0096,-4.0096,-4.0096,-4.0096,-4.0096,-4.0096,-4.0417,-4.1035,-4.1779,-4.2523,-4.324,-4.4045,-4.4496,-4.4615,-4.4615,-4.4615,-4.4615,-4.4615,-4.4615,-4.4615,-4.4615,-4.4615,-4.4615,-4.4615,-4.4615,-4.4615,-3.9388,-3.9388,-3.9388,-3.9388,-3.9388,-3.9388,-3.9388,-3.9388,-3.9388,-3.9388,-3.9388,-3.9388,-3.9388,-3.9388,-3.9388,-3.9388,-3.9481,-3.9604,-3.9676,-3.9889,-4.0011,-4.0011,-4.0281,-4.0509,-4.0612,-4.094,-4.116,-4.116,-4.0796,-4.0477,-4.0119,-3.9439,-3.881,-3.8175,-3.7544,-3.7157,-3.6892,-3.6616,-3.6662,-3.6892,-3.66,-3.6662,-3.6892,-3.6616,-3.6492,-3.6492,-3.6492,-3.6492,-3.6492,-3.6492,-3.6693,-3.6922,-3.6983,-3.7178,-3.7417,-3.746,-3.7867,-3.8557,-3.9756,-4.0096,-4.0096,-4.0096,-4.0096,-4.0096,-4.0096,-4.0096,-4.0096,-4.0096,-4.0096,-4.0096,-4.0096,-4.0096,-4.0096,-4.0096,-4.0096,0.0,0.0,-4.0096,-4.0096,-4.0096,-4.0096,-4.0096,-4.0096,-4.0096,-4.0096,-4.0096,-4.0096,-4.0096,-4.0096,-4.0096,-4.0096,-4.0096,-4.0096,-4.0096,-4.0096,-4.0476,-4.0865,-4.1221,-4.2354,-4.3081,-4.3426,-4.4215,-4.4615,-4.4615,-4.4615,-4.4615,-4.4615,-4.4615,-4.4615,-4.4615,-4.4615,-4.4615,-4.4615,-4.4615,-4.4615,-4.4615,-3.9388,-3.9388,-3.9388,-3.9388,-3.9388,-3.9388,-3.9388,-3.9388,-3.9388,-3.9388,-3.9388,-3.9388,-3.9388,-3.9388,-3.9388,-3.9388,-3.9388,-3.9388,-3.9388,-3.9676,-3.9854,-3.9854,-3.9889,-3.9925,-3.9925,-3.996,-4.0011,-4.0011,-4.0011,-3.991,-3.9696,-3.9219,-3.8662,-3.8028,-3.7427,-3.6945,-3.6597,-3.6459,-3.6398,-3.6398,-3.6398,-3.6398,-3.6398,-3.6429,-3.6414,-3.6445,-3.6492,-3.6492,-3.6492,-3.6492,-3.6492,-3.6569,-3.7028,-3.7178,-3.7298,-3.7767,-3.7982,-3.8306,-3.9401,-3.9773,-3.9893,-3.9893,-3.9995,-4.0096,-4.0096,-4.0096,-4.0096,-4.0096,-4.0096,-4.0096,-4.0096,-4.0096,-4.0096,-4.0096,0.0,0.0,0.0,-4.0096,-4.0096,-4.0096,-4.0096,-4.0096,-4.0096,-4.0096,-4.0096,-4.0096,-4.0096,-4.0096,-4.0096,-4.0096,-4.0096,-4.0096,-4.0096,-4.0096,-4.0096,-4.0832,-4.1288,-4.1474,-4.2794,-4.3494,-4.3707,-4.4316,-4.4615,-4.4615,-4.4615,-4.4615,-4.4615,-4.4615,-4.4615,-4.4615,-4.4615,-4.4615,-4.4615,-4.4615,-4.4615,-4.4615,-3.9388,-3.9388,-3.9388,-3.9388,-3.9388,-3.9388,-3.9388,-3.9388,-3.9388,-3.9388,-3.9388,-3.9388,-3.9388,-3.9388,-3.9388,-3.9388,-3.9388,-3.9388,-3.9388,-3.9424,-3.946,-3.946,-3.9625,-3.9732,-3.9732,-3.9889,-4.0011,-4.0011,-4.0011,-3.9697,-3.9078,-3.9009,-3.8599,-3.7889,-3.7263,-3.699,-3.6932,-3.631,-3.6037,-3.6037,-3.6037,-3.6037,-3.6037,-3.6179,-3.6211,-3.6242,-3.6414,-3.6492,-3.6492,-3.6492,-3.6492,-3.6523,-3.6554,-3.6585,-3.6585,-3.6631,-3.7043,-3.7608,-3.8266,-3.8849,-3.9259,-3.9259,-3.9696,-4.0096,-4.0096,-4.0096,-4.0096,-4.0096,-4.0096,-4.0096,-4.0096,-4.0096,-4.0096,-4.0096,0.0,0.0,-4.0096,-4.0096,-4.0096,-4.0096,-4.0096,-4.0096,-4.0096,-4.0096,-4.0096,-4.0096,-4.0096,-4.0096,-4.0096,-4.0096,-4.0096,-4.0096,-4.0096,-4.0096,-4.0096,-4.0832,-4.1542,-4.2219,-4.3031,-4.3792,-4.4513,-4.4581,-4.4615,-4.4615,-4.4615,-4.4615,-4.4615,-4.4615,-4.4615,-4.4615,-4.4615,-4.4615,-4.4615,-4.4615,-4.4615,-4.4615,-3.9388,-3.9388,-3.9388,-3.9388,-3.9388,-3.9388,-3.9388,-3.9388,-3.9388,-3.9388,-3.9388,-3.9388,-3.9388,-3.9388,-3.9388,-3.9388,-3.9388,-3.9388,-3.9388,-3.9388,-3.9388,-3.9388,-3.9481,-3.9517,-3.9517,-3.9604,-3.964,-3.964,-3.964,-3.9505,-3.9264,-3.9264,-3.8938,-3.8413,-3.8171,-3.7857,-3.7519,-3.6899,-3.6626,-3.658,-3.6187,-3.6005,-3.6005,-3.6068,-3.6068,-3.61,-3.6163,-3.6258,-3.6305,-3.6305,-3.6383,-3.6492,-3.6492,-3.6492,-3.6492,-3.6492,-3.6662,-3.6892,-3.7103,-3.7895,-3.8629,-3.8629,-3.9109,-3.9523,-3.9523,-3.9825,-4.0096,-4.0096,-4.0096,-4.0096,-4.0096,-4.0096,-4.0096,-4.0096,0.0,-4.0096,-4.0096,-4.0096,-4.0096,-4.0096,-4.0096,-4.0096,-4.0096,-4.0096,-4.0096,-4.0096,-4.0096,-4.0096,-4.0096,-4.0096,-4.0096,-4.0096,-4.0527,-4.0781,-4.0781,-4.1508,-4.2252,-4.2997,-4.3775,-4.4282,-4.4615,-4.4615,-4.4615,-4.4615,-4.4615,-4.4615,-4.4615,-4.4615,-4.4615,-4.4615,-4.4615,-4.4615,-4.4615,-4.4615,-4.4615,-4.4615,-3.9388,-3.9388,-3.9388,-3.9388,-3.9388,-3.9388,-3.9388,-3.9388,-3.9388,-3.9388,-3.9388,-3.9388,-3.9388,-3.9388,-3.9388,-3.9388,-3.9388,-3.9388,-3.9388,-3.9388,-3.9388,-3.9388,-3.9388,-3.9388,-3.9388,-3.9388,-3.9388,-3.9388,-3.9388,-3.9388,-3.9388,-3.9388,-3.9206,-3.8898,-3.8687,-3.8396,-3.8016,-3.7382,-3.7038,-3.6811,-3.6328,-3.6042,-3.5861,-3.5878,-3.5894,-3.5894,-3.5973,-3.6068,-3.6148,-3.6179,-3.6274,-3.6414,-3.6492,-3.6492,-3.6492,-3.6492,-3.6492,-3.6492,-3.6492,-3.7103,-3.778,-3.7982,-3.8463,-3.892,-3.892,-3.9242,-3.9532,-3.9532,-3.9696,-3.9825,-3.9825,-3.9969,-4.0096,-4.0096,-4.0096,-4.0096,-4.0096,-4.0096,-4.0096,-4.0096,-4.0096,-4.0096,-4.0096,-4.0096,-4.0096,-4.0096,-4.0096,-4.0096,-4.0096,-4.0096,-4.0214,-4.0426,-4.0933,-4.1424,-4.1897,-4.2388,-4.2912,-4.3392,-4.4215,-4.4615,-4.4615,-4.4615,-4.4615,-4.4615,-4.4615,-4.4615,-4.4615,-4.4615,-4.4615,-4.4615,-4.4615,-4.4615,-4.4615,-4.4615,-4.4615,-4.4615,-3.9388,-3.9388,-3.9388,-3.9388,-3.9388,-3.9388,-3.9388,-3.9388,-3.9388,-3.9388,-3.9388,-3.9388,-3.9388,-3.9388,-3.9388,-3.9388,-3.9388,-3.9388,-3.9388,-3.9388,-3.9388,-3.9388,-3.9388,-3.9388,-3.9388,-3.9388,-3.9388,-3.9388,-3.9388,-3.9388,-3.9388,-3.9388,-3.9388,-3.9394,-3.8691,-3.8407,-3.8347,-3.7689,-3.706,-3.6492,-3.6492,-3.6103,-3.5504,-3.5653,-3.5688,-3.572,-3.5926,-3.6005,-3.6037,-3.6148,-3.6196,-3.6242,-3.6414,-3.6492,-3.6492,-3.6492,-3.6492,-3.6492,-3.6492,-3.6492,-3.6631,-3.7238,-3.7854,-3.8278,-3.8278,-3.8294,-3.8306,-3.8306,-3.8767,-3.9206,-3.9206,-3.9696,-4.007,-4.007,-4.007,-4.007,-4.007,-4.007,-4.007,-4.0096,-4.0096,-4.0096,-4.0096,-4.0096,-4.0096,-4.0096,-4.0096,-4.0096,-4.0096,-4.0113,-4.0426,-4.1187,-4.1221,-4.1931,-4.3375,-4.3392,-4.3392,-4.3409,-4.4215,-4.4615,-4.4615,-4.4615,-4.4615,-4.4615,-4.4615,-4.4615,-4.4615,-4.4615,-4.4615,-4.4615,-4.4615,-4.4615,-4.4615,-4.4615,-4.4615,-4.4615,-3.9388,-3.9388,-3.9388,-3.9388,-3.9388,-3.9388,-3.9388,-3.9388,-3.9388,-3.9388,-3.9388,-3.9388,-3.9388,-3.9388,-3.9388,-3.9388,-3.9388,-3.9388,-3.9388,-3.9388,-3.9388,-3.9388,-3.9388,-3.9388,-3.9388,-3.9388,-3.9388,-3.9388,-3.9388,-3.9388,-3.9388,-3.9388,-3.9388,-3.9373,-3.92,-3.911,-3.9065,-3.8392,-3.7988,-3.7778,-3.7315,-3.6761,-3.6226,-3.6244,-3.5977,-3.5587,-3.5619,-3.5701,-3.5799,-3.5847,-3.5958,-3.61,-3.6242,-3.6383,-3.646,-3.6352,-3.6383,-3.646,-3.6352,-3.6383,-3.6554,-3.6723,-3.7238,-3.765,-3.765,-3.7982,-3.8306,-3.8306,-3.8446,-3.8574,-3.8574,-3.8712,-3.8849,-3.8849,-3.8849,-3.8849,-3.8849,-3.8849,-3.8984,-3.9418,-3.947,-3.9627,-4.0045,-4.0096,-4.0096,-4.0096,-4.0096,-4.0096,-4.0096,-4.0578,-4.0967,-4.1204,-4.2219,-4.2728,-4.2682,-4.3166,-4.369,-4.4231,-4.4496,-4.4615,-4.4615,-4.4615,-4.4615,-4.4615,-4.4615,-4.4615,-4.4615,-4.4615,-4.4615,-4.4615,-4.4615,-4.4615,-4.4615,-4.4615,-4.4615,-4.4615,-3.9388,-3.9388,-3.9388,-3.9388,-3.9388,-3.9388,-3.9388,-3.9388,-3.9388,-3.9388,-3.9388,-3.9388,-3.9388,-3.9388,-3.9388,-3.9388,-3.9388,-3.9388,-3.9388,-3.9388,-3.9388,-3.9388,-3.9388,-3.9388,-3.9388,-3.9388,-3.9388,-3.9388,-3.9388,-3.9388,-3.9388,-3.9388,-3.9388,-3.9388,-3.9388,-3.9388,-3.9358,-3.8975,-3.8631,-3.8347,-3.7958,-3.7419,-3.6851,-3.6851,-3.6611,-3.6222,-3.5983,-3.5944,-3.5967,-3.5778,-3.5847,-3.6085,-3.6179,-3.6352,-3.646,-3.6274,-3.6352,-3.646,-3.6242,-3.6352,-3.6492,-3.6492,-3.6769,-3.7028,-3.7028,-3.7312,-3.7592,-3.7592,-3.778,-3.7953,-3.7953,-3.8153,-3.8306,-3.8306,-3.8306,-3.8306,-3.8306,-3.8518,-3.8794,-3.9152,-3.9418,-3.9696,-4.0045,-4.0096,-4.0096,-4.0096,-4.0096,-4.0231,-4.051,-4.0967,-4.1353,-4.164,-4.2529,-4.2832,-4.2436,-4.3115,-4.368,-4.4162,-4.4162,-4.431,-4.4615,-4.4615,-4.4615,-4.4615,-4.4615,-4.4615,-4.4615,-4.4615,-4.4615,-4.4615,-4.4615,-4.4615,-4.4615,-4.4615,-4.4615,-4.4615,-3.9388,-3.9388,-3.9388,-3.9388,-3.9388,-3.9388,-3.9388,-3.9388,-3.9388,-3.9388,-3.9388,-3.9388,-3.9388,-3.9388,-3.9388,-3.9388,-3.9388,-3.9388,-3.9388,-3.9388,-3.9388,-3.9388,-3.9388,-3.9388,-3.9388,-3.9388,-3.9388,-3.9388,-3.9388,-3.9388,-3.9388,-3.9388,-3.9388,-3.9388,-3.9388,-3.9388,-3.9388,-3.9388,-3.905,-3.8482,-3.8482,-3.8093,-3.7494,-3.7494,-3.7464,-3.7345,-3.6776,-3.6567,-3.651,-3.6029,-3.6061,-3.6316,-3.6316,-3.6427,-3.6521,-3.6303,-3.632,-3.6429,-3.6211,-3.6305,-3.646,-3.646,-3.646,-3.6492,-3.6492,-3.6492,-3.6492,-3.6492,-3.6922,-3.7328,-3.7328,-3.7767,-3.8137,-3.8137,-3.8137,-3.8137,-3.8137,-3.8601,-3.9001,-3.9125,-3.9601,-3.9995,-4.007,-4.0096,-4.007,-4.002,-4.0138,-4.0476,-4.117,-4.1339,-4.1705,-4.2373,-4.2444,-4.2495,-4.2504,-4.3106,-4.3453,-4.3512,-4.3571,-4.3943,-4.4615,-4.4615,-4.4615,-4.4615,-4.4615,-4.4615,-4.4615,-4.4615,-4.4615,-4.4615,-4.4615,-4.4615,-4.4615,-4.4615,-4.4615,-4.4615,-3.9388,-3.9388,-3.9388,-3.9388,-3.9388,-3.9388,-3.9388,-3.9388,-3.9388,-3.9388,-3.9388,-3.9388,-3.9388,-3.9388,-3.9388,-3.9388,-3.9388,-3.9388,-3.9388,-3.9388,-3.9388,-3.9388,-3.9388,-3.9388,-3.9388,-3.9388,-3.9388,-3.9388,-3.9388,-3.9388,-3.9388,-3.9388,-3.9388,-3.9388,-3.9388,-3.9388,-3.9388,-3.9388,-3.9334,-3.9185,-3.9185,-3.8781,-3.8182,-3.8182,-3.7853,-3.7389,-3.7255,-3.721,-3.718,-3.7064,-3.7188,-3.737,-3.737,-3.717,-3.6858,-3.6632,-3.6351,-3.6068,-3.5847,-3.6038,-3.6274,-3.6274,-3.6274,-3.6305,-3.646,-3.6492,-3.6492,-3.6492,-3.66,-3.6693,-3.6693,-3.68,-3.6876,-3.6876,-3.6876,-3.6876,-3.6876,-3.6997,-3.7431,-3.8379,-3.8629,-3.9065,-4.002,-4.0096,-3.9901,-3.9418,-4.038,-4.1035,-4.1187,-4.232,-4.2763,-4.2406,-4.2953,-4.3018,-4.2504,-4.2629,-4.2984,-4.3512,-4.4076,-4.444,-4.4615,-4.4615,-4.4615,-4.4615,-4.4615,-4.4615,-4.4615,-4.4615,-4.4615,-4.4615,-4.4615,-4.4615,-4.4615,-4.4615,-4.4615,-4.4615,-3.9388,-3.9388,-3.9388,-3.9388,-3.9388,-3.9388,-3.9388,-3.9388,-3.9388,-3.9388,-3.9388,-3.9388,-3.9388,-3.9388,-3.9388,-3.9388,-3.9388,-3.9388,-3.9388,-3.9388,-3.9388,-3.9388,-3.9388,-3.9388,-3.9388,-3.9388,-3.9388,-3.9388,-3.9388,-3.9388,-3.9388,-3.9388,-3.9388,-3.9388,-3.9388,-3.9388,-3.9388,-3.9388,-3.9388,-3.9388,-3.9388,-3.92,-3.8886,-3.8886,-3.8676,-3.8317,-3.7988,-3.7674,-3.7404,-3.7404,-3.7522,-3.7707,-3.7707,-3.7582,-3.7395,-3.7228,-3.7038,-3.6882,-3.6685,-3.6899,-3.7082,-3.6761,-3.6685,-3.664,-3.6428,-3.632,-3.6289,-3.6352,-3.6352,-3.6383,-3.6492,-3.6492,-3.6492,-3.6492,-3.6492,-3.6492,-3.6492,-3.6754,-3.7148,-3.7796,-3.8124,-3.8546,-3.9172,-3.9242,-3.9392,-3.9713,-4.0364,-4.106,-4.1753,-4.2479,-4.263,-4.1985,-4.2357,-4.2237,-4.1558,-4.2173,-4.2676,-4.3045,-4.3752,-4.4265,-4.4615,-4.4615,-4.4615,-4.4615,-4.4615,-4.4615,-4.4615,-4.4615,-4.4615,-4.4615,-4.4615,-4.4615,-4.4615,-4.4615,-4.4615,-4.4615,-3.9388,-3.9388,-3.9388,-3.9388,-3.9388,-3.9388,-3.9388,-3.9388,-3.9388,-3.9388,-3.9388,-3.9388,-3.9388,-3.9388,-3.9388,-3.9388,-3.9388,-3.9388,-3.9388,-3.9388,-3.9388,-3.9388,-3.9388,-3.9388,-3.9388,-3.9388,-3.9388,-3.9388,-3.9388,-3.9388,-3.9388,-3.9388,-3.9388,-3.9388,-3.9388,-3.9388,-3.9388,-3.9388,-3.9388,-3.9388,-3.9388,-3.9388,-3.9388,-3.9388,-3.9388,-3.9349,-3.8766,-3.8212,-3.7749,-3.7749,-3.7867,-3.7985,-3.7985,-3.7997,-3.796,-3.7839,-3.7816,-3.7793,-3.7673,-3.7895,-3.7976,-3.7427,-3.729,-3.7138,-3.6574,-3.6221,-3.6037,-3.6148,-3.6164,-3.6242,-3.6414,-3.6492,-3.6492,-3.6492,-3.6492,-3.6492,-3.6492,-3.6922,-3.7268,-3.7387,-3.7924,-3.825,-3.8153,-3.8448,-3.9054,-4.0078,-4.047,-4.116,-4.2328,-4.2406,-4.2136,-4.1542,-4.1492,-4.1243,-4.0681,-4.1771,-4.2395,-4.252,-4.3075,-4.3722,-4.4412,-4.4412,-4.4412,-4.4412,-4.4542,-4.4615,-4.4615,-4.4615,-4.4615,-4.4615,-4.4615,-4.4615,-4.4615,-4.4615,-4.4615,-4.4615,-3.9388,-3.9388,-3.9388,-3.9388,-3.9388,-3.9388,-3.9388,-3.9388,-3.9388,-3.9388,-3.9388,-3.9388,-3.9388,-3.9388,-3.9388,-3.9388,-3.9388,-3.9388,-3.9388,-3.9388,-3.9388,-3.9388,-3.9388,-3.9388,-3.9388,-3.9388,-3.9388,-3.9388,-3.9388,-3.9388,-3.9388,-3.9388,-3.9388,-3.9388,-3.9388,-3.9388,-3.9388,-3.9388,-3.9388,-3.9388,-3.9388,-3.9388,-3.9388,-3.9388,-3.9388,-3.9373,-3.932,-3.923,-3.9155,-3.9155,-3.9155,-3.9191,-3.9191,-3.8771,-3.8327,-3.8292,-3.7922,-3.7473,-3.7454,-3.759,-3.776,-3.7669,-3.7639,-3.7624,-3.7533,-3.671,-3.6005,-3.6037,-3.6116,-3.6211,-3.6242,-3.6383,-3.6492,-3.6492,-3.6492,-3.6492,-3.6492,-3.6585,-3.6816,-3.7328,-3.7924,-3.8096,-3.7578,-3.9044,-3.9901,-3.9548,-4.114,-4.2208,-4.2377,-4.2449,-4.2172,-4.1509,-4.1492,-4.1459,-4.1376,-4.1542,-4.1933,-4.252,-4.2583,-4.2984,-4.3647,-4.3647,-4.3647,-4.3676,-4.431,-4.4615,-4.4615,-4.4615,-4.4615,-4.4615,-4.4615,-4.4615,-4.4615,-4.4615,-4.4615,-4.4615,-3.9388,-3.9388,-3.9388,-3.9388,-3.9388,-3.9388,-3.9388,-3.9388,-3.9388,-3.9388,-3.9388,-3.9388,-3.9388,-3.9388,-3.9388,-3.9388,-3.9388,-3.9388,-3.9388,-3.9388,-3.9388,-3.9388,-3.9388,-3.9388,-3.9388,-3.9388,-3.9388,-3.9388,-3.9388,-3.9388,-3.9388,-3.9388,-3.9388,-3.9388,-3.9388,-3.9388,-3.9388,-3.9388,-3.9388,-3.9388,-3.9388,-3.9388,-3.9388,-3.9388,-3.9388,-3.9388,-3.9388,-3.9388,-3.9388,-3.9388,-3.9388,-3.9388,-3.9388,-3.9215,-3.896,-3.896,-3.8766,-3.8527,-3.8527,-3.8667,-3.8732,-3.8355,-3.8265,-3.8159,-3.7797,-3.7206,-3.6712,-3.6464,-3.612,-3.5975,-3.6179,-3.6274,-3.6352,-3.6352,-3.6352,-3.632,-3.6226,-3.6241,-3.6352,-3.6693,-3.7371,-3.7895,-3.8,-3.8799,-3.966,-4.0496,-4.1051,-4.1492,-4.1879,-4.1917,-4.1641,-4.0956,-4.0922,-4.0922,-4.0922,-4.1294,-4.1641,-4.1933,-4.1933,-4.23,-4.2953,-4.3317,-4.3512,-4.3542,-4.4281,-4.4384,-4.4001,-4.444,-4.4367,-4.4047,-4.444,-4.4338,-4.3972,-4.3972,-4.3972,-4.3972]},{"header":{"parameterUnit":"m.s-1","parameterCategory":1,"la1":30.6,"la2":28.766,"lo1":-90.7593,"lo2":-88.6598,"dy":0.0162,"dx":0.0183,"nx":116,"ny":114,"refTime":"2023-03-06T06:00:00:Z","depth":0,"parameterNumber":3,"parameterNumberName":"V-component_of_WINDS"},"data":[0.0,0.0,0.0,0.0,0.0,0.0,0.0,0.0,0.0,0.0,0.0,0.0,0.0,0.0,0.0,0.0,0.0,0.0,0.0,0.0,0.0,0.0,0.0,0.0,0.0,0.0,0.0,0.0,0.0,0.0,0.0,0.0,0.0,0.0,0.0,0.0,0.0,0.0,0.0,0.0,0.0,0.0,0.0,0.0,0.0,0.0,0.0,0.0,0.0,0.0,0.0,0.0,0.0,0.0,0.0,0.0,0.0,0.0,0.0,0.0,0.0,0.0,0.0,0.0,0.0,0.0,0.0,0.0,0.0,0.0,0.0,0.0,0.0,0.0,0.0,0.0,0.0,0.0,0.0,0.0,0.0,0.0,0.0,0.0,0.0,0.0,0.0,0.0,0.0,0.0,0.0,0.0,0.0,0.0,0.0,0.0,0.0,0.0,0.0,0.0,0.0,0.0,0.0,0.0,0.0,0.0,0.0,0.0,0.0,0.0,0.0,0.0,0.0,0.0,0.0,0.0,0.0,0.0,0.0,0.0,0.0,0.0,0.0,0.0,0.0,0.0,0.0,0.0,0.0,0.0,0.0,0.0,0.0,0.0,0.0,0.0,0.0,0.0,0.0,0.0,0.0,0.0,0.0,0.0,0.0,0.0,0.0,0.0,0.0,0.0,0.0,0.0,0.0,0.0,0.0,0.0,0.0,0.0,0.0,0.0,0.0,0.0,0.0,0.0,0.0,0.0,0.0,0.0,0.0,0.0,0.0,0.0,0.0,0.0,0.0,0.0,0.0,0.0,0.0,0.0,0.0,0.0,0.0,0.0,0.0,0.0,0.0,0.0,0.0,0.0,0.0,0.0,0.0,0.0,0.0,0.0,0.0,0.0,0.0,0.0,0.0,0.0,0.0,0.0,0.0,0.0,0.0,0.0,0.0,0.0,0.0,0.0,0.0,0.0,0.0,0.0,0.0,0.0,0.0,0.0,0.0,0.0,0.0,0.0,0.0,0.0,0.0,0.0,0.0,0.0,0.0,0.0,0.0,0.0,0.0,0.0,0.0,0.0,0.0,0.0,0.0,0.0,0.0,0.0,0.0,0.0,0.0,0.0,0.0,0.0,0.0,0.0,0.0,0.0,0.0,0.0,0.0,0.0,0.0,0.0,0.0,0.0,0.0,0.0,0.0,0.0,0.0,0.0,0.0,0.0,0.0,0.0,0.0,0.0,0.0,0.0,0.0,0.0,0.0,0.0,0.0,0.0,0.0,0.0,0.0,0.0,0.0,0.0,0.0,0.0,0.0,0.0,0.0,0.0,0.0,0.0,0.0,0.0,0.0,0.0,0.0,0.0,0.0,0.0,0.0,0.0,0.0,0.0,0.0,0.0,0.0,0.0,0.0,0.0,0.0,0.0,0.0,0.0,0.0,0.0,0.0,0.0,0.0,0.0,0.0,0.0,0.0,0.0,0.0,0.0,0.0,0.0,0.0,0.0,0.0,0.0,0.0,0.0,0.0,0.0,0.0,0.0,0.0,0.0,0.0,0.0,0.0,0.0,0.0,0.0,0.0,0.0,0.0,0.0,0.0,0.0,0.0,0.0,0.0,0.0,0.0,0.0,0.0,0.0,0.0,0.0,0.0,0.0,0.0,0.0,0.0,0.0,0.0,0.0,0.0,0.0,0.0,0.0,0.0,0.0,0.0,0.0,0.0,0.0,0.0,0.0,0.0,0.0,0.0,0.0,0.0,0.0,0.0,0.0,0.0,0.0,0.0,0.0,0.0,0.0,0.0,0.0,0.0,0.0,0.0,0.0,0.0,0.0,0.0,0.0,0.0,0.0,0.0,0.0,0.0,0.0,0.0,0.0,0.0,0.0,0.0,0.0,0.0,0.0,0.0,0.0,0.0,0.0,0.0,0.0,0.0,0.0,0.0,0.0,0.0,0.0,0.0,0.0,0.0,0.0,0.0,0.0,0.0,0.0,0.0,0.0,0.0,0.0,0.0,0.0,0.0,0.0,0.0,0.0,0.0,0.0,0.0,0.0,0.0,0.0,0.0,0.0,0.0,0.0,0.0,0.0,0.0,0.0,0.0,0.0,0.0,0.0,0.0,0.0,0.0,0.0,0.0,0.0,0.0,0.0,0.0,0.0,0.0,0.0,0.0,0.0,0.0,0.0,0.0,0.0,0.0,0.0,0.0,0.0,0.0,0.0,0.0,0.0,0.0,0.0,0.0,0.0,0.0,0.0,0.0,0.0,0.0,0.0,0.0,0.0,0.0,0.0,0.0,0.0,0.0,0.0,0.0,0.0,0.0,0.0,0.0,0.0,0.0,0.0,0.0,0.0,0.0,0.0,0.0,0.0,0.0,0.0,0.0,0.0,0.0,0.0,0.0,0.0,0.0,0.0,0.0,0.0,0.0,0.0,0.0,0.0,0.0,0.0,0.0,0.0,0.0,0.0,0.0,0.0,0.0,0.0,0.0,0.0,0.0,0.0,0.0,0.0,0.0,0.0,0.0,0.0,0.0,0.0,0.0,0.0,0.0,0.0,0.0,0.0,0.0,0.0,0.0,0.0,0.0,0.0,0.0,0.0,0.0,0.0,0.0,0.0,0.0,0.0,0.0,0.0,0.0,0.0,0.0,0.0,0.0,0.0,0.0,0.0,0.0,0.0,0.0,0.0,0.0,0.0,0.0,0.0,0.0,0.0,0.0,0.0,0.0,0.0,0.0,0.0,0.0,0.0,0.0,0.0,0.0,0.0,0.0,0.0,0.0,0.0,0.0,0.0,0.0,0.0,0.0,0.0,0.0,0.0,0.0,0.0,0.0,0.0,0.0,0.0,0.0,0.0,0.0,0.0,0.0,0.0,0.0,0.0,0.0,0.0,0.0,0.0,0.0,0.0,0.0,0.0,0.0,0.0,0.0,0.0,0.0,0.0,0.0,0.0,0.0,0.0,0.0,0.0,0.0,0.0,0.0,0.0,0.0,0.0,0.0,0.0,0.0,0.0,0.0,0.0,0.0,0.0,0.0,0.0,0.0,0.0,0.0,0.0,0.0,0.0,0.0,0.0,0.0,0.0,0.0,0.0,0.0,0.0,0.0,0.0,0.0,0.0,0.0,0.0,0.0,0.0,0.0,0.0,0.0,0.0,0.0,0.0,0.0,0.0,0.0,0.0,0.0,0.0,0.0,0.0,0.0,0.0,0.0,0.0,0.0,0.0,0.0,0.0,0.0,0.0,0.0,0.0,0.0,0.0,0.0,0.0,0.0,0.0,0.0,0.0,0.0,0.0,0.0,0.0,0.0,0.0,0.0,0.0,0.0,0.0,0.0,0.0,0.0,0.0,0.0,0.0,0.0,0.0,0.0,0.0,0.0,0.0,0.0,0.0,0.0,0.0,0.0,0.0,0.0,0.0,0.0,0.0,0.0,0.0,0.0,0.0,0.0,0.0,0.0,0.0,0.0,0.0,0.0,0.0,0.0,0.0,0.0,0.0,0.0,0.0,0.0,0.0,0.0,0.0,0.0,0.0,0.0,0.0,0.0,0.0,0.0,0.0,0.0,0.0,0.0,0.0,0.0,0.0,0.0,0.0,0.0,0.0,0.0,0.0,0.0,0.0,0.0,0.0,0.0,0.0,0.0,0.0,0.0,0.0,0.0,0.0,0.0,0.0,0.0,0.0,0.0,0.0,0.0,0.0,0.0,0.0,0.0,0.0,0.0,0.0,0.0,0.0,0.0,0.0,0.0,0.0,0.0,0.0,0.0,0.0,0.0,0.0,0.0,0.0,0.0,0.0,0.0,0.0,0.0,0.0,0.0,0.0,0.0,0.0,0.0,0.0,0.0,0.0,0.0,0.0,0.0,0.0,0.0,0.0,0.0,0.0,0.0,0.0,0.0,0.0,0.0,0.0,0.0,0.0,0.0,0.0,0.0,0.0,0.0,0.0,0.0,0.0,0.0,0.0,0.0,0.0,0.0,0.0,0.0,0.0,0.0,0.0,0.0,0.0,0.0,0.0,0.0,0.0,0.0,0.0,0.0,0.0,0.0,0.0,0.0,0.0,0.0,0.0,0.0,0.0,0.0,0.0,0.0,0.0,0.0,0.0,0.0,0.0,0.0,0.0,0.0,0.0,0.0,0.0,0.0,0.0,0.0,0.0,0.0,0.0,0.0,0.0,0.0,0.0,0.0,0.0,0.0,0.0,0.0,0.0,0.0,0.0,0.0,0.0,0.0,0.0,0.0,0.0,0.0,0.0,0.0,0.0,0.0,0.0,0.0,0.0,0.0,0.0,0.0,0.0,0.0,0.0,0.0,0.0,0.0,0.0,0.0,0.0,0.0,0.0,0.0,0.0,0.0,0.0,0.0,0.0,0.0,0.0,0.0,0.0,0.0,0.0,0.0,0.0,0.0,0.0,0.0,0.0,0.0,0.0,0.0,0.0,0.0,0.0,0.0,0.0,0.0,0.0,0.0,0.0,0.0,0.0,0.0,0.0,0.0,0.0,0.0,0.0,0.0,0.0,0.0,0.0,0.0,0.0,0.0,0.0,0.0,0.0,0.0,0.0,0.0,0.0,0.0,0.0,0.0,0.0,0.0,0.0,0.0,0.0,0.0,0.0,0.0,0.0,0.0,0.0,0.0,0.0,0.0,0.0,0.0,0.0,0.0,0.0,0.0,0.0,0.0,0.0,0.0,0.0,0.0,0.0,0.0,0.0,0.0,0.0,0.0,0.0,0.0,0.0,0.0,0.0,0.0,0.0,0.0,0.0,0.0,0.0,0.0,0.0,0.0,0.0,0.0,0.0,0.0,0.0,0.0,0.0,0.0,0.0,0.0,0.0,0.0,0.0,0.0,0.0,0.0,0.0,0.0,0.0,0.0,0.0,0.0,0.0,0.0,0.0,0.0,0.0,0.0,0.0,0.0,0.0,0.0,0.0,0.0,0.0,0.0,0.0,0.0,0.0,0.0,0.0,0.0,0.0,0.0,0.0,0.0,0.0,0.0,0.0,0.0,0.0,0.0,0.0,0.0,0.0,0.0,0.0,0.0,0.0,0.0,0.0,0.0,0.0,0.0,0.0,0.0,0.0,0.0,0.0,0.0,0.0,0.0,0.0,0.0,0.0,0.0,0.0,0.0,0.0,0.0,0.0,0.0,0.0,0.0,0.0,0.0,0.0,0.0,0.0,0.0,0.0,0.0,0.0,0.0,0.0,0.0,0.0,0.0,0.0,0.0,0.0,0.0,0.0,0.0,0.0,0.0,0.0,0.0,0.0,0.0,0.0,0.0,0.0,0.0,0.0,0.0,0.0,0.0,0.0,0.0,0.0,0.0,0.0,0.0,0.0,0.0,0.0,0.0,0.0,0.0,0.0,0.0,0.0,0.0,0.0,0.0,0.0,0.0,0.0,0.0,0.0,0.0,0.0,0.0,0.0,0.0,0.0,0.0,0.0,0.0,0.0,0.0,0.0,0.0,0.0,0.0,0.0,0.0,0.0,0.0,0.0,0.0,0.0,0.0,0.0,0.0,0.0,0.0,0.0,0.0,0.0,0.0,0.0,0.0,0.0,0.0,0.0,0.0,0.0,0.0,0.0,0.0,0.0,0.0,0.0,0.0,0.0,0.0,0.0,0.0,0.0,0.0,0.0,0.0,0.0,0.0,0.0,0.0,0.0,0.0,0.0,0.0,0.0,0.0,0.0,0.0,0.0,0.0,0.0,0.0,0.0,0.0,0.0,0.0,0.0,0.0,0.0,0.0,0.0,0.0,0.0,0.0,0.0,0.0,0.0,0.0,0.0,0.0,0.0,0.0,0.0,0.0,0.0,0.0,0.0,0.0,0.0,0.0,0.0,0.0,0.0,0.0,0.0,0.0,0.0,0.0,0.0,0.0,0.0,0.0,0.0,0.0,0.0,0.0,0.0,0.0,0.0,0.0,0.0,0.0,0.0,0.0,0.0,0.0,0.0,0.0,0.0,0.0,0.0,0.0,0.0,0.0,0.0,0.0,0.0,0.0,0.0,0.0,0.0,0.0,0.0,0.0,0.0,0.0,0.0,0.0,0.0,0.0,0.0,0.0,0.0,0.0,0.0,0.0,0.0,0.0,0.0,0.0,0.0,0.0,0.0,1.2886,1.2049,0.0,0.0,0.0,0.0,0.0,0.0,0.0,0.0,0.0,0.0,0.0,0.0,0.0,0.0,0.0,0.0,0.0,0.0,0.0,0.0,0.0,0.0,0.0,0.0,0.0,0.0,0.0,0.0,0.0,0.0,0.0,0.0,0.0,0.0,0.0,0.0,0.0,0.0,0.0,0.0,0.0,0.0,0.0,0.0,0.0,0.0,0.0,0.0,0.0,0.0,0.0,0.0,0.0,0.0,0.0,0.0,0.0,0.0,0.0,0.0,0.0,0.0,0.0,0.0,0.0,0.0,0.0,0.0,0.0,0.0,0.0,0.0,0.0,0.0,0.0,0.0,0.0,0.0,0.0,0.0,0.0,0.0,0.0,0.0,0.0,0.0,0.0,0.0,0.0,0.0,0.0,0.0,0.0,0.0,0.0,0.0,0.0,0.0,0.0,0.0,0.0,0.0,0.0,0.0,0.0,0.0,0.0,0.0,0.0,0.0,0.0,0.0,0.0,0.0,1.3699,1.3426,0.0,0.0,0.0,0.0,0.0,0.0,0.0,0.0,0.0,0.0,0.0,0.0,0.0,0.0,0.0,0.0,0.0,0.0,0.0,0.0,0.0,0.0,0.0,0.0,0.0,0.0,0.0,0.0,0.0,0.0,0.0,0.0,0.0,0.0,0.0,0.0,0.0,0.0,0.0,0.0,0.0,0.0,0.0,0.0,0.0,0.0,0.0,0.0,0.0,0.0,0.0,0.0,0.0,0.0,0.0,0.0,0.0,0.0,0.0,0.0,0.0,0.0,0.0,0.0,0.0,0.0,0.0,0.0,0.0,0.0,0.0,0.0,0.0,0.0,0.0,0.0,0.0,0.0,0.0,0.0,0.0,0.0,0.0,0.0,0.0,0.0,0.0,0.0,0.0,0.0,0.0,0.0,0.0,0.0,0.0,0.0,0.0,0.0,0.0,0.0,0.0,0.0,0.0,0.0,0.0,0.0,0.0,0.0,1.4055,1.3942,1.3715,1.3715,1.4236,1.5179,1.458,1.4857,1.5686,1.4449,0.0,0.0,0.0,0.0,0.0,0.0,0.0,0.0,0.0,0.0,0.0,0.0,0.0,0.0,0.0,0.0,0.0,0.0,0.0,0.0,0.0,0.0,0.0,0.0,0.0,0.0,0.0,0.0,0.0,0.0,0.0,0.0,0.0,0.0,0.0,0.0,0.0,0.0,1.9883,1.9883,1.9683,1.9269,0.0,0.0,0.0,0.0,0.0,0.0,0.0,0.0,0.0,0.0,0.0,0.0,0.0,0.0,0.0,0.0,0.0,0.0,0.0,0.0,0.0,0.0,0.0,0.0,0.0,0.0,0.0,0.0,0.0,0.0,0.0,0.0,0.0,0.0,0.0,0.0,0.0,0.0,0.0,0.0,0.0,0.0,0.0,0.0,1.7415,1.7181,0.0,0.0,0.0,0.0,0.0,0.0,0.0,0.0,0.0,0.0,0.0,0.0,0.0,1.421,1.5361,1.5361,1.5873,1.6962,1.6962,1.69,1.69,1.69,1.6844,1.6794,1.6692,0.0,1.6458,1.5194,0.0,0.0,0.0,0.0,0.0,0.0,0.0,0.0,0.0,0.0,0.0,0.0,0.0,0.0,0.0,0.0,0.0,0.0,0.0,0.0,0.0,0.0,0.0,0.0,0.0,0.0,0.0,0.0,0.0,0.0,0.0,0.0,0.0,0.0,0.0,0.0,2.0782,2.0737,2.0187,2.0187,2.0187,2.0158,1.8824,1.7581,1.6387,1.5089,0.0,0.0,0.0,0.0,0.0,0.0,0.0,0.0,0.0,0.0,0.0,0.0,0.0,0.0,0.0,0.0,0.0,0.0,0.0,0.0,0.0,0.0,0.0,0.0,0.0,0.0,0.0,0.0,0.0,0.0,0.0,0.0,0.0,0.0,0.0,0.0,0.0,0.0,0.0,1.7582,1.7576,1.7602,1.7616,1.7615,0.0,0.0,0.0,0.0,0.0,0.0,0.0,0.0,0.0,1.5995,1.5797,1.5922,1.6476,1.6632,1.6936,1.7334,1.7334,1.722,1.7051,1.7051,1.6997,1.6882,1.6731,1.6568,1.6435,1.6066,1.5896,1.5834,0.0,0.0,0.0,0.0,1.6245,1.67,0.0,0.0,0.0,0.0,0.0,0.0,0.0,0.0,0.0,0.0,0.0,0.0,0.0,0.0,0.0,1.514,0.0,0.0,0.0,0.0,0.0,0.0,0.0,0.0,0.0,0.0,0.0,0.0,2.1836,2.1792,2.0986,2.1138,2.1024,2.0766,2.0648,1.9923,1.8742,1.7048,1.621,0.0,0.0,0.0,0.0,0.0,0.0,0.0,0.0,0.0,0.0,0.0,0.0,0.0,0.0,0.0,0.0,0.0,0.0,0.0,0.0,0.0,0.0,0.0,0.0,0.0,0.0,0.0,0.0,0.0,0.0,0.0,0.0,0.0,0.0,0.0,0.0,0.0,0.0,1.7422,1.7521,1.7521,1.7535,1.7582,0.0,0.0,0.0,0.0,0.0,0.0,1.6426,1.6485,1.6531,1.6531,1.7005,1.7313,1.7313,1.7475,1.7483,1.7279,1.7279,1.7166,1.6942,1.6942,1.6889,1.6789,1.6514,1.6415,1.6402,1.649,1.6495,1.6495,1.6495,1.6495,1.6495,1.6495,1.6495,1.6495,0.0,0.0,0.0,0.0,0.0,0.0,0.0,0.0,0.0,0.0,0.0,0.0,0.0,0.0,1.5188,1.6393,1.7598,1.8427,0.0,0.0,0.0,0.0,0.0,0.0,0.0,0.0,0.0,2.3426,2.3467,2.3375,2.3153,2.3577,2.3313,2.2345,2.1838,2.1051,2.0096,2.0005,1.9413,1.8557,0.0,0.0,0.0,0.0,0.0,0.0,0.0,0.0,0.0,0.0,0.0,0.0,0.0,0.0,0.0,0.0,0.0,0.0,0.0,0.0,0.0,0.0,0.0,0.0,0.0,0.0,0.0,0.0,0.0,0.0,0.0,0.0,0.0,0.0,0.0,0.0,0.0,0.0,0.0,1.7226,1.7467,0.0,0.0,0.0,0.0,1.7199,1.6887,1.667,1.6657,1.6974,1.7128,1.7128,1.7408,1.7562,1.7562,1.7575,1.7582,1.7582,1.7582,1.7582,1.7529,1.7529,1.743,1.716,1.6834,1.6658,1.663,1.6129,1.5934,1.5934,1.5934,1.5934,1.5934,1.5934,1.5934,1.5934,0.0,0.0,0.0,0.0,0.0,0.0,0.0,0.0,0.0,0.0,0.0,0.0,0.0,1.5003,1.6244,1.7645,1.8156,1.9018,2.0565,0.0,0.0,0.0,0.0,0.0,0.0,0.0,2.4101,2.4366,2.4366,2.4316,2.4277,2.4422,2.3987,2.2992,2.2803,2.2214,2.1271,2.0526,2.0014,1.965,1.8926,1.8226,0.0,0.0,0.0,0.0,0.0,0.0,0.0,0.0,0.0,0.0,0.0,0.0,0.0,0.0,0.0,0.0,0.0,0.0,0.0,0.0,0.0,0.0,0.0,0.0,0.0,0.0,0.0,0.0,0.0,0.0,0.0,0.0,0.0,0.0,0.0,0.0,0.0,1.7411,1.7676,0.0,1.7635,1.7373,1.7125,1.6881,1.6593,1.6426,1.6426,1.6576,1.6723,1.6854,1.7199,1.7353,1.7353,1.7488,1.7582,1.7582,1.7582,1.7582,1.7575,1.744,1.7308,1.7191,1.6644,1.6425,1.6414,1.6054,1.6002,1.6164,1.6164,1.6051,1.5891,1.5891,1.5891,1.5891,0.0,0.0,0.0,0.0,0.0,0.0,0.0,0.0,0.0,0.0,0.0,1.321,1.4561,1.5954,1.7232,1.8295,1.9063,2.0099,2.1414,0.0,0.0,0.0,0.0,0.0,0.0,2.4527,2.4679,2.4956,2.4956,2.4918,2.488,2.5013,2.4542,2.3566,2.3368,2.294,2.2287,2.1225,2.0651,2.0463,1.9963,1.9559,1.9193,0.0,0.0,0.0,0.0,0.0,0.0,0.0,0.0,0.0,0.0,0.0,0.0,0.0,0.0,0.0,0.0,0.0,0.0,0.0,0.0,0.0,0.0,0.0,0.0,0.0,0.0,0.0,0.0,0.0,0.0,0.0,0.0,0.0,0.0,1.8344,1.8441,1.873,1.8337,1.8062,1.8251,1.7626,1.7119,1.6867,1.6587,1.642,1.642,1.6563,1.6703,1.6847,1.7192,1.7347,1.7347,1.7482,1.7582,1.7582,1.7534,1.7494,1.7481,1.7186,1.7052,1.6987,1.6493,1.6327,1.6406,1.6158,1.6145,1.6325,1.6308,1.6128,1.5929,1.6021,1.5998,1.5891,0.0,0.0,0.0,0.0,0.0,0.0,0.0,0.0,0.0,0.0,1.195,1.321,1.4609,1.672,1.8133,1.8427,2.0413,2.1511,2.1179,2.1829,0.0,0.0,0.0,0.0,2.3891,2.4072,2.4564,2.5347,2.5347,2.5229,2.5052,2.5443,2.5103,2.4189,2.3595,2.332,2.321,2.2278,2.1587,2.1151,2.1511,2.1087,2.0232,0.0,0.0,0.0,0.0,0.0,0.0,0.0,0.0,0.0,0.0,0.0,0.0,0.0,0.0,0.0,0.0,0.0,0.0,0.0,0.0,0.0,0.0,0.0,0.0,0.0,0.0,0.0,0.0,0.0,0.0,0.0,0.0,0.0,2.0115,1.9542,1.9605,2.1057,1.9382,1.8527,1.9531,1.8231,1.7302,1.7302,1.6975,1.6757,1.677,1.7045,1.7206,1.7213,1.7435,1.7582,1.7582,1.7582,1.7582,1.7582,1.734,1.7199,1.7192,1.6834,1.6693,1.6673,1.6386,1.642,1.6653,1.6373,1.6285,1.6275,1.6311,1.6174,1.5958,1.6225,1.6105,1.5891,0.0,0.0,0.0,0.0,0.0,0.0,0.0,0.0,0.0,0.0,1.2339,1.3547,1.5812,1.721,1.8449,1.9604,2.0669,2.1575,2.2287,0.0,0.0,0.0,0.0,0.0,2.5756,2.5804,2.5943,2.6176,2.6176,2.6129,2.6094,2.6208,2.5646,2.4557,2.4391,2.3517,2.2226,2.2235,2.1819,2.1189,2.1247,2.1262,2.1195,0.0,0.0,0.0,0.0,0.0,0.0,0.0,0.0,0.0,0.0,0.0,0.0,0.0,0.0,0.0,0.0,0.0,0.0,0.0,0.0,0.0,0.0,0.0,0.0,0.0,0.0,0.0,0.0,0.0,0.0,0.0,2.2077,2.2262,2.0873,2.0696,2.092,2.1426,2.1202,2.092,2.0818,2.0198,1.9753,1.9502,1.8502,1.8038,1.821,1.7555,1.73,1.7455,1.7542,1.7582,1.7582,1.7582,1.7582,1.7582,1.734,1.7199,1.7186,1.667,1.6393,1.638,1.6079,1.5999,1.6066,1.5985,1.5951,1.6,1.6411,1.6433,1.6199,1.6278,1.6105,1.5891,0.0,0.0,0.0,0.0,0.0,0.0,0.0,0.0,0.0,0.0,1.2436,1.3547,1.6163,1.763,1.891,1.9968,2.0977,2.1826,2.2382,0.0,0.0,0.0,0.0,2.6025,2.6499,2.6499,2.6658,2.6905,2.6658,2.6658,2.6905,2.6624,2.606,2.5312,2.4898,2.4047,2.2846,2.2352,2.1982,2.166,2.1294,2.1509,2.1983,2.1394,2.1636,2.2192,2.1641,2.1784,2.228,2.228,0.0,0.0,0.0,0.0,0.0,0.0,0.0,0.0,0.0,0.0,0.0,0.0,0.0,0.0,0.0,0.0,0.0,0.0,0.0,0.0,0.0,0.0,0.0,0.0,2.34,2.3736,2.2767,2.242,2.2522,2.3215,2.2605,2.2131,2.2282,2.1628,2.1062,2.0777,1.9633,1.8904,1.8994,1.7943,1.746,1.7582,1.7582,1.7582,1.7582,1.7582,1.7582,1.7582,1.7213,1.7018,1.6991,1.6353,1.6086,1.6079,1.5905,1.5784,1.5832,1.6251,1.644,0.0,0.0,0.0,0.0,0.0,1.6105,1.5891,0.0,0.0,0.0,0.0,0.0,0.0,0.0,0.0,0.0,0.0,0.0,1.3258,1.5879,1.7816,1.9139,1.9795,2.1125,2.1984,0.0,0.0,0.0,2.504,2.599,2.6499,2.6589,2.6589,2.6939,2.7604,2.704,2.704,2.7604,2.6905,2.6452,2.6236,2.5229,2.4636,2.4264,2.2723,2.2157,2.227,2.1541,2.1752,2.2451,2.249,2.2701,2.3033,2.3081,2.3091,2.3091,2.3091,0.0,0.0,0.0,0.0,0.0,0.0,0.0,0.0,0.0,0.0,0.0,0.0,0.0,0.0,0.0,0.0,0.0,0.0,0.0,0.0,0.0,0.0,0.0,0.0,2.4209,2.4639,2.5078,2.4364,2.4255,2.5538,2.3809,2.2894,2.3791,2.2826,2.1963,2.1735,2.0605,1.9886,1.9635,1.8454,0.0,0.0,0.0,1.7582,1.7582,1.7582,1.7582,1.7575,1.6987,1.6707,1.6687,1.6099,1.5784,1.5784,1.5784,1.5872,1.6062,1.6904,1.7416,1.7534,1.7036,1.6703,1.638,1.6407,1.6217,1.5945,0.0,0.0,0.0,0.0,0.0,0.0,0.0,0.0,0.0,1.1492,1.1901,1.3017,1.5588,1.6929,1.8172,1.9484,2.0097,2.1163,0.0,0.0,2.4156,2.5641,2.6062,2.6499,2.704,2.7229,2.7637,2.8298,2.8182,2.8182,2.8298,2.7451,2.696,2.6744,2.5826,2.4933,2.4156,2.3781,2.299,2.1901,2.1747,2.1799,2.2041,2.2383,2.2568,2.2676,2.2974,2.3091,2.3091,2.3091,2.3091,2.3091,2.3091,0.0,0.0,0.0,0.0,0.0,0.0,0.0,0.0,0.0,0.0,0.0,0.0,0.0,0.0,0.0,0.0,0.0,0.0,0.0,0.0,2.4228,2.4658,2.5098,2.5547,2.5412,2.5392,2.5674,2.5284,2.4981,2.4971,2.4775,2.447,2.4223,2.2994,2.2223,2.2181,2.0092,1.8871,1.8871,1.8042,1.7582,1.7582,1.7582,1.7582,1.7575,0.0,0.0,1.6687,1.6099,1.5784,1.5784,1.5784,1.6251,1.6998,1.7232,1.8093,1.9196,1.8282,1.7553,1.7029,1.7028,1.6696,1.6217,0.0,0.0,0.0,0.0,0.0,0.0,0.0,0.0,0.0,0.0,1.1365,1.2538,1.443,1.5993,1.743,1.8744,1.9822,0.0,0.0,2.2962,2.3891,2.5087,2.5723,2.6223,2.653,2.6748,2.7351,2.833,2.8117,2.8182,2.8492,2.7604,2.6926,2.638,2.5838,2.5276,2.4671,2.4264,2.3452,2.2397,2.2397,2.2189,2.1849,2.1863,2.2139,2.2539,2.2711,2.2916,2.313,2.3344,2.3467,2.3496,2.3711,2.3734,2.3695,0.0,0.0,0.0,0.0,0.0,0.0,0.0,0.0,0.0,0.0,0.0,0.0,0.0,0.0,2.3227,0.0,0.0,2.4316,2.4923,2.5439,2.5732,2.5693,2.5879,2.5977,2.5713,2.5693,2.5645,2.5489,2.5489,2.5391,2.5137,2.3958,2.3185,2.2885,2.1218,2.021,2.0055,1.9546,1.8975,1.8408,1.8408,1.8146,1.7575,1.7141,1.6847,1.6687,1.678,1.6443,1.5879,1.685,1.7318,1.7387,1.8621,1.9644,2.0523,2.0166,1.9209,1.8003,1.8003,1.7371,1.6477,0.0,0.0,0.0,0.0,0.0,0.0,0.0,0.0,0.0,0.0,0.0,1.1755,1.327,1.4831,1.6354,0.0,0.0,0.0,0.0,2.2339,2.322,2.4011,2.5052,2.5676,2.5804,2.6141,2.6939,2.8149,2.7769,2.7855,2.8363,2.7504,2.6722,2.6025,2.5676,2.5453,2.5276,2.46,2.3829,2.3032,2.318,2.266,2.1769,2.142,2.1897,2.2695,2.2536,2.2869,2.3368,2.3687,2.3848,2.3975,2.4307,2.4414,2.4336,2.3916,2.3834,0.0,0.0,0.0,0.0,0.0,0.0,0.0,0.0,0.0,2.3218,2.3218,2.3354,2.3721,2.4414,2.4609,2.4884,2.5684,2.6084,2.6172,2.5908,2.6094,2.6133,2.5732,2.5693,2.5693,2.5693,2.5693,2.5586,2.5382,2.451,2.38,2.3393,2.224,2.1532,2.1285,2.1038,2.0467,1.9539,1.9539,1.9072,1.8251,1.7946,1.7675,1.7419,1.788,1.7519,1.6611,1.8357,1.8611,1.804,2.0251,2.1344,2.167,2.2042,2.112,1.9495,1.9027,1.7989,1.6789,0.0,0.0,0.0,0.0,0.0,0.0,0.0,0.0,0.0,0.0,0.0,0.0,0.0,0.0,0.0,0.0,0.0,0.0,2.1049,2.1489,2.201,2.2776,2.3927,2.4862,2.5519,2.6399,2.7224,2.8019,2.7953,2.7986,2.8051,2.7111,2.6637,2.6501,2.5674,2.5312,2.53,2.5194,2.4312,2.3069,2.3708,2.3084,2.1804,2.1752,2.2468,2.3388,2.2729,2.3235,2.413,2.39,2.4043,2.4355,2.4404,2.4414,2.4336,2.3916,0.0,2.3915,2.3306,2.3276,2.3493,2.3667,2.358,2.346,0.0,0.0,2.3721,2.3721,2.4326,2.493,2.498,2.5322,2.5693,2.624,2.6035,2.5928,2.6269,2.6025,2.5742,2.5693,2.5693,2.5693,2.5693,2.5693,2.5693,2.5635,2.5333,2.5079,2.503,2.3552,2.2693,2.2685,2.154,2.0834,2.0731,2.0731,2.0672,2.0518,2.0225,2.0037,1.9975,1.9462,1.9138,1.9036,1.9799,2.0068,2.0102,2.1551,2.238,2.2751,2.3142,2.2835,2.1861,1.9893,1.8304,1.7279,0.0,0.0,0.0,0.0,0.0,0.0,0.0,0.0,0.0,0.0,0.0,0.0,0.0,0.0,0.0,0.0,0.0,0.0,1.9225,2.0061,2.0874,2.1697,2.2776,2.3722,2.4506,2.5134,2.6008,2.7178,2.7311,2.7358,2.7358,2.6841,2.6399,2.5988,2.4909,2.4409,2.4373,2.3818,2.2925,2.1962,2.2739,2.2489,2.1614,2.1614,2.2298,2.3161,2.2642,2.3402,0.0,0.0,2.4821,2.5229,2.5161,2.5138,2.5098,2.4658,2.4624,0.0,2.3701,2.3614,2.3693,2.3792,2.3747,2.3786,2.4333,2.4496,2.4609,2.4873,2.5205,2.5537,2.5791,2.5986,2.6172,0.0,2.624,2.6094,2.6016,2.5801,2.5693,2.5693,2.5693,2.5693,2.5693,2.5693,2.5693,2.5693,2.5586,2.544,2.5294,2.4667,2.4214,2.4066,2.3361,2.2702,2.2089,2.1903,2.1497,2.0885,2.0734,2.0602,2.0395,2.0728,2.094,2.1076,2.0548,2.0619,2.1159,2.1971,2.2382,2.2602,2.3242,2.2948,2.206,2.1365,1.9952,1.8408,0.0,0.0,0.0,0.0,0.0,0.0,0.0,0.0,0.0,0.0,0.0,0.0,0.0,0.0,0.0,0.0,0.0,0.0,0.0,1.8386,1.9328,2.0197,2.1247,2.2194,2.3036,2.3551,2.4338,2.5402,2.5554,2.5636,2.5636,2.5484,2.5157,2.4636,2.3781,2.3368,2.3331,2.2627,2.1849,2.1173,2.2,2.1924,2.1385,2.1385,2.201,2.2863,2.2527,2.352,0.0,0.0,2.5456,2.5853,2.6185,2.597,2.5536,2.5535,2.5127,2.4597,2.3988,2.3835,2.3953,2.4116,2.4189,2.4428,2.522,2.5437,2.5527,2.585,2.6054,2.6328,2.6523,2.6562,2.6523,2.6406,2.6289,2.6103,2.5732,2.5693,2.5693,2.5693,2.5693,2.5693,2.5693,2.5693,2.5693,2.5693,2.5693,2.5635,2.544,2.5333,2.5235,2.503,2.4686,2.4125,2.3352,2.307,2.2577,2.1802,2.1802,2.1661,2.1445,2.1933,2.2212,2.2254,2.1157,2.1087,2.1714,2.1998,2.2181,2.2336,2.2931,2.2847,2.238,2.2667,2.1458,1.9694,0.0,0.0,0.0,0.0,0.0,0.0,0.0,0.0,0.0,0.0,0.0,0.0,0.0,0.0,0.0,0.0,0.0,0.0,0.0,1.6536,1.7196,1.8078,1.9219,2.0275,2.1173,2.1952,2.2403,2.243,2.244,2.244,2.244,2.243,2.243,2.2403,2.2366,2.2366,2.2328,2.2328,2.1849,2.1173,2.2,2.1811,2.1096,2.1096,2.1735,2.258,2.2449,0.0,0.0,0.0,2.5709,2.6062,2.7377,2.6584,0.0,2.6259,2.528,0.0,0.0,0.0,2.4247,2.4891,2.5219,2.5468,2.5972,2.6232,2.6357,2.6367,2.7031,2.748,2.707,2.6992,2.6865,2.6455,2.6035,2.5703,2.5693,2.5693,2.5693,2.5693,2.5693,2.5693,0.0,2.5693,2.5693,2.5693,2.5693,2.5693,2.5693,2.544,2.5284,2.5284,2.4784,2.448,2.443,2.4242,2.4152,2.4102,2.4102,2.4093,2.4057,2.3231,2.2647,2.2254,2.1861,2.1687,2.1696,2.1705,2.1934,2.2282,2.2355,2.2794,2.3441,2.3459,2.235,2.0987,0.0,0.0,0.0,0.0,0.0,0.0,0.0,0.0,0.0,0.0,0.0,0.0,0.0,0.0,0.0,0.0,0.0,0.0,0.0,1.5314,1.5764,1.6626,1.7382,1.8408,1.9798,2.0382,2.1199,2.2291,2.2291,2.2291,2.2291,2.2291,2.2291,2.2253,2.1621,2.0989,2.0401,1.973,1.9277,1.9058,1.9356,1.9689,2.0089,2.0089,2.0391,2.0896,0.0,0.0,0.0,0.0,0.0,0.0,2.7863,0.0,0.0,2.6749,0.0,0.0,0.0,0.0,2.4876,2.5376,2.576,2.6281,2.6998,2.7221,2.7314,2.7598,2.7881,2.7949,2.7529,2.7207,2.6875,2.6455,2.6025,2.5693,2.5693,2.5693,2.5693,2.5693,2.5693,0.0,0.0,0.0,0.0,2.5693,2.5693,2.5693,2.5693,2.5586,2.5586,2.5586,2.5235,2.4941,2.4784,2.4538,2.4341,2.4202,2.3877,2.3749,2.3721,2.2858,2.2419,2.2254,2.1861,2.1696,2.1696,2.1696,2.1769,2.1916,2.2181,2.262,2.3133,2.3398,2.3345,2.2929,0.0,0.0,0.0,0.0,0.0,0.0,0.0,0.0,0.0,0.0,0.0,0.0,0.0,0.0,0.0,0.0,0.0,0.0,0.0,0.0,1.4206,1.5391,1.5797,1.6643,1.804,1.832,1.8985,2.0033,2.012,2.0207,2.0207,2.0256,2.0256,2.0168,1.9534,1.8854,1.8231,1.7552,1.7327,1.7442,1.7441,1.8083,1.9062,1.9038,1.9442,0.0,0.0,0.0,0.0,0.0,0.0,0.0,0.0,0.0,0.0,0.0,0.0,0.0,0.0,2.5115,2.5899,2.6084,2.6523,2.7031,2.7734,2.7891,2.7969,2.8232,2.8291,2.8164,2.7744,2.7314,2.6875,2.6455,2.6025,2.5693,2.5693,2.5693,2.5693,2.5693,2.5693,2.5693,0.0,0.0,0.0,2.5693,2.5693,2.5693,2.5693,2.5693,2.5693,2.5693,2.544,2.5186,2.4883,2.4627,2.4316,2.3932,2.3618,2.3416,2.3261,2.2584,2.2282,2.2254,2.1861,2.1696,2.1696,2.1696,2.1696,2.1723,2.197,2.241,2.294,2.3187,2.3675,2.3994,0.0,0.0,0.0,0.0,0.0,0.0,0.0,0.0,0.0,0.0,0.0,0.0,0.0,0.0,0.0,0.0,0.0,0.0,0.0,0.0,0.0,1.4139,1.4496,1.5025,1.5921,1.5921,1.5962,1.6003,1.6265,1.6396,1.6396,1.6568,1.6568,1.6396,1.6396,1.6224,1.5921,1.5921,1.6077,1.6307,1.6345,1.7045,1.8113,1.8063,0.0,0.0,0.0,0.0,0.0,0.0,0.0,0.0,0.0,0.0,0.0,0.0,0.0,2.5733,2.473,2.5822,2.7208,2.7069,2.7373,2.7855,2.8203,2.8291,2.8291,2.8291,2.8291,2.8174,0.0,0.0,2.6904,2.6494,2.6055,2.5713,2.5693,2.5693,2.5693,0.0,0.0,0.0,0.0,0.0,0.0,2.5693,2.5693,2.5693,2.5693,2.5693,2.5693,2.5693,2.543,2.5186,2.4932,2.4609,2.4159,2.3499,2.3453,2.3242,2.2858,2.2437,2.2245,2.2272,2.1851,2.1696,2.1696,2.1696,2.1696,2.1696,2.1696,2.219,2.2904,2.2904,2.3464,2.4202,0.0,0.0,0.0,0.0,0.0,0.0,0.0,0.0,0.0,0.0,0.0,0.0,0.0,0.0,0.0,0.0,0.0,0.0,0.0,0.0,0.0,0.0,0.0,0.0,0.0,0.0,0.0,0.0,0.0,1.6085,1.6085,1.6134,1.6134,1.6085,1.6085,1.5681,1.5025,1.5025,1.5075,1.5168,0.0,1.6572,1.8255,0.0,0.0,0.0,0.0,0.0,0.0,0.0,0.0,0.0,0.0,2.9017,2.8337,0.0,0.0,2.6264,2.5543,2.6498,2.7711,2.7584,2.7822,2.8164,2.8271,2.8291,2.8291,2.8291,2.8291,2.8262,0.0,0.0,0.0,2.6924,2.6504,0.0,2.5732,2.5693,0.0,2.5693,0.0,2.5693,2.5693,2.5693,0.0,2.5693,2.5693,2.5693,2.5693,2.5693,2.5693,2.5693,2.5635,2.5489,2.5186,2.4435,2.389,2.3489,2.2876,2.2538,2.2428,2.2025,2.1842,2.1833,2.1733,2.1696,2.1696,2.1696,2.1696,2.1696,2.1696,2.219,2.2904,2.2904,2.3464,2.4202,0.0,0.0,0.0,0.0,0.0,0.0,0.0,0.0,0.0,0.0,0.0,0.0,0.0,0.0,0.0,0.0,0.0,0.0,0.0,0.0,0.0,0.0,0.0,0.0,0.0,0.0,0.0,0.0,0.0,0.0,0.0,1.4824,1.4824,1.474,1.474,1.4406,1.3831,0.0,0.0,0.0,0.0,0.0,0.0,0.0,0.0,0.0,0.0,0.0,0.0,0.0,0.0,2.8151,2.8151,2.7855,2.7382,2.6852,0.0,2.6673,2.5902,2.691,2.8092,2.7801,2.7894,2.8066,2.8252,2.8291,2.8291,2.8291,2.8291,0.0,2.8291,2.7949,2.764,0.0,0.0,0.0,2.6055,2.581,2.5693,0.0,2.5693,0.0,2.5693,2.5693,2.5693,2.5693,2.5693,2.5693,2.5693,2.5693,2.5693,2.5693,2.5693,2.5499,2.5015,2.4295,2.366,2.3147,2.2594,2.219,2.2016,2.1797,2.1696,2.1696,2.1696,2.1696,2.1696,2.1696,2.1696,2.1696,2.1696,2.219,2.2904,2.2904,2.3464,2.4202,0.0,0.0,0.0,0.0,0.0,0.0,0.0,0.0,0.0,0.0,0.0,0.0,0.0,0.0,0.0,0.0,0.0,0.0,0.0,0.0,0.0,0.0,0.0,0.0,0.0,0.0,0.0,0.0,0.0,0.0,0.0,0.0,0.0,0.0,0.0,0.0,0.0,0.0,0.0,0.0,0.0,0.0,0.0,0.0,0.0,0.0,0.0,0.0,0.0,0.0,2.5246,2.6563,2.6501,2.62,2.5899,2.6024,2.6615,2.7003,2.6172,2.7251,2.8431,2.7887,2.7806,2.7894,2.8203,2.8291,2.8291,2.8291,0.0,2.8291,2.8291,2.7998,2.7777,2.7728,0.0,2.6455,2.6396,2.6016,2.5693,2.5693,2.5693,2.5693,2.5693,2.5693,2.5693,2.5693,2.5693,2.5693,2.5693,2.5693,2.5693,2.5693,2.5635,2.5324,2.4717,2.4117,2.3411,2.2693,2.2364,2.2025,2.1696,2.1696,2.1696,2.1696,2.1696,2.1696,2.1696,2.1696,2.1696,2.1696,2.1696,2.219,2.2904,2.2904,2.3464,2.4202,0.0,0.0,0.0,0.0,0.0,0.0,0.0,0.0,0.0,0.0,0.3885,0.5419,0.0,0.0,0.0,0.0,0.0,0.0,0.0,0.0,0.0,0.0,0.0,0.0,0.0,0.0,0.0,0.0,0.0,0.0,0.0,0.0,0.0,0.0,0.0,0.0,0.0,0.0,0.0,0.0,0.0,0.0,0.0,0.0,0.0,0.0,0.0,0.0,0.0,0.0,2.4699,2.6244,2.6001,2.5906,2.6024,2.6698,2.7018,2.7208,2.7327,2.8175,2.8891,2.8331,2.8184,2.8203,2.8271,2.8291,0.0,0.0,2.8291,2.8291,2.8291,2.8232,2.8066,2.7777,2.7236,2.6787,2.6435,2.6016,2.5693,0.0,2.5693,2.5693,2.5693,2.5693,0.0,0.0,2.5693,2.5693,2.5693,2.5693,2.5693,2.5693,2.5371,2.5061,2.4717,2.3727,2.3071,2.2693,2.2087,2.176,2.1696,2.1696,2.1696,2.1696,2.1696,0.0,2.1696,2.1696,2.1696,2.1696,2.1696,2.219,2.2904,2.2904,2.3464,2.4202,0.0,0.0,0.0,0.0,0.0,0.0,0.0,0.0445,0.0993,0.1529,0.3062,0.447,0.5472,0.6067,0.6387,0.0,0.0,0.0,0.0,0.0,0.0,0.0,0.0,0.0,0.0,0.0,0.0,0.0,0.0,0.0,0.0,0.0,0.0,0.0,0.0,0.0,0.0,0.0,0.0,0.0,0.0,0.0,0.0,0.0,0.0,0.0,0.0,0.0,0.0,0.0,2.3908,2.4734,2.4888,2.5219,2.5677,2.6202,2.691,2.7442,2.7371,2.7833,2.8311,2.8068,2.7969,2.8027,2.8242,0.0,0.0,0.0,2.8291,2.8291,2.8291,2.8291,0.0,2.8027,2.7637,2.7197,2.6777,2.6348,2.5986,2.5713,2.5693,2.5693,2.5693,2.5693,2.5693,2.5693,2.5693,2.5693,2.5693,2.5693,2.5693,2.5693,2.5303,2.4876,2.4381,2.3517,2.2862,2.2376,2.1913,2.1696,2.1696,2.1696,2.1696,2.1696,2.1696,2.1696,2.1696,2.1696,2.1696,2.1696,2.1696,2.219,2.2904,2.2904,2.3464,2.4202,0.0,0.0,0.0,0.0,0.0,0.0,0.0,0.0,0.0279,0.1155,0.2515,0.3668,0.4404,0.5639,0.6425,0.0,0.0,0.0,0.0,0.0,0.0,0.0,0.0,0.0,0.0,0.0,0.0,0.0,0.0,0.0,0.0,0.0,0.0,0.0,0.0,0.0,0.0,0.0,0.0,0.0,0.0,0.0,0.0,0.0,0.0,0.0,0.0,0.0,0.0,0.0,2.3036,2.3429,2.4022,2.4699,2.5371,2.5761,2.6746,2.7669,2.7363,2.7539,2.7855,2.7855,2.7855,2.7891,2.8223,2.8291,0.0,0.0,2.8291,2.8291,2.8291,2.8291,2.8291,0.0,2.7939,2.7562,2.708,2.665,2.623,0.0,2.5693,0.0,2.5693,2.5693,0.0,2.5693,2.5693,2.5693,2.5693,2.5596,2.5596,2.5596,2.5068,2.4582,2.4021,2.3324,2.2683,2.2141,2.1874,2.1696,2.1696,2.1696,2.1696,2.1696,2.1696,2.1696,2.1696,2.1696,2.1696,2.1696,2.1696,2.219,2.2904,2.2904,2.3464,2.4202,0.0,0.0,0.0,0.0,0.0,0.0,0.0,0.0,0.0056,0.0112,0.2038,0.3431,0.3527,0.5367,0.6603,0.0,0.0,0.0,0.0,0.0,0.0,0.0,0.0,0.0,0.0,0.0,0.0,0.0,0.0,0.0,0.0,0.0,0.0,0.0,0.0,0.0,0.0,0.0,0.0,0.0,0.0,0.0,0.0,0.0,0.0,0.0,0.0,0.0,0.0,0.0,0.0,2.3604,2.4256,2.4875,2.5438,2.6307,0.0,0.0,2.8076,2.8203,2.8232,2.8232,2.8232,2.8242,2.8281,0.0,0.0,2.8291,2.8291,2.8291,2.8291,2.8291,2.8291,2.8291,0.0,2.7562,2.708,2.665,2.623,2.5742,0.0,0.0,2.5693,2.5693,2.5693,2.5693,2.5693,2.5693,2.5693,2.5352,2.5174,2.5174,2.4336,2.3887,2.3848,2.293,2.2435,2.2353,2.1909,2.1696,2.1696,2.1696,2.1696,2.1696,2.1696,2.1696,0.0,2.1696,2.1696,2.1696,2.1696,2.219,2.2904,2.2904,2.3464,2.4202,0.0,0.0,0.0,0.0,0.0,0.0,0.0,0.0,0.0,0.0,0.2058,0.3544,0.3544,0.5528,0.6779,0.6632,0.0,0.0,0.0,0.0,0.0,0.0,0.0,0.0,0.0,0.0,0.0,0.0,0.0,0.0,0.0,0.0,0.0,0.0,0.0,0.0,0.0,0.0,0.0,0.0,0.0,0.0,0.0,0.0,0.0,0.0,0.0,0.0,0.0,0.0,0.0,0.0,2.4417,2.5097,0.0,0.0,2.7381,2.7917,2.8189,2.8291,2.8291,2.8291,2.8291,2.8223,2.7969,0.0,2.7842,2.7578,2.7529,2.7598,2.7871,2.792,2.7998,0.0,0.0,0.0,2.7109,2.6875,2.6514,2.5771,2.5693,2.5693,0.0,0.0,2.5693,2.5693,2.5488,2.5332,2.5332,2.5213,2.4951,2.4687,2.4102,2.3699,2.3554,2.2774,2.2353,2.223,2.1874,2.1696,2.1696,2.1696,2.1696,2.1696,2.1696,2.1696,0.0,2.1696,2.1696,2.1696,2.1696,2.219,2.2904,2.2904,2.3464,2.4202,0.0,0.0,0.0,0.0,0.0,0.0,0.0,0.0,0.0113,0.0508,0.2302,0.3748,0.4083,0.5865,0.695,0.6747,0.6695,0.0,0.0,0.0,0.0,0.0,0.0,0.0,0.0,0.0,0.0,0.7988,0.7988,0.0,0.0,0.0,0.0,0.0,0.0,0.0,0.0,0.0,0.0,0.0,0.0,0.0,0.0,0.0,0.0,0.0,0.0,0.0,0.0,0.0,0.0,0.0,0.0,0.0,0.0,0.0,2.741,2.796,2.8121,2.8237,2.8291,2.8291,2.8203,2.8027,0.0,0.0,2.7393,2.708,2.7012,2.7109,2.7412,2.7471,2.7568,0.0,0.0,2.7656,2.6934,2.6826,2.6653,2.619,0.0,2.6139,2.6139,2.5868,2.5635,2.5547,2.5244,2.5008,2.4754,2.4734,2.4551,2.4238,2.3818,2.3504,2.3316,2.2761,2.2397,2.2185,2.1919,2.1785,2.1696,2.1696,2.1696,2.1696,2.1696,2.1696,0.0,2.1696,2.1696,2.1696,2.1696,2.219,2.2904,2.2904,2.3464,2.4202,0.0,0.0,0.0,0.0,0.0,0.0,0.0,0.0,0.0402,0.1607,0.2827,0.4027,0.526,0.6485,0.7161,0.6991,0.6869,0.0,0.0,0.0,0.0,0.0,0.0,0.0,0.0,0.0,0.7988,0.7988,0.7988,0.7988,0.7988,0.0,0.0,0.0,0.0,0.0,0.0,0.0,0.0,0.0,0.0,0.0,0.0,0.0,0.0,0.0,0.0,0.0,0.0,0.0,0.0,0.0,0.0,0.0,0.0,0.0,2.71,2.7906,2.7906,2.8121,2.8291,2.8291,2.7978,2.7728,0.0,0.0,2.7021,2.7012,2.7012,2.7012,2.7021,2.7021,2.7021,2.7021,0.0,0.0,2.6455,2.6396,2.6596,0.0,2.7189,2.7189,2.7189,2.6284,2.5557,2.5155,2.5116,2.4744,2.3848,2.3799,2.3799,2.3799,2.3335,2.3101,2.3101,2.2891,2.2662,2.2388,2.2185,2.1963,2.1696,2.1696,2.1696,2.1696,2.1696,2.1696,0.0,2.1696,2.1696,2.1696,2.1696,2.219,2.2904,2.2904,2.3464,2.4202,0.0,0.0,0.0,0.0,0.0,0.0,0.0,0.0,0.0467,0.1752,0.2933,0.4096,0.5344,0.6527,0.7196,0.7158,0.6994,0.0,0.0,0.0,0.0,0.0,0.0,0.0,0.0,0.0,0.7793,0.7988,0.7988,0.8092,0.8197,0.8197,0.8248,0.0,0.0,0.0,0.0,0.0,0.0,0.0,0.0,0.0,0.0,0.0,0.0,0.0,0.0,0.0,0.0,0.0,0.0,0.0,0.0,0.0,0.0,0.0,0.0,0.0,2.7722,2.7748,2.7578,2.7809,2.7539,2.7148,2.6855,0.0,2.6504,2.6201,2.6093,2.623,2.6533,2.6592,2.668,2.6973,2.7012,0.0,0.0,0.0,0.0,2.8092,2.7605,2.6914,2.6235,2.5641,2.5215,2.5125,2.4531,2.4072,2.3799,2.3506,2.3305,2.3305,2.3169,2.3091,2.3091,2.2882,2.2671,2.2397,2.2185,2.1963,2.1696,2.1696,2.1696,2.1696,2.1696,2.1696,2.1696,2.1696,2.1696,2.1696,2.1696,2.219,2.2904,2.2904,2.3464,2.4202,0.0,0.0,0.0,0.0,0.0,0.0,0.0,0.0418,0.1247,0.2491,0.3683,0.4857,0.6127,0.6837,0.7222,0.7222,0.7116,0.0,0.0,0.0,0.0,0.0,0.0,0.0,0.0,0.7519,0.7795,0.7988,0.7988,0.8039,0.8184,0.8184,0.8231,0.8316,0.8316,0.0,0.0,0.0,0.0,0.0,0.0,0.0,1.3827,0.0,0.0,0.0,0.0,0.0,0.0,0.0,0.0,0.0,0.0,0.0,0.0,0.0,0.0,0.0,0.0,2.7127,2.7029,2.736,2.71,0.0,0.0,2.626,2.6064,2.5742,2.5693,2.5771,2.6094,2.6143,2.623,2.6494,2.6814,2.7052,0.0,0.0,0.0,2.9084,2.8239,2.7269,2.6689,2.554,2.4756,2.46,2.4092,2.3721,2.3555,2.3247,2.3091,2.3091,2.3091,2.3091,2.3091,2.2969,2.2794,2.253,2.2309,2.2097,2.183,2.1741,2.1696,2.1696,2.1696,2.1696,0.0,2.1696,2.1696,2.1696,2.1696,2.219,2.2904,2.2904,2.3464,2.4202,0.0,0.0,0.0,0.0,0.0,0.0,0.0,0.1279,0.2593,0.3793,0.4986,0.6174,0.7354,0.7421,0.7288,0.728,0.0,0.0,0.0,0.0,0.0,0.0,0.0,0.0,0.741,0.766,0.7855,0.8035,0.8035,0.8042,0.8052,0.8042,0.8035,0.8035,0.8015,0.0,0.0,0.0,0.0,0.0,0.0,0.0,0.0,0.0,0.0,0.0,0.0,0.0,0.0,0.0,0.0,0.0,0.0,0.0,0.0,0.0,0.0,0.0,0.0,0.0,0.0,0.0,0.0,0.0,0.0,0.0,0.0,2.5693,2.5693,2.5693,2.5693,2.5693,2.5732,2.5781,2.66,2.6914,0.0,2.7641,2.9133,2.9931,2.8857,2.8017,2.7927,2.5752,2.4209,2.3818,2.376,2.3564,2.312,2.3091,2.3091,2.3091,2.3091,2.3091,2.3091,2.3091,2.3013,2.2803,2.253,2.2309,2.2097,2.183,2.1696,0.0,2.1696,2.1696,2.1696,2.1696,2.1696,2.1696,2.1696,2.2172,2.2867,2.2895,2.3446,2.4165,0.0,0.0,0.0,0.0,0.0,0.0,0.0,0.0,0.0,0.0,0.5553,0.6217,0.7538,0.7548,0.7437,0.0,0.0,0.0,0.0,0.0,0.0,0.0,0.0,0.0,0.7549,0.7599,0.7951,0.8554,0.8554,0.8611,0.8672,0.8608,0.8554,0.8543,0.8316,0.8214,0.0,0.0,0.0,0.0,0.0,0.0,0.0,0.0,0.0,0.0,1.7356,1.7594,0.0,0.0,0.0,0.0,0.0,0.0,0.0,0.0,2.4349,0.0,0.0,0.0,0.0,0.0,0.0,0.0,0.0,0.0,0.0,0.0,0.0,0.0,0.0,2.5693,2.5965,2.6733,2.7047,2.7652,2.8969,2.9837,2.9918,2.8588,2.7898,2.7169,2.6406,2.4897,2.3896,2.3799,2.3486,2.3198,2.3101,2.3091,2.3091,2.3091,2.3091,2.3091,2.3091,2.3091,2.3013,2.2803,2.253,2.2309,2.2097,2.183,2.1696,2.1696,2.1696,2.1696,2.1696,2.1696,2.1696,2.1696,2.1696,2.1998,2.2465,2.2785,2.3215,2.373,0.0,0.0,0.0,0.0,0.0,0.0,0.0,0.0,0.0,0.0,0.0,0.0,0.0,0.0,0.0,0.0,0.0,0.0,0.0,0.0,0.0,0.0,0.0,0.7234,0.7777,0.7777,0.8138,0.8815,0.8815,0.8804,0.8881,0.8801,0.8815,0.8808,0.8648,0.8537,0.0,0.0,0.0,0.0,1.2008,0.0,0.0,0.0,0.0,0.0,1.7485,1.7608,0.0,1.7979,1.9043,2.0436,0.0,0.0,0.0,0.0,2.4202,2.4251,2.444,2.4836,2.5322,2.5778,0.0,0.0,0.0,0.0,0.0,0.0,0.0,0.0,0.0,2.5693,2.6004,2.7057,2.7189,2.7859,2.9714,2.9884,2.9656,2.9123,2.82,2.7237,2.6276,2.491,2.3919,2.3486,2.3227,2.3091,2.3091,2.3091,2.3091,2.3091,2.3091,2.3091,2.3091,2.3091,2.3057,2.2925,2.2574,2.2353,2.222,2.1865,2.1696,2.1696,2.1696,2.1696,2.1696,2.1696,2.1696,2.1696,2.1696,2.1934,2.2327,2.2748,2.316,2.3553,0.0,0.0,0.0,0.0,0.0,0.0,0.0,0.0,0.0,0.0,0.0,0.0,0.0,0.0,0.0,0.0,0.0,0.0,0.0,0.0,0.0,0.0,0.0,0.7524,0.805,0.8106,0.8398,0.8986,0.8986,0.8996,0.9016,0.8996,0.8959,0.8974,0.8939,0.8923,0.0,0.0,0.9273,0.0,1.2434,0.0,0.0,0.0,0.0,0.0,0.0,0.0,0.0,1.7562,1.8272,1.937,2.0514,0.0,0.0,0.0,0.0,0.0,2.439,2.4686,2.4981,2.5235,2.5489,0.0,0.0,0.0,0.0,0.0,0.0,0.0,0.0,2.583,0.0,0.0,2.7646,2.8259,2.9598,2.9175,2.9117,3.0174,2.8893,2.7596,2.6771,2.5477,2.4317,2.3396,2.3309,2.3266,2.3101,2.3091,2.3091,2.3091,2.3091,2.3091,2.3091,2.3091,2.3091,2.3091,2.2608,2.2397,2.2397,2.1909,2.1696,2.1696,2.1696,0.0,2.1696,2.1696,2.1696,2.1696,2.1696,2.1897,2.2245,2.273,2.3123,2.3471,0.0,0.0,0.0,0.0,0.0,0.0,0.0,0.0,0.0,0.0,0.0,0.0,0.0,0.0,0.0,0.0,0.0,0.0,0.0,0.0,0.0,0.0,0.77,0.7923,0.832,0.8618,0.9029,0.9507,0.9507,0.9568,0.9683,0.9564,0.9367,0.9183,0.9256,0.9228,0.9163,0.9435,0.9547,0.9759,1.2537,0.0,0.0,0.0,0.0,0.0,0.0,0.0,0.0,1.75,1.8135,1.912,2.0491,0.0,0.0,0.0,0.0,0.0,2.4251,2.4597,2.4981,2.5235,2.5333,2.544,0.0,0.0,0.0,0.0,0.0,0.0,0.0,2.6418,2.7284,0.0,2.9533,3.0308,3.029,2.982,2.9511,2.9675,2.8449,2.7429,2.7124,2.6207,2.5242,2.437,2.4284,2.394,2.3135,2.3091,2.3091,2.3091,2.3091,2.3091,2.3091,2.3091,2.3091,2.3091,2.2608,2.2397,2.2397,2.1909,2.1696,2.1696,0.0,2.1696,2.1696,2.1696,2.1696,2.1696,2.1696,2.1733,2.187,2.2629,2.295,2.3105,0.0,0.0,0.0,0.0,0.0,0.0,0.0,0.0,0.0,0.0,0.0,0.0,0.0,0.0,0.0,0.0,0.0,0.0,0.0,0.0,0.0,0.776,0.7938,0.8257,0.8843,0.8967,0.9275,0.9724,0.9724,0.9758,0.9819,0.9754,0.9608,0.9405,0.9554,0.9537,0.9415,0.9632,0.9724,0.9907,0.0,0.0,0.0,0.0,0.0,0.0,0.0,0.0,0.0,0.0,1.7359,1.8191,1.9904,0.0,0.0,0.0,0.0,0.0,2.4202,2.435,2.4597,2.499,2.5284,2.5538,2.5684,2.5693,0.0,0.0,0.0,0.0,0.0,0.0,2.6615,2.7325,2.8927,2.9887,2.9404,2.9241,2.9236,2.9475,2.8818,2.8103,2.7447,2.6513,2.5557,2.4584,2.4026,2.356,2.3135,2.3091,2.3091,2.3091,2.3091,2.3091,2.3091,2.3091,2.3091,2.3091,2.275,2.253,2.2397,2.2043,2.183,2.1696,0.0,2.1696,2.1696,2.1696,2.1696,2.1696,2.1696,2.1696,2.1797,2.2602,2.3178,2.3657,0.0,0.0,0.0,0.0,0.0,0.0,0.0,0.0,0.0,0.0,0.0,0.0,0.0,0.0,0.0,0.0,0.0,0.0,0.0,0.0,0.7505,0.7812,0.8085,0.8459,0.8995,0.9174,0.9346,0.97,0.9761,0.9822,0.9822,0.9822,0.9764,0.9663,0.9774,0.9761,0.9666,0.9774,0.9822,0.9883,0.0,0.0,0.0,0.0,0.0,0.0,0.0,0.0,0.0,0.0,0.0,0.0,0.0,0.0,0.0,2.3229,2.4003,2.4202,2.4202,2.4301,2.4449,2.4784,0.0,2.5538,2.5684,2.5693,0.0,0.0,0.0,0.0,0.0,2.6348,2.6691,2.7009,2.8328,2.9121,2.8615,2.8755,2.9,2.9302,2.9197,2.8764,2.781,2.7087,2.6141,2.4914,2.4155,2.356,2.3135,2.3091,2.3091,2.3091,2.3091,2.3091,2.3091,2.3091,2.3091,2.3091,2.2891,2.2662,2.2388,2.2185,2.1963,2.1696,2.1696,2.1696,2.1696,2.1696,2.1696,2.1696,2.1696,2.1806,2.2053,2.2675,2.3464,2.4202,0.0,0.0,0.0,0.0,0.0,0.0,0.0,0.0,0.0,0.0,0.0,0.0,0.0,0.0,0.0,0.0,0.0,0.0,0.0,0.0,0.7801,0.8176,0.8291,0.8416,0.8477,0.9019,0.9326,0.9335,0.964,0.9822,0.9822,0.9822,0.9815,0.9805,0.9815,0.9815,0.9805,0.9819,0.9822,0.9883,1.1209,0.0,0.0,0.0,0.0,0.0,0.0,0.0,0.0,0.0,0.0,0.0,0.0,0.0,0.0,0.0,2.3388,2.4202,2.4202,2.4498,2.4883,2.4883,2.4932,2.5088,2.5586,2.5693,0.0,2.5693,0.0,0.0,0.0,2.8228,2.9104,2.91,2.9217,2.9245,2.9056,2.9077,2.9091,2.9131,2.9091,2.8934,2.8459,2.8379,2.7592,2.583,2.5652,2.4861,2.3178,2.3091,2.3091,2.3091,2.3091,2.3091,2.3091,2.3091,2.3091,2.3091,2.2891,2.2662,2.2388,2.2185,2.1963,2.1696,2.1696,2.1696,2.1696,2.1696,2.1696,2.1696,2.1696,2.2153,2.2831,2.2885,2.3464,2.4202,0.0,0.0,0.0,0.0,0.0,0.0,0.0,0.0,0.0,0.0,0.0,0.0,0.0,0.0,0.0,0.0,0.0,0.0,0.0,0.0,0.7793,0.7983,0.8279,0.8369,0.8369,0.8973,0.9396,0.964,0.9761,0.9822,0.9822,0.9822,0.9822,0.9822,0.9822,0.9822,0.9822,0.9822,0.9822,0.9883,1.1209,1.1989,0.0,0.0,0.0,0.0,0.0,0.0,0.0,0.0,1.6137,0.0,0.0,0.0,0.0,0.0,0.0,2.4202,2.4202,2.435,2.4482,2.4522,2.4514,0.0,0.0,2.5693,2.5868,2.6504,2.6377,0.0,0.0,0.0,2.841,2.8365,2.8707,2.9007,2.9089,2.9197,2.9275,2.9275,2.9275,2.9118,2.8724,2.8195,2.7313,2.5902,2.5284,2.4445,2.3178,2.3091,2.3091,2.3091,2.3091,2.3091,2.3091,2.3091,2.3091,2.3091,2.3013,2.2794,2.2397,2.2309,2.2087,2.1696,2.1696,2.1696,2.1696,2.1696,2.1696,2.1696,2.1696,2.219,2.2904,2.2904,2.3464,2.4202,0.0,0.0,0.0,0.0,0.0,0.0,0.0,0.0,0.0,0.0,0.0,0.0,0.0,0.0,0.0,0.0,0.0,0.0,0.7867,0.7799,0.7851,0.8055,0.8305,0.8491,0.8671,0.9095,0.9396,0.964,0.9761,1.0004,1.0425,1.0425,1.0604,1.1023,1.1023,1.0781,1.0425,1.0425,1.0425,1.0486,1.1329,1.2169,0.0,0.0,0.0,0.0,0.0,0.0,0.0,0.0,0.0,0.0,0.0,0.0,0.0,0.0,0.0,0.0,2.4202,2.4159,2.414,2.4152,0.0,0.0,2.5377,2.5684,2.5922,2.6635,2.6921,2.714,2.7294,0.0,0.0,2.8116,2.8502,2.8882,2.9157,2.9314,2.9419,2.9419,2.9341,2.9184,2.8831,2.8183,2.7366,2.6329,2.5411,2.4488,2.3604,2.3266,2.3091,2.3091,2.3091,2.3091,2.3091,2.3091,2.3091,2.3091,2.3091,2.2882,2.253,2.2441,2.2176,2.183,2.1741,2.1696,2.1696,2.1696,2.1696,2.1705,2.1833,2.23,2.2922,2.305,2.3565,2.4202,0.0,0.0,0.0,0.0,0.0,0.0,0.0,0.0,0.0,0.0,0.0,0.0,0.0,0.0,0.0,0.0,0.0,0.0,0.7872,0.7933,0.8058,0.8369,0.843,0.8671,0.9275,0.9335,0.9335,0.9339,0.964,1.0486,1.1692,1.1692,1.241,1.3725,1.3725,1.2946,1.1692,1.1692,1.1692,1.1692,1.1752,1.3306,1.5575,0.0,0.0,0.0,0.0,0.0,0.0,0.0,0.0,0.0,0.0,0.0,0.0,0.0,2.2459,2.4202,2.4202,2.4054,2.3884,0.0,0.0,0.0,2.5189,2.5608,2.5799,2.5799,2.7294,2.842,2.7916,2.8598,0.0,2.8849,2.8791,2.8949,2.9341,2.9419,2.9419,2.9419,2.9236,2.9,2.8843,2.8618,2.8139,2.7267,2.6329,2.5411,2.4541,2.3604,2.3091,2.3091,2.3091,2.3091,2.3091,2.3091,2.3091,2.3091,2.3091,2.3013,2.2794,2.253,2.2309,2.2097,2.183,2.1696,2.1696,2.1696,2.1696,2.1733,2.2126,2.2538,2.2959,2.3352,2.3804,2.4202,0.0,0.0,0.0,0.0,0.0,0.0,0.0,0.0,0.0,0.0,0.0,0.0,0.0,0.0,0.0,0.0,0.0,0.0,0.7872,0.8119,0.8305,0.8369,0.8793,0.9576,1.0653,1.18,1.1924,1.0967,1.2045,1.2766,1.3126,1.3126,1.3306,1.3725,1.3725,1.3485,1.3126,1.3126,1.3126,1.3186,1.4078,1.4917,1.5693,0.0,0.0,0.0,0.0,0.0,0.0,0.0,0.0,0.0,0.0,0.0,0.0,0.0,2.292,2.4202,2.4202,2.3908,0.0,2.3493,0.0,0.0,0.0,2.5156,0.0,0.0,2.8222,2.8941,2.8378,2.8538,0.0,2.8602,2.8816,2.904,2.917,2.9495,2.9599,2.9419,2.9341,2.9236,2.904,2.8973,2.8486,2.7487,2.7139,2.6276,2.4584,2.4241,2.3777,2.3135,2.3091,2.3091,2.3091,2.3091,2.3091,2.3091,2.3091,2.3013,2.2794,2.253,2.2309,2.2097,2.183,2.1696,2.1696,2.1696,2.1696,2.1733,2.2126,2.2538,2.2959,2.3352,2.3804,2.4202,0.0,0.0,0.0,0.0,0.0,0.0,0.0,0.0,0.0,0.0,0.0,0.0,0.0,0.0,0.0,0.0,0.0,0.0,0.0,0.8488,0.8674,0.8732,0.9095,0.9997,1.1442,1.3421,1.4083,1.3246,1.3545,1.3963,1.4441,1.4441,1.4738,1.5213,1.5213,1.4917,1.4441,1.4441,1.4441,1.45,1.5273,1.593,1.6467,0.0,0.0,0.0,0.0,0.0,0.0,0.0,0.0,0.0,0.0,0.0,0.0,2.1159,2.2752,2.4165,2.395,2.3611,0.0,2.2944,2.2986,2.3393,2.4754,0.0,0.0,0.0,2.8561,2.8883,2.857,2.851,2.855,2.8618,2.8803,2.9013,2.9091,2.9417,2.956,2.9419,2.9419,2.9341,2.9236,2.917,2.8843,2.8171,2.7758,2.6976,2.5777,2.4914,2.4241,2.3691,2.3309,2.3091,2.3091,2.3091,2.3091,2.3091,2.3091,2.3057,2.2925,2.2574,2.2353,2.2185,2.1874,2.1696,2.1696,2.1696,2.1696,2.1751,2.2309,2.2684,2.2968,2.3584,2.3941,2.4202,0.0,0.0,0.0,0.0,0.0,0.0,0.0,0.0,0.0,0.0,0.818,0.0,0.0,0.0,0.0,0.0,0.0,0.0,0.0,0.0,0.9034,0.9275,0.9579,1.0422,1.1989,1.4495,1.5752,1.5752,1.4619,1.4619,1.5752,1.5752,1.6408,1.7485,1.7485,1.6885,1.5752,1.5752,1.5752,1.5752,1.5752,1.6467,1.7485,1.7485,0.0,0.0,0.0,0.0,0.0,0.0,0.0,0.0,0.0,0.0,1.9878,2.0282,2.208,2.3912,2.3608,2.3206,2.2803,2.2382,2.278,0.0,2.6019,2.694,2.7551,2.8339,0.0,2.851,2.851,2.851,2.8538,2.8724,2.8803,2.8882,2.9052,2.9236,2.938,2.9419,2.9419,2.9419,2.9419,2.9287,2.9131,2.9131,2.8211,2.7597,2.7516,2.5735,2.4669,2.4498,2.3691,2.3178,2.3091,2.3091,2.3091,2.3091,2.3091,2.3091,2.3091,2.2662,2.2397,2.2353,2.1909,2.1696,2.1696,2.1696,2.1696,2.1769,2.2593,2.2904,2.3004,2.3859,2.4202,2.4202,0.0,0.0,0.0,0.0,0.0,0.0,0.0,0.0,0.0,0.0,0.0,0.0,0.0,0.0,0.0,0.0,0.0,0.0,0.0,0.0,0.9217,0.9275,1.1503,1.3361,1.4738,1.629,1.7067,1.7067,1.6826,1.6826,1.7067,1.7067,1.7244,1.7485,1.7485,1.7361,1.7067,1.7067,1.7067,1.7067,1.7067,1.7244,1.7485,1.7485,1.7485,0.0,0.0,0.0,0.0,0.0,0.0,0.0,1.5945,1.7094,1.8655,1.9775,2.1261,2.2674,0.0,2.3206,0.0,0.0,2.3497,2.4967,2.6227,2.7389,2.8259,2.8471,2.851,2.851,2.851,2.851,2.851,2.8538,2.8685,2.8843,2.8882,2.904,2.9236,2.938,2.9419,2.947,2.9689,2.9663,2.9573,2.9353,2.9,2.8383,2.7545,2.6958,2.5966,2.4541,2.4284,2.3864,2.3101,2.3091,2.3091,2.3091,2.3091,2.3091,2.3101,2.2838,2.2495,2.2141,2.183,2.1696,2.1696,2.1696,2.1696,2.1769,2.2593,2.2904,2.3004,2.3859,2.4202,2.4202,0.0,0.0,0.0,0.0,0.0,0.0,0.0,0.0,0.0,0.0,0.0,0.0,0.0,0.0,0.0,0.0,0.0,0.0,0.0,0.0,0.0,0.9515,1.2225,1.4023,1.4679,1.6526,1.7485,1.7485,1.7485,1.7485,1.7485,1.7485,1.7485,1.7485,1.7485,1.7485,1.7485,1.7485,1.7485,1.7485,1.7485,1.7485,1.7485,1.7485,1.7485,1.7412,1.6887,0.0,0.0,0.0,0.0,0.0,0.0,0.0,1.8237,1.962,2.1006,0.0,0.0,0.0,0.0,2.2598,0.0,2.502,2.5841,2.7144,2.8203,2.8203,2.8351,2.851,2.851,2.851,2.851,2.851,2.8578,2.8657,2.8657,2.8843,2.904,2.9236,2.9341,2.9509,2.9792,2.9792,2.974,2.9599,2.9365,2.8949,2.8303,2.7689,2.6659,2.5158,2.4701,2.4026,2.3091,2.3091,2.3091,2.3091,2.3091,2.3091,2.3101,2.275,2.2407,2.2097,2.183,2.1696,2.1696,2.1696,2.1696,2.1769,2.2593,2.2904,2.3004,2.3859,2.4202,2.4202,0.0,0.0,0.0,0.0,0.0,0.0,0.0,0.0,0.0,0.0,0.0,0.0,0.0,0.0,0.0,0.0,0.0,0.0,0.0,0.0,0.0,0.0,1.2406,1.3784,1.4023,1.629,1.7485,1.7485,1.7485,1.7461,1.7418,1.7461,1.7485,1.7485,1.7485,1.7485,1.7485,1.7485,1.7485,1.7485,1.7485,1.7485,1.7485,1.7485,1.7485,1.7412,1.6887,1.67,1.6616,1.6072,0.0,0.0,0.0,0.0,1.7877,1.9265,2.0601,0.0,0.0,0.0,2.2723,2.2799,2.3647,0.0,2.5368,2.6682,2.78,2.7881,2.8243,2.851,2.851,2.851,2.851,2.851,2.851,2.851,2.851,2.8657,2.8803,2.9,2.9197,2.9392,2.9702,2.974,2.974,2.9792,2.956,2.9314,2.9091,2.8223,2.7139,2.5819,2.5115,2.4198,2.3091,2.3091,2.3091,2.3091,2.3091,2.3091,2.3101,2.2652,2.2353,2.2141,2.1874,2.1741,2.1696,2.1696,2.1696,2.1769,2.2593,2.2904,2.3004,2.3859,2.4202,2.4202,0.0,0.0,0.0,0.0,0.0,0.0,0.0,0.0,0.0,0.0,0.0,0.0,0.0,0.0,0.0,0.0,0.0,0.0,0.0,0.0,0.0,1.139,1.2886,1.4202,1.5332,1.6762,1.7485,1.7485,1.7485,1.7364,1.7153,1.7376,1.7485,1.7485,1.7485,1.7485,1.7485,1.7485,1.7485,1.7485,1.7485,1.7485,1.7485,1.7485,1.7485,1.7412,1.6887,1.67,1.6616,1.6072,1.5891,0.0,0.0,0.0,1.6471,1.7877,0.0,0.0,0.0,0.0,2.2003,0.0,2.3647,2.4659,0.0,0.0,2.74,0.0,2.8243,2.851,2.851,2.851,2.851,2.851,2.851,2.851,2.851,2.851,2.8618,2.8803,2.887,2.9028,2.9431,2.9457,2.956,2.9792,2.956,2.9314,2.9091,2.8791,2.7758,2.5861,2.5704,2.4819,2.3135,2.3091,2.3091,2.3091,2.3091,2.3091,2.3101,2.2838,2.2618,2.2353,2.2141,2.1919,2.1696,2.1696,2.1696,2.1769,2.2593,2.2904,2.3004,2.3859,2.4202,2.4202,0.0,0.0,0.0,0.0,0.0,0.0,0.0,0.0,0.0,0.0,0.0,0.0,0.0,0.0,0.0,0.0,0.0,0.0,0.0,0.0,0.0,1.1627,1.3006,1.4321,1.5575,1.6826,1.7412,1.7267,1.7267,1.7129,1.6875,1.699,1.7123,1.7267,1.7267,0.0,0.0,1.7726,1.7784,1.7784,1.7784,1.7843,1.7935,1.7438,1.7377,1.7477,1.6714,1.6465,1.6404,1.6018,1.5891,1.5891,1.5891,0.0,0.0,0.0,0.0,0.0,2.0238,2.1184,2.1785,0.0,2.2872,2.3724,2.4392,2.5453,2.6423,2.6992,2.7655,2.8231,2.8471,2.851,2.851,2.851,2.851,2.851,2.851,2.851,2.8578,2.8803,2.8791,2.891,2.9197,2.9236,2.9326,2.956,2.9353,2.9197,2.9091,2.8922,2.7891,2.5861,2.5777,2.4946,2.3135,2.3091,2.3091,2.3091,2.3091,2.3091,2.3091,2.3013,2.275,2.2397,2.2185,2.1963,2.1696,2.1696,2.1696,2.1769,2.2593,2.2904,2.3004,2.3859,2.4202,2.4202,0.0,0.0,0.0,0.0,0.0,0.0,0.0,0.0,0.0,0.0,0.0,0.0,0.0,0.0,0.0,0.0,0.0,0.0,0.0,0.0,0.0,1.1495,1.2848,1.4153,1.5397,1.6634,1.7189,1.6996,1.6996,1.6857,1.6592,1.6592,1.6756,1.7007,1.7146,1.7274,0.0,0.0,1.794,1.7877,1.7877,1.7987,1.8071,0.0,1.7269,1.7371,1.6557,1.6278,1.6241,1.5976,1.5891,1.5891,1.5891,1.5891,0.0,0.0,0.0,0.0,0.0,0.0,2.1508,2.1508,2.2176,2.2925,0.0,0.0,2.5505,2.6133,2.6951,2.7667,2.8099,2.8339,2.851,2.851,2.851,2.851,2.851,2.851,2.8538,2.8724,2.8724,2.8803,2.9013,2.9,2.9118,2.9314,2.9157,2.9091,2.9013,2.8882,2.7971,2.6205,2.5902,2.5031,2.3474,2.3222,2.3091,2.3091,2.3091,2.3091,2.3091,2.3091,2.2828,2.2397,2.223,2.2008,2.1696,2.1696,2.1696,2.1769,2.2593,2.2904,2.3004,2.3859,2.4202,2.4202,0.0,0.0,0.0,0.0,0.0,0.0,0.0,0.0,0.0,0.0,0.0,0.0,0.0,0.9615,0.9493,0.9258,0.0,0.0,0.0,0.0,0.0,1.1079,1.2512,0.0,1.4804,1.6111,1.673,1.6718,1.6718,1.6579,1.6302,1.6302,1.6478,1.674,1.7309,1.7402,1.7129,0.0,0.0,1.7521,1.7521,1.7515,1.7515,0.0,0.0,0.0,1.649,1.6278,1.6241,1.5976,1.5891,1.5891,1.5891,1.5891,0.0,0.0,0.0,0.0,0.0,2.013,0.0,2.1042,2.1945,2.2794,0.0,0.0,2.5062,2.5453,2.6091,2.6734,2.7185,2.7926,2.851,2.851,2.851,2.851,2.851,2.851,2.851,2.851,2.851,2.8578,2.8803,2.8843,2.8882,2.9091,2.9091,2.9013,2.8843,2.8803,2.8275,2.7174,2.6246,2.5368,2.4456,2.356,2.3091,2.3091,2.3091,2.3091,2.3091,2.3091,2.2828,2.2397,2.2397,2.2132,2.1696,2.1696,2.1696,2.1769,2.2593,2.2904,2.3004,2.3859,2.4202,2.4202,0.0,0.0,0.0,0.0,0.0,0.0,0.0,0.0,0.0,0.0,0.0,0.0,0.0,1.1049,1.0406,1.0284,1.0229,0.0,0.0,0.0,0.0,1.3445,1.3981,1.479,1.6014,1.647,1.6622,0.0,1.6441,1.6296,1.603,1.603,1.6192,1.6485,1.6851,1.7172,1.7365,1.7802,0.0,1.7805,1.7805,1.7978,1.8076,0.0,0.0,1.7325,1.6565,1.6305,1.6239,1.5975,1.5891,0.0,0.0,0.0,0.0,0.0,0.0,0.0,0.0,0.0,0.0,2.0898,2.1544,2.223,2.2715,2.3188,2.3874,2.4882,2.5505,2.6049,2.664,2.7267,2.7765,2.8082,2.8122,2.8203,2.8471,2.851,2.851,2.851,2.851,2.855,2.8618,2.8618,2.8697,2.8882,2.8776,2.8736,2.8791,2.8685,2.8167,2.7226,2.6287,2.5073,2.3604,2.3266,2.3091,2.3091,2.3091,2.3091,2.3091,2.3091,2.2828,2.2397,2.2397,2.2132,2.1696,2.1696,2.1696,2.1769,2.2593,2.2904,2.3004,2.3859,2.4202,2.4202,0.0,0.0,0.0,0.0,0.0,0.0,0.0,0.0,0.0,0.0,0.0,0.0,0.0,0.0,1.1479,1.1411,1.1346,1.1325,1.1398,1.2135,1.3213,1.4521,1.4652,1.5222,1.6429,1.6429,0.0,0.0,0.0,0.0,0.0,1.5998,1.6158,1.6436,1.6725,1.7076,0.0,0.0,0.0,1.7843,1.7843,1.8013,1.8109,0.0,0.0,1.738,1.6706,1.6424,1.6371,1.6105,0.0,0.0,0.0,0.0,0.0,0.0,0.0,0.0,1.6928,0.0,0.0,0.0,2.1239,2.183,2.2309,2.2627,2.3057,2.4003,2.4573,2.5158,2.5852,2.6238,2.6693,2.7534,2.78,2.8002,2.8283,2.8391,2.851,2.851,2.851,2.851,2.851,2.851,2.8538,2.8685,2.8578,2.8538,2.8685,2.8578,2.7966,2.6764,2.6121,2.4946,2.3135,2.3091,2.3091,2.3091,2.3091,2.3091,2.3091,2.3091,2.2828,2.2397,2.2397,2.2132,2.1696,2.1696,2.1696,2.1769,2.2593,2.2904,2.3004,2.3859,2.4202,2.4202,0.0,0.0,0.0,0.0,0.0,0.0,0.0,0.0,0.0,1.3784,0.0,0.0,0.0,0.0,0.0,1.2432,1.2413,1.2472,1.2472,1.2606,1.3187,1.4175,0.0,0.0,0.0,0.0,0.0,0.0,0.0,0.0,0.0,0.0,1.6424,1.673,1.7067,1.7179,1.7252,0.0,1.7856,1.7582,1.7582,1.7582,1.7582,0.0,0.0,0.0,1.6842,1.673,1.6683,1.6371,0.0,0.0,0.0,0.0,0.0,0.0,0.0,0.0,0.0,0.0,0.0,0.0,0.0,0.0,2.1687,2.2264,2.275,2.2803,2.3299,2.4016,2.4722,2.4861,2.5359,2.6846,2.7534,2.7881,2.7893,2.8243,2.851,2.851,2.851,2.851,2.851,2.851,2.851,2.851,2.851,2.851,2.851,2.851,2.7672,2.5861,2.5777,2.4946,2.3135,2.3091,2.3091,2.3091,2.3091,2.3091,2.3091,2.3091,2.2828,2.2388,2.2397,2.2132,2.1687,2.1696,2.1696,2.1769,2.2593,2.2904,2.3004,2.3859,2.4202,2.4202,0.0,0.0,0.0,0.0,0.0,0.0,0.0,0.0,1.6467,0.0,0.0,0.0,1.5676,1.4503,1.3415,1.2476,1.3181,1.3673,1.3673,1.4494,1.5098,1.541,1.5469,1.5636,1.5891,0.0,0.0,0.0,0.0,0.0,0.0,0.0,0.0,0.0,1.7179,1.7331,1.749,1.7675,0.0,1.7582,1.7582,1.7582,0.0,0.0,0.0,0.0,0.0,1.7067,1.7008,0.0,1.6477,1.624,0.0,0.0,0.0,0.0,0.0,0.0,1.613,0.0,0.0,0.0,0.0,0.0,0.0,2.1865,2.2176,2.2715,2.2969,2.3309,2.3983,2.4102,2.4231,2.4681,2.6246,2.7534,2.7841,2.8243,2.851,2.851,2.851,2.851,2.851,2.851,2.851,0.0,2.851,2.851,2.851,2.851,2.7672,2.5861,2.5777,2.4946,2.3135,2.3091,2.3091,2.3091,2.3091,2.3091,2.3091,2.3091,2.2969,2.2662,2.2485,2.222,2.1963,2.1785,2.1696,2.1769,2.2593,2.2904,2.3004,2.3859,2.4202,2.4202,0.0,0.0,0.0,0.0,0.0,0.0,1.7485,1.7485,1.7485,0.0,0.0,0.0,1.6386,1.5478,1.4648,1.3932,1.4482,1.4922,1.4922,1.5512,1.5891,1.5891,1.5891,1.5891,1.5891,1.5891,0.0,0.0,0.0,0.0,0.0,0.0,0.0,0.0,0.0,0.0,0.0,0.0,0.0,0.0,1.7582,0.0,0.0,1.7582,1.7582,0.0,0.0,0.0,1.7325,1.7008,1.6666,0.0,0.0,0.0,0.0,0.0,0.0,0.0,0.0,0.0,0.0,0.0,0.0,0.0,2.0988,2.141,2.182,2.2264,2.2353,2.2574,2.3256,2.3377,2.3464,2.3757,2.5073,2.6268,2.6816,2.7696,2.8243,2.8243,2.8391,2.851,2.851,2.851,2.851,2.851,2.851,2.851,2.851,2.851,2.7672,2.5861,2.5777,2.4946,2.3135,2.3091,2.3091,2.3091,2.3091,2.3091,2.3091,2.3091,2.3013,2.2803,2.253,2.2264,2.2097,2.183,2.1696,2.1769,2.2593,2.2904,2.3004,2.3859,2.4202,2.4202,0.0,0.0,0.0,0.0,0.0,0.0,1.7602,1.7602,1.7602,0.0,1.714,1.6618,1.6095,1.601,1.5998,1.5998,1.5998,1.5998,1.5998,1.5945,1.5945,1.5945,1.5945,1.5891,1.5891,1.5891,1.5891,0.0,0.0,0.0,0.0,0.0,0.0,0.0,0.0,0.0,0.0,0.0,0.0,1.7793,1.7635,1.7582,0.0,0.0,1.7582,1.7582,1.7582,1.7582,1.7529,1.7239,1.6794,0.0,0.0,0.0,0.0,0.0,1.5178,0.0,0.0,0.0,0.0,0.0,1.9018,0.0,2.0113,2.0853,2.1553,2.1553,2.1642,2.1909,2.2574,2.2671,2.2872,2.3454,2.3983,2.4573,2.5284,2.6734,2.7719,2.7748,2.8151,2.8431,2.851,2.851,2.851,2.851,2.851,2.851,2.851,2.851,2.7713,2.5986,2.5955,2.5073,2.3266,2.3266,2.3222,2.3091,2.3091,2.3091,2.3091,2.3091,2.3013,2.2803,2.253,2.2309,2.2097,2.183,2.1723,2.1833,2.2602,2.2931,2.3068,2.3926,2.4202,2.4202,0.0,0.0,0.0,0.0,0.0,1.796,1.8188,0.0,1.8246,1.8246,1.7767,1.7295,1.7003,0.0,0.0,0.0,1.6518,1.6518,1.6518,1.6318,1.6217,1.6217,1.5998,1.5891,1.5891,1.5891,1.5998,1.6217,0.0,0.0,0.0,0.0,0.0,0.0,0.0,0.0,0.0,0.0,0.0,1.8819,1.7943,1.7582,1.7582,1.7582,1.7582,1.7582,1.7582,1.7582,1.7496,1.6958,1.6736,1.6549,0.0,0.0,0.0,1.5686,0.0,0.0,0.0,0.0,0.0,0.0,1.7692,0.0,1.8926,1.984,2.0574,2.0574,2.1177,2.1741,2.1874,2.1909,2.1954,2.2078,2.2696,2.3484,2.4531,2.5768,2.6652,2.6999,2.7603,2.8122,2.8471,2.851,2.851,2.851,2.851,2.851,2.851,2.851,2.8007,2.6969,2.6928,2.6049,2.4241,2.4241,2.3864,2.3091,2.3091,2.3091,2.3091,2.3091,2.3091,2.3013,2.2564,2.2397,2.2309,2.1865,2.1879,2.2217,2.2712,2.3096,2.3435,2.4018,2.4202,2.4202,0.0,0.0,0.0,0.0,0.0,0.0,0.0,0.0,0.0,0.0,0.0,0.0,0.0,0.0,0.0,0.0,0.0,0.0,0.0,1.6577,1.6477,1.6477,1.6365,1.6311,1.6311,1.6311,1.6365,1.6477,0.0,0.0,0.0,0.0,0.0,0.0,0.0,0.0,0.0,0.0,2.0577,1.9952,1.8819,0.0,1.7582,1.7582,1.7582,1.7582,1.7582,1.7488,1.7341,1.7046,1.6757,0.0,1.6176,1.5985,1.584,0.0,1.5784,1.5784,0.0,0.0,0.0,1.644,1.6904,0.0,0.0,1.9201,2.0294,2.0294,2.1042,2.1696,2.1696,2.1696,2.1696,2.1696,2.1998,2.2441,2.3028,2.4402,2.5421,2.5621,2.6163,2.6794,2.758,2.7661,2.7874,2.8471,2.851,2.851,2.851,2.851,2.8099,2.7226,2.7185,2.634,2.4541,2.4498,2.4026,2.3091,2.3091,2.3091,2.3091,2.3091,2.3091,2.3047,2.2608,2.2397,2.2353,2.1909,2.2053,2.2611,2.2821,2.3151,2.3544,2.4055,2.4202,2.4202,0.0,0.0,0.0,0.0,0.0,0.0,0.0,0.0,0.0,0.0,0.0,0.0,0.0,0.0,0.0,0.0,0.0,0.0,0.0,1.6842,1.6789,1.6789,1.673,1.6677,1.6677,1.6677,1.673,1.6789,0.0,0.0,0.0,0.0,0.0,0.0,0.0,0.0,0.0,0.0,0.0,2.114,0.0,1.9176,1.8251,1.8251,1.8101,1.7884,1.762,1.74,1.7186,1.7072,1.6717,1.6308,1.6206,1.6019,0.0,0.0,0.0,0.0,0.0,0.0,0.0,0.0,0.0,1.7005,0.0,0.0,0.0,1.9875,2.0597,2.1299,2.1559,2.1568,2.1595,2.1678,2.1696,0.0,0.0,2.2984,0.0,2.4274,2.4681,2.5431,2.6565,2.6864,2.7418,2.8431,2.851,2.851,2.851,2.851,2.8179,2.747,2.7429,2.6588,2.4787,2.4744,2.4198,2.3091,2.3091,2.3091,2.3091,2.3091,2.3091,2.3047,2.2608,2.2397,2.2353,2.1909,2.2172,2.2904,2.2904,2.3197,2.3703,2.4082,2.4202,2.4202,1.8261,1.8363,0.0,0.0,0.0,0.0,0.0,0.0,0.0,0.0,0.0,0.0,0.0,0.0,0.0,0.0,0.0,0.0,1.7477,1.7279,1.712,1.712,1.6842,1.6677,1.6677,1.6677,1.6842,1.712,0.0,0.0,0.0,0.0,0.0,0.0,2.1751,0.0,0.0,0.0,2.3229,0.0,2.2165,2.1497,0.0,2.0526,1.9901,1.888,1.7643,1.7233,1.7119,0.0,1.6375,1.6226,0.0,1.5804,1.5784,1.5784,0.0,0.0,0.0,0.0,0.0,0.0,1.5879,0.0,0.0,0.0,1.7508,1.829,0.0,0.0,0.0,0.0,0.0,0.0,0.0,0.0,2.1696,2.1865,2.2378,2.3391,2.4135,2.5041,2.6144,2.7196,2.799,2.8471,2.851,2.851,2.851,2.851,2.8471,2.8351,2.8339,2.7458,2.5652,2.5652,2.4776,2.3091,2.3091,2.3091,2.3091,2.3091,2.3091,2.3047,2.2608,2.2397,2.2353,2.1909,2.2172,2.2904,2.2904,2.3419,2.4137,2.4183,2.4202,2.4202,1.817,1.8159,0.0,0.0,0.0,0.0,0.0,0.0,0.0,0.0,0.0,0.0,0.0,0.0,0.0,0.0,0.0,1.7582,1.7582,0.0,0.0,1.743,1.7318,1.7213,1.7213,1.7213,1.7265,1.743,1.8048,0.0,0.0,0.0,0.0,0.0,2.2719,0.0,2.2577,0.0,2.3895,0.0,0.0,0.0,0.0,2.1395,2.021,1.9132,1.8417,1.7588,1.6827,0.0,1.6159,0.0,0.0,0.0,0.0,1.5784,0.0,0.0,0.0,0.0,0.0,0.0,0.0,0.0,1.5618,0.0,1.695,0.0,0.0,0.0,0.0,0.0,0.0,0.0,2.1531,0.0,0.0,0.0,2.1865,2.2378,0.0,0.0,2.4691,2.5841,2.6846,2.7684,2.7255,2.7162,2.7725,2.7765,2.7765,2.7765,2.7765,2.7133,2.5819,2.5284,2.4402,2.3091,2.3091,2.3091,2.3091,2.3091,2.3091,2.3091,2.275,2.253,2.2397,2.2052,2.2308,2.2904,2.2904,2.3446,2.4202,2.4202,2.4202,2.4202,1.8863,0.0,0.0,0.0,0.0,0.0,1.9408,1.9408,1.9373,1.9289,0.0,0.0,1.8345,1.8186,0.0,0.0,1.7582,1.7582,1.7582,0.0,1.7582,1.7582,1.7582,1.7582,1.7582,1.7582,1.774,1.8048,1.8819,0.0,0.0,0.0,0.0,0.0,0.0,2.3746,2.3038,0.0,2.4202,2.4202,2.4202,2.4137,2.3781,2.1904,2.0675,1.9849,1.918,1.8236,1.7359,1.7057,1.662,0.0,1.6204,0.0,1.5784,0.0,0.0,0.0,1.5784,0.0,0.0,0.0,0.0,0.0,0.0,0.0,0.0,0.0,0.0,0.0,0.0,0.0,0.0,0.0,0.0,2.132,0.0,2.1553,0.0,0.0,0.0,0.0,0.0,2.4595,2.5663,2.667,2.608,2.6038,2.6794,2.6805,2.6928,2.7185,2.6969,2.6505,2.583,2.4956,2.4026,2.3091,2.3091,2.3091,2.3091,2.3091,2.3091,2.3101,2.2882,2.2662,2.2407,2.2298,2.2501,2.2922,2.3023,2.3538,2.4202,2.4202,2.4202,2.4202,2.0814,2.04,0.0,0.0,0.0,2.1711,2.1711,2.1711,2.1593,2.1246,2.1191,0.0,0.0,0.0,0.0,0.0,0.0,1.7582,1.7582,0.0,1.7582,1.7582,1.7582,1.7582,1.7582,1.7582,1.8101,1.9176,1.9176,0.0,0.0,0.0,0.0,0.0,2.4152,2.4202,2.4152,2.4202,2.4202,2.4202,2.4202,2.3914,2.3411,0.0,2.1855,2.1556,1.9822,0.0,0.0,1.883,1.8064,0.0,0.0,0.0,0.0,0.0,0.0,0.0,0.0,0.0,0.0,1.5784,0.0,0.0,0.0,0.0,1.5195,0.0,0.0,0.0,0.0,0.0,0.0,0.0,0.0,0.0,0.0,0.0,0.0,0.0,0.0,0.0,0.0,2.4092,2.4829,2.5484,2.5526,2.561,2.5819,2.5819,2.6246,2.7185,2.6329,2.5819,2.5777,2.4956,2.4026,2.3091,2.3091,2.3091,2.3091,2.3091,2.3091,2.3101,2.2882,2.2662,2.2426,2.2606,2.2751,2.295,2.3325,2.3785,2.4202,2.4202,2.4202,2.4202,0.0,0.0,0.0,0.0,0.0,2.1182,2.1182,2.1182,2.1143,2.1076,2.106,0.0,0.0,2.0313,1.9901,0.0,0.0,1.8356,1.7635,1.7582,0.0,1.7582,1.7582,1.7582,1.7582,1.8304,1.8819,1.9176,2.0672,0.0,0.0,0.0,0.0,0.0,0.0,2.4202,0.0,0.0,0.0,0.0,0.0,2.3618,2.3441,0.0,2.2333,2.1411,2.0626,1.9831,0.0,1.8907,1.8565,1.8288,1.8288,1.7598,1.681,1.681,1.6298,0.0,0.0,0.0,1.5784,1.5784,0.0,0.0,0.0,0.0,0.0,0.0,0.0,0.0,0.0,0.0,0.0,0.0,0.0,0.0,0.0,0.0,0.0,0.0,0.0,0.0,0.0,0.0,2.3377,2.4467,2.4059,2.4069,2.4914,2.4956,2.5084,2.5421,2.5126,2.4956,2.4956,2.4026,2.3396,2.3091,2.3091,2.3091,2.3091,2.3091,2.3091,2.3091,2.3013,2.2784,2.2426,2.2742,2.2889,2.295,2.3343,2.3794,2.4202,2.4202,2.4202,2.4202,2.2979,0.0,0.0,0.0,2.2055,2.2055,2.2055,2.2055,2.2055,2.2055,2.2055,0.0,2.1497,0.0,2.1038,0.0,1.9797,1.9487,1.8819,1.8767,0.0,1.8767,1.8767,1.8767,0.0,1.9435,2.0004,0.0,0.0,2.2728,0.0,0.0,0.0,0.0,0.0,2.4202,2.4202,2.4202,2.4202,0.0,0.0,2.3373,0.0,0.0,2.2555,2.1611,0.0,2.0718,2.0067,1.9879,1.9613,1.9338,1.9338,1.865,1.7831,1.7831,1.7358,1.685,1.685,1.685,0.0,1.685,1.6622,0.0,1.5618,0.0,1.4841,0.0,0.0,0.0,0.0,0.0,0.0,0.0,0.0,0.0,0.0,1.9338,0.0,0.0,0.0,0.0,0.0,2.1963,2.2353,2.3333,2.2916,2.3003,0.0,2.395,2.4155,2.4498,2.4155,2.4155,2.4498,2.356,2.3091,2.3091,2.3091,2.3091,2.3091,2.3091,2.3091,2.3091,2.3091,2.2828,2.2435,2.3002,2.3121,2.2959,2.3547,2.3923,2.4202,2.4202,2.4202,2.4202,2.4251,2.4251,2.4251,2.4251,2.4202,2.4202,0.0,0.0,2.4202,0.0,2.4251,2.3845,2.2728,2.2627,2.2165,2.1089,2.0987,2.0987,2.0885,2.0885,0.0,0.0,2.0885,2.0885,2.0885,0.0,0.0,0.0,0.0,0.0,0.0,0.0,0.0,0.0,2.4202,0.0,2.4202,2.4202,2.4192,2.4137,2.3657,2.3166,2.2693,2.2674,2.2528,2.2245,2.1869,2.1741,2.1741,2.1696,2.1132,2.0393,2.0393,1.9658,1.888,1.888,1.8834,1.8788,1.8788,1.8788,1.8788,1.8788,1.8048,0.0,0.0,0.0,1.4953,0.0,0.0,0.0,0.0,0.0,0.0,0.0,0.0,0.0,0.0,0.0,0.0,0.0,0.0,0.0,0.0,2.1696,2.183,2.2097,2.2264,2.253,0.0,2.2969,2.3517,2.4413,2.356,2.3517,2.4413,2.356,2.3091,2.3091,2.3091,2.3091,2.3091,2.3091,2.3091,2.3091,2.3091,2.2828,2.2508,2.336,2.3383,2.2986,2.3889,2.4202,2.4202,2.4202,2.4202,2.4202,2.4686,2.4735,2.4735,2.4735,2.4449,2.4202,0.0,0.0,0.0,0.0,2.4587,2.4587,2.4332,2.4282,2.3768,2.2492,2.2391,0.0,0.0,0.0,0.0,2.0885,2.0885,2.0885,2.0885,2.1658,2.2215,2.2476,0.0,0.0,2.4202,0.0,0.0,0.0,0.0,0.0,2.4202,2.4202,2.3978,2.3639,2.3111,2.2833,2.2665,0.0,2.2424,2.2361,2.2089,2.2008,2.1963,2.1785,2.1553,2.132,2.132,2.0673,1.9931,1.9931,1.9384,1.8788,1.8788,1.8788,1.8788,1.8788,1.8377,1.7846,0.0,0.0,0.0,0.0,0.0,0.0,0.0,0.0,0.0,0.0,0.0,0.0,0.0,0.0,0.0,1.9063,0.0,0.0,2.1642,2.1696,2.183,2.2097,2.2141,0.0,0.0,0.0,2.3057,2.344,2.3222,2.3222,2.3484,2.3222,2.3091,2.3091,2.3091,2.3091,2.3091,2.3091,2.3091,2.3091,2.3091,2.2969,2.2773,2.3561,2.3645,2.3279,2.4075,2.4341,2.4202,2.4202,2.4202,2.4202,2.4883,2.4883,2.4883,2.4883,0.0,0.0,2.4498,2.4587,0.0,2.4677,2.4784,0.0,2.4883,2.4883,2.4578,2.3859,2.3759,0.0,2.2702,0.0,0.0,2.2501,2.2459,2.2409,2.2358,2.2929,0.0,2.3238,0.0,0.0,2.4202,0.0,0.0,0.0,0.0,2.4251,2.4332,2.4263,2.3987,2.355,2.3046,2.2808,0.0,2.2625,2.2618,2.2696,2.2495,2.2318,2.2176,2.1963,2.1874,2.1874,2.1741,2.141,2.1078,2.0943,2.0574,2.0212,2.0076,2.0076,2.0076,2.0076,1.9437,1.8761,1.8419,1.7709,1.7028,0.0,1.6698,1.6535,0.0,0.0,0.0,0.0,0.0,0.0,0.0,0.0,0.0,0.0,1.9567,0.0,2.1553,2.1696,2.1785,2.1919,2.2052,0.0,0.0,0.0,2.2882,2.3091,2.3091,2.3091,2.3091,2.3091,2.3091,2.3091,2.3091,2.3091,2.3091,2.3091,2.3091,2.3091,2.3091,2.2969,2.2861,2.3643,2.3728,2.3364,2.4075,2.4291,2.4202,2.4202,2.4202,2.4202,2.4981,2.4981,0.0,0.0,0.0,0.0,0.0,2.4981,0.0,2.4932,0.0,2.4981,2.4981,2.4981,2.4981,2.4981,2.4932,2.4932,2.4883,2.4883,2.4784,2.4578,2.4529,2.4489,2.4301,2.4301,2.4251,0.0,0.0,0.0,0.0,0.0,0.0,0.0,0.0,0.0,0.0,2.4267,2.3985,2.3559,2.3133,2.2898,2.2803,2.2847,2.2969,2.3101,2.2882,2.2662,2.2441,2.223,2.2141,2.2097,2.1874,2.1963,2.2097,2.1865,2.1919,2.2052,2.183,2.1741,2.1696,2.1741,2.0802,1.9756,1.9504,1.8414,1.7348,1.7123,1.7066,1.7025,0.0,0.0,0.0,0.0,0.0,0.0,0.0,0.0,0.0,0.0,0.0,0.0,0.0,0.0,0.0,0.0,2.1919,0.0,0.0,0.0,2.2838,2.3091,2.3091,2.3091,2.3091,2.3091,2.3091,2.3091,2.3091,2.3091,2.3091,2.3091,2.3091,2.3091,2.3091,2.3042,2.2982,2.3717,2.3841,2.356,2.4024,2.4202,2.4202,2.4202,2.4202,2.4202,2.5538,2.5538,0.0,0.0,0.0,2.5538,2.5538,2.5382,2.5235,2.5235,2.544,2.5538,2.5538,2.5538,2.5489,2.5235,2.5235,0.0,0.0,0.0,0.0,2.4833,2.4833,2.4784,2.4784,2.4784,2.4686,0.0,0.0,0.0,0.0,0.0,0.0,0.0,0.0,0.0,2.4305,2.3975,0.0,2.3123,2.2895,2.2817,2.2803,2.2969,2.3057,2.3091,2.3057,2.2925,2.2715,2.2441,2.2353,2.2353,2.2309,2.2309,2.2353,2.2309,2.2176,2.2097,2.2052,2.1874,2.1731,2.1963,2.1293,2.067,2.0815,1.9975,1.9154,1.9082,1.8984,1.8607,1.7917,0.0,0.0,0.0,0.0,0.0,0.0,0.0,0.0,0.0,0.0,2.0484,0.0,0.0,0.0,0.0,0.0,0.0,0.0,0.0,2.2652,0.0,2.3091,0.0,0.0,0.0,2.3091,2.3091,2.3091,2.3091,2.3091,2.3091,2.3091,2.3091,2.3091,2.3296,2.3676,2.4117,2.4458,2.4587,2.4482,2.4341,2.4202,2.4202,2.4202,2.4202,2.5684,0.0,0.0,0.0,0.0,0.0,0.0,2.5586,2.5489,2.5489,2.5635,2.5693,2.5693,2.5693,2.5645,2.5538,2.5489,2.543,2.5333,2.5333,2.5235,2.5137,2.5088,2.5039,2.4883,2.4883,2.4833,2.4686,0.0,0.0,0.0,0.0,0.0,0.0,0.0,2.4708,0.0,0.0,0.0,2.338,2.31,2.2969,2.2969,2.3047,2.3091,2.3091,2.3091,2.3057,2.2925,2.2706,2.2618,2.2574,2.2441,2.2485,2.2574,2.2441,2.2441,2.2451,2.2264,2.2176,2.2087,2.222,2.1635,2.1047,2.1182,2.0457,1.9715,1.9606,1.9518,1.9375,1.9052,1.8896,0.0,0.0,0.0,0.0,0.0,0.0,1.994,0.0,0.0,0.0,0.0,0.0,0.0,0.0,0.0,2.1909,2.2388,0.0,2.2618,0.0,0.0,0.0,2.3091,0.0,2.3091,2.3091,2.3091,2.3091,2.3091,2.3091,2.3091,2.3091,2.3091,2.3389,2.3838,2.4363,2.4765,2.5088,2.4686,2.4538,2.4548,2.4301,2.4251,2.4341,2.5693,2.5693,0.0,0.0,2.5693,2.5693,2.5693,2.5693,2.5693,2.5693,2.5693,2.5693,2.5693,2.5693,2.5693,2.5693,2.5693,2.5693,2.5693,2.5693,2.5586,2.5382,2.5391,2.5284,2.5079,2.5079,2.5039,0.0,0.0,0.0,0.0,0.0,0.0,0.0,0.0,0.0,0.0,0.0,2.374,2.3623,2.3227,2.3091,2.3091,2.3091,2.3091,2.3091,2.3091,2.3091,2.3101,2.2925,2.2838,2.2847,2.2618,2.2706,2.2838,2.2608,2.2662,2.275,2.253,2.2441,2.2388,2.2485,2.185,2.1265,2.1358,2.0628,1.9951,1.9794,1.9715,1.9699,1.9823,1.9911,0.0,0.0,0.0,0.0,0.0,0.0,0.0,0.0,0.0,0.0,2.1687,0.0,0.0,0.0,0.0,2.1954,2.2397,2.2441,2.2662,0.0,0.0,2.3091,2.3091,0.0,2.3091,2.3091,2.3091,2.3091,2.3091,2.3091,2.3091,2.3091,2.3091,2.3393,2.3994,2.4638,2.5093,2.5235,2.4833,2.4784,2.4843,2.4498,2.439,2.4489,0.0,0.0,0.0,0.0,0.0,2.5693,2.5693,2.5693,2.5693,2.5693,2.5693,2.5693,2.5693,2.5693,2.5693,2.5693,2.5693,2.5693,2.5693,2.5693,2.5693,2.5635,2.5635,2.5635,2.5635,2.5635,2.5489,0.0,0.0,2.5137,0.0,0.0,0.0,0.0,0.0,0.0,0.0,2.3984,2.3555,2.3149,2.311,2.3091,2.3091,2.3091,2.3091,2.3091,2.3091,2.3091,2.3091,2.3091,2.3057,2.3057,2.3047,2.3047,2.3057,2.3047,2.2925,2.2794,2.2759,2.2574,2.2441,2.2706,2.2126,2.1543,2.1802,2.1001,2.0264,2.0225,2.002,1.9843,1.9652,1.9919,2.0148,0.0,0.0,0.0,0.0,0.0,2.1597,2.1687,0.0,0.0,2.2052,2.183,0.0,0.0,2.2052,2.2176,2.2397,2.2618,2.2882,2.3091,2.3091,2.3091,2.3091,2.3091,2.3091,2.3091,2.3091,2.3091,2.3091,2.3091,2.3091,2.3091,2.3091,2.3559,2.4424,2.5265,2.5499,2.5284,2.5235,2.5079,2.4883,2.4833,2.4686,2.448,0.0,0.0,0.0,0.0,0.0,0.0,0.0,2.5693,2.5693,2.5693,2.5693,2.5693,2.5693,2.5693,2.5693,2.5693,2.5693,2.5693,2.5693,2.5693,2.5693,2.5693,2.5693,2.5693,2.5693,2.5693,2.5645,0.0,0.0,0.0,0.0,0.0,0.0,0.0,0.0,2.4443,2.4014,2.3584,2.3257,2.3091,2.3091,2.3091,2.3091,2.3091,2.3091,2.3091,2.3091,2.3091,2.3091,2.3091,2.3091,2.3091,2.3091,2.3091,2.3091,2.3091,2.3057,2.2969,2.2969,2.2882,2.2838,2.2969,2.2382,2.1761,2.1885,2.1161,2.045,2.0303,2.0108,1.9863,1.9784,1.9925,2.0073,2.0295,0.0,0.0,0.0,0.0,0.0,2.1741,0.0,2.1963,0.0,2.2008,0.0,0.0,0.0,2.2185,2.2397,2.2662,2.2882,2.3091,0.0,2.3091,2.3091,2.3091,2.3091,2.3091,2.3091,2.3091,2.3091,2.3091,2.3237,2.3545,2.3799,2.4248,2.4863,2.5478,2.5635,2.5538,2.5333,2.5333,2.5333,2.503,2.4833,2.4735,2.5693,0.0,2.5693,0.0,2.5693,2.5693,2.5693,2.5693,2.5693,2.5693,2.5693,2.5693,2.5693,2.5693,2.5693,2.5693,2.5693,2.5693,2.5693,2.5693,2.5693,2.5693,2.5693,0.0,2.5693,2.5693,2.5693,2.5693,2.5693,0.0,0.0,0.0,0.0,0.0,2.4424,2.4072,2.376,2.3276,2.3091,2.3091,2.3091,2.3091,2.3135,2.3396,2.3353,2.3144,2.3396,2.3353,2.3091,2.3091,2.3091,2.3091,2.3091,2.3091,2.3091,2.3091,2.3091,2.3091,2.3091,2.3091,2.3091,2.3091,2.2598,2.2041,2.1914,2.1309,2.0683,2.044,2.0225,2.0098,2.002,2.002,2.0163,2.0541,0.0,0.0,0.0,2.1879,0.0,2.183,2.1963,2.2141,2.2185,2.2141,0.0,0.0,0.0,2.2362,2.253,2.275,2.2969,0.0,0.0,0.0,2.3091,2.3091,2.3091,2.3091,2.3091,2.3091,2.3091,2.3091,2.3379,2.3809,2.4238,2.4668,2.5145,2.5557,2.5693,2.5684,2.5489,2.5538,2.5635,2.5284,2.5088,2.4981,2.5693,2.5693,2.5693,2.5693,2.5693,2.5693,2.5693,2.5693,2.5693,2.5693,2.5693,2.5693,2.5693,2.5693,2.5693,2.5693,2.5693,2.5693,2.5693,2.5693,2.5693,0.0,0.0,2.5693,2.5693,2.5693,2.5693,2.5693,0.0,0.0,2.5674,0.0,2.4844,2.4404,2.3984,2.3799,2.376,2.3276,2.3091,2.3091,2.3091,2.3091,2.3222,2.4112,2.3907,2.3222,2.4155,2.3897,2.3091,2.3091,2.3091,2.3091,2.3091,2.3091,2.3091,2.3091,2.3091,2.3091,2.3091,2.3091,2.3091,2.3091,2.2779,2.2402,2.1982,2.1543,2.1064,2.0693,2.0605,2.0527,2.0342,2.0303,2.0369,2.059,0.0,0.0,0.0,2.2142,0.0,2.2097,2.2097,2.2185,2.2397,2.223,0.0,0.0,0.0,0.0,0.0,0.0,0.0,2.3091,2.3091,0.0,2.3091,2.3091,2.3091,2.3091,2.3091,2.3091,2.3091,2.3091,2.3379,2.3809,2.4238,2.4668,2.5145,2.5557,2.5693,2.5693,2.5693,2.5693,2.5693,2.5684,2.5538,2.5284,2.7767,2.7767,2.7767,2.7767,2.7767,2.7767,2.7767,2.7767,2.7767,2.7767,2.7152,2.6972,2.7673,2.6524,2.5693,0.0,2.5693,2.5693,0.0,2.5693,2.5693,2.5693,2.5693,2.5693,2.5693,2.5693,2.5693,2.5693,0.0,0.0,0.0,2.4834,2.4394,2.3984,2.3848,2.3623,2.3286,2.3149,2.3091,2.3178,2.382,2.4026,2.4155,2.5031,2.52,2.4904,2.4616,2.4327,2.395,2.3309,2.3091,2.3091,2.3091,2.3091,2.3091,2.3091,2.3091,2.3091,2.3091,2.3091,2.3091,2.3091,2.2779,2.248,2.2344,2.1707,2.1151,2.1055,2.1025,2.0986,2.0946,2.1189,2.1392,2.1487,2.1813,0.0,2.2074,0.0,2.2574,2.2309,2.2485,2.2583,2.2671,2.2618,0.0,0.0,0.0,0.0,0.0,0.0,0.0,0.0,2.3091,0.0,2.3091,2.3091,2.3091,2.3091,2.3091,2.3091,2.311,2.3447,2.3818,2.4238,2.4668,2.5107,2.5537,2.5625,2.5693,2.5693,2.5693,2.5693,2.5693,2.5693,2.5538,2.5284,2.8819,2.8808,2.8855,2.8958,2.8947,2.8947,2.8947,2.8947,2.8947,2.8947,2.8344,2.8121,2.8727,2.7615,0.0,2.6284,2.6284,2.61,2.5732,2.5693,2.5693,2.5693,2.5693,2.5693,2.5693,2.5693,0.0,2.5693,2.5566,2.5264,2.4814,2.4385,2.3955,2.3545,2.3545,2.3344,2.3091,2.3091,2.3091,2.3178,2.4112,2.4498,2.4616,2.5872,2.6121,2.5777,2.5579,2.5084,2.4413,2.381,2.3387,2.3091,2.3091,2.3091,2.3091,2.3091,2.3091,2.3091,2.3091,2.3091,2.3091,2.3091,2.2896,2.2705,2.2549,2.1973,2.1475,2.1475,2.1475,2.1475,2.1475,2.1699,2.1934,2.21,2.2344,2.2526,2.2519,0.0,2.2838,0.0,0.0,0.0,0.0,2.2803,2.2882,0.0,0.0,0.0,0.0,0.0,0.0,2.3091,2.3091,2.3091,2.3091,2.3091,2.3091,2.3091,2.3091,2.3179,2.3344,2.3662,2.4111,2.4678,2.4951,2.5322,2.5693,2.5693,2.5693,2.5693,2.5693,2.5693,2.5693,2.5693,2.5586,2.543,2.9189,2.9235,2.9326,0.0,2.959,0.0,2.959,2.959,2.959,2.959,2.9315,2.9143,2.9235,2.9004,2.8495,2.7558,0.0,0.0,2.5965,2.5917,2.5917,2.5917,2.583,2.5781,2.5781,2.5732,2.5693,2.5693,2.5254,2.4814,2.4404,2.3955,2.3525,2.3091,2.3178,2.3178,2.3222,2.3266,2.3266,2.3266,2.4284,2.4669,2.4787,2.6599,2.6753,2.608,2.6928,2.6133,2.4659,2.4616,2.3983,2.3222,2.3266,2.3266,2.3178,2.3135,2.3091,2.3091,2.3091,2.3091,2.3091,2.3091,2.3091,2.2994,2.2646,2.2236,2.1934,2.1934,2.1934,2.1934,2.1934,2.1953,2.21,2.249,2.2559,2.2652,2.3042,2.3091,2.3013,0.0,0.0,0.0,2.2803,2.2803,2.2882,0.0,0.0,0.0,0.0,0.0,2.3091,2.3091,2.3091,2.3091,2.3091,2.3091,2.3091,2.3091,2.312,2.3398,2.3789,2.3857,2.4316,2.5116,2.5145,2.5352,2.5693,2.5693,2.5693,2.5693,2.5693,2.5693,2.5693,2.5693,2.5693,2.5693,0.0,0.0,3.1605,3.1693,3.1693,3.1693,3.1693,3.1693,3.1693,3.1693,3.0946,3.0756,3.1504,3.0857,3.0294,3.0056,2.8993,2.8262,2.7992,2.7992,2.7992,2.7992,2.7247,2.6819,2.6819,2.61,2.5693,2.5693,2.4951,2.4521,2.4394,2.3598,2.3198,2.3135,2.3864,2.4155,2.4198,2.4861,2.4776,2.4327,2.5924,2.6121,2.5704,2.7499,2.8047,2.7794,2.7348,2.6928,2.6464,2.5746,2.4904,2.4284,2.4946,2.4691,2.4026,2.3309,2.3091,2.3091,2.3091,2.3091,2.3091,2.3091,2.3091,2.3071,2.2974,2.2666,2.2363,2.2363,2.2363,2.2363,2.2363,2.2627,2.2838,2.2925,2.2945,2.2984,2.3081,2.3091,2.3091,0.0,2.3013,2.3013,2.3013,2.3013,2.3047,0.0,0.0,0.0,2.3091,2.3091,2.3091,2.3091,2.3091,2.3091,2.3091,2.3091,2.3091,2.3101,2.3477,2.3691,2.3809,2.4473,2.492,2.5135,2.543,2.5586,2.5693,2.5693,2.5693,2.5693,2.5693,2.5693,2.5693,2.5693,2.5693,2.5693,3.2519,3.2562,3.2605,3.2692,3.2736,3.2736,3.2736,3.2736,3.2736,3.2736,3.2133,3.1945,3.2463,3.1969,3.1593,3.1593,3.0306,2.9326,2.8866,2.8773,2.868,2.868,2.8168,2.7887,2.7887,2.7342,2.7067,2.7067,2.6403,2.5732,2.5062,2.4822,2.4349,2.3777,2.4701,2.5073,2.5126,2.5621,2.5537,2.52,2.6629,2.6887,2.6588,2.7966,2.851,2.8431,2.7966,2.7563,2.7133,2.6629,2.583,2.5115,2.5158,2.4872,2.4327,2.3396,2.3387,2.3734,2.3734,2.344,2.3091,2.3091,2.3091,2.3091,2.3091,2.2916,2.275,2.275,2.275,2.275,2.275,2.2945,2.3091,2.3091,2.3091,2.3091,2.3091,2.3091,2.3091,2.3091,2.3091,2.3091,2.3091,2.3091,2.3091,2.3091,2.3091,0.0,2.3091,2.3091,2.3091,2.3091,2.3091,2.3091,2.3091,2.3091,2.3091,2.3101,2.3584,2.3896,2.4102,2.4812,2.5176,2.5391,2.5635,2.5693,2.5693,2.5693,2.5693,2.5693,2.5693,2.5693,2.5693,2.5693,2.5693,2.5693,3.2723,3.2754,3.2853,3.3081,3.3124,3.3124,3.3124,3.3124,3.3124,3.3124,3.2896,3.2754,3.2754,3.2605,3.2531,3.2531,3.1504,3.0441,2.9555,2.9372,2.928,2.928,2.9096,2.9004,2.8958,2.8773,2.868,2.868,2.8302,2.7415,2.6138,2.6455,2.5905,2.4744,2.5621,2.5986,2.6038,2.6163,2.6121,2.608,2.701,2.7307,2.7307,2.8179,2.851,2.851,2.851,2.8007,2.7389,2.7389,2.6794,2.5913,2.5295,2.4999,2.4787,2.4102,2.4274,2.4616,2.437,2.3691,2.3091,2.3091,2.3091,2.3091,2.3091,2.3091,2.3091,2.3091,2.3091,2.3091,2.3091,2.3091,2.3091,2.3091,2.3091,2.3091,2.3091,0.0,2.3091,2.3091,2.3091,2.3091,2.3091,2.3091,2.3091,2.3091,2.3091,2.3091,2.3091,2.3091,2.3091,2.3091,2.3091,2.3091,2.3091,2.3091,2.313,2.3198,2.3672,2.4102,2.4531,2.4971,2.5371,2.5693,2.5693,2.5693,2.5693,2.5693,2.5693,2.5693,2.5693,2.5693,2.5693,2.5693,2.5693,2.5693,3.3025,3.3038,3.3038,3.3081,3.3124,3.3124,3.3124,3.3124,3.3124,3.3124,3.3081,3.3038,3.3038,3.3025,3.2995,3.2995,3.2581,3.222,3.1881,3.1837,3.1837,3.1837,3.0991,3.0441,3.0215,2.9235,2.868,2.868,2.8302,2.773,2.7073,2.6769,2.6235,2.5652,2.6588,2.6969,2.701,2.7765,2.7672,2.7051,2.7926,2.7846,2.7307,2.8179,2.851,2.851,2.851,2.8431,2.8299,2.8299,2.7713,2.7092,2.7672,2.7389,2.6887,2.7499,2.6659,2.5274,2.3724,2.3222,2.3091,2.3091,2.3091,2.3091,2.3091,2.3091,2.3091,2.3091,2.3091,2.3091,2.3091,2.3091,2.3091,2.3091,2.3091,2.3091,2.3091,0.0,2.3091,2.3091,2.3091,2.3091,2.3091,2.3091,2.3091,2.3091,2.3091,2.3091,2.3091,2.3091,2.3091,2.3091,2.3091,2.3091,2.3091,2.3091,2.3276,2.3691,2.4121,2.4551,2.5028,2.543,2.5625,2.5693,2.5693,2.5693,2.5693,2.5693,2.5693,2.5693,2.5693,2.5693,2.5693,2.5693,2.5693,2.5693,3.3124,3.3124,3.3124,3.3124,3.3124,3.3124,3.3124,3.3124,3.3124,3.3124,3.3124,3.3124,3.3124,3.3124,3.3124,3.3124,3.2982,3.2865,3.2779,3.2519,3.24,3.24,3.1969,3.1649,3.1516,3.0991,3.0666,3.0666,3.0533,2.9883,2.8881,2.9183,2.8522,2.7167,2.8099,2.8255,2.7926,2.8351,2.8259,2.7926,2.8339,2.8259,2.7926,2.8351,2.851,2.851,2.851,2.851,2.851,2.851,2.8219,2.7886,2.7805,2.751,2.7185,2.7092,2.6453,2.54,2.3594,2.3091,2.3091,2.3091,2.3091,2.3091,2.3091,2.3091,2.3091,2.3091,2.3091,2.3091,2.3091,2.3091,2.3091,2.3091,2.3091,0.0,0.0,2.3091,2.3091,2.3091,2.3091,2.3091,2.3091,2.3091,2.3091,2.3091,2.3091,2.3091,2.3091,2.3091,2.3091,2.3091,2.3091,2.3091,2.3091,2.3369,2.3594,2.3799,2.4453,2.4873,2.5135,2.5527,2.5693,2.5693,2.5693,2.5693,2.5693,2.5693,2.5693,2.5693,2.5693,2.5693,2.5693,2.5693,2.5693,2.5693,3.3124,3.3124,3.3124,3.3124,3.3124,3.3124,3.3124,3.3124,3.3124,3.3124,3.3124,3.3124,3.3124,3.3124,3.3124,3.3124,3.3124,3.3124,3.3124,3.2779,3.2562,3.2562,3.2519,3.2475,3.2475,3.2431,3.24,3.24,3.24,3.1746,3.0529,3.1266,3.0616,2.8917,2.9439,2.9387,2.8851,2.8678,2.863,2.863,2.863,2.863,2.863,2.859,2.8578,2.8538,2.851,2.851,2.851,2.851,2.851,2.8379,2.7713,2.751,2.7348,2.6629,2.6287,2.5777,2.4145,2.3604,2.344,2.344,2.3266,2.3091,2.3091,2.3091,2.3091,2.3091,2.3091,2.3091,2.3091,2.3091,2.3091,2.3091,0.0,0.0,0.0,2.3091,2.3091,2.3091,2.3091,2.3091,2.3091,2.3091,2.3091,2.3091,2.3091,2.3091,2.3091,2.3091,2.3091,2.3091,2.3091,2.3091,2.3091,2.3574,2.3838,2.3945,2.4707,2.5174,2.5234,2.5586,2.5693,2.5693,2.5693,2.5693,2.5693,2.5693,2.5693,2.5693,2.5693,2.5693,2.5693,2.5693,2.5693,2.5693,3.3124,3.3124,3.3124,3.3124,3.3124,3.3124,3.3124,3.3124,3.3124,3.3124,3.3124,3.3124,3.3124,3.3124,3.3124,3.3124,3.3124,3.3124,3.3124,3.3081,3.3038,3.3038,3.281,3.268,3.268,3.2519,3.24,3.24,3.24,3.2074,3.1504,3.1589,3.1257,3.0613,3.0175,2.9954,2.984,2.9273,2.9052,2.9052,2.9052,2.9052,2.9052,2.8843,2.8803,2.8764,2.8578,2.851,2.851,2.851,2.851,2.8471,2.8431,2.8391,2.8391,2.8299,2.7725,2.6887,2.5872,2.4988,2.4413,2.4413,2.3734,2.3091,2.3091,2.3091,2.3091,2.3091,2.3091,2.3091,2.3091,2.3091,2.3091,2.3091,0.0,0.0,2.3091,2.3091,2.3091,2.3091,2.3091,2.3091,2.3091,2.3091,2.3091,2.3091,2.3091,2.3091,2.3091,2.3091,2.3091,2.3091,2.3091,2.3091,2.3091,2.3574,2.3984,2.4375,2.4844,2.5283,2.5635,2.5674,2.5693,2.5693,2.5693,2.5693,2.5693,2.5693,2.5693,2.5693,2.5693,2.5693,2.5693,2.5693,2.5693,2.5693,3.3124,3.3124,3.3124,3.3124,3.3124,3.3124,3.3124,3.3124,3.3124,3.3124,3.3124,3.3124,3.3124,3.3124,3.3124,3.3124,3.3124,3.3124,3.3124,3.3124,3.3124,3.3124,3.2982,3.2939,3.2939,3.2865,3.2822,3.2822,3.2822,3.271,3.2511,3.2511,3.2169,3.1455,3.1257,3.0931,3.045,2.988,2.9659,2.9622,2.9239,2.9091,2.9091,2.9013,2.9013,2.8973,2.8895,2.8776,2.8685,2.8685,2.8618,2.851,2.851,2.851,2.851,2.851,2.8259,2.7926,2.758,2.6412,2.5326,2.5326,2.4616,2.3983,2.3983,2.3517,2.3091,2.3091,2.3091,2.3091,2.3091,2.3091,2.3091,2.3091,0.0,2.3091,2.3091,2.3091,2.3091,2.3091,2.3091,2.3091,2.3091,2.3091,2.3091,2.3091,2.3091,2.3091,2.3091,2.3091,2.3091,2.3091,2.3398,2.3545,2.3545,2.3965,2.4394,2.4824,2.5273,2.5566,2.5693,2.5693,2.5693,2.5693,2.5693,2.5693,2.5693,2.5693,2.5693,2.5693,2.5693,2.5693,2.5693,2.5693,2.5693,2.5693,3.3124,3.3124,3.3124,3.3124,3.3124,3.3124,3.3124,3.3124,3.3124,3.3124,3.3124,3.3124,3.3124,3.3124,3.3124,3.3124,3.3124,3.3124,3.3124,3.3124,3.3124,3.3124,3.3124,3.3124,3.3124,3.3124,3.3124,3.3124,3.3124,3.3124,3.3124,3.3124,3.2825,3.2279,3.2105,3.1722,3.1199,3.0679,3.0329,3.0143,2.9747,2.9448,2.93,2.9248,2.9197,2.9197,2.9131,2.9013,2.8882,2.8843,2.8724,2.8578,2.851,2.851,2.851,2.851,2.851,2.851,2.851,2.758,2.6577,2.6287,2.5579,2.4914,2.4914,2.4402,2.393,2.393,2.3734,2.3517,2.3517,2.3309,2.3091,2.3091,2.3091,2.3091,2.3091,2.3091,2.3091,2.3091,2.3091,2.3091,2.3091,2.3091,2.3091,2.3091,2.3091,2.3091,2.3091,2.3091,2.3159,2.334,2.3633,2.3916,2.4189,2.4473,2.4775,2.5116,2.5527,2.5693,2.5693,2.5693,2.5693,2.5693,2.5693,2.5693,2.5693,2.5693,2.5693,2.5693,2.5693,2.5693,2.5693,2.5693,2.5693,2.5693,3.3124,3.3124,3.3124,3.3124,3.3124,3.3124,3.3124,3.3124,3.3124,3.3124,3.3124,3.3124,3.3124,3.3124,3.3124,3.3124,3.3124,3.3124,3.3124,3.3124,3.3124,3.3124,3.3124,3.3124,3.3124,3.3124,3.3124,3.3124,3.3124,3.3124,3.3124,3.3124,3.3124,3.3056,3.2466,3.2227,3.2177,3.1625,3.1097,3.062,3.062,3.0294,2.9792,2.9521,2.9419,2.938,2.9157,2.9091,2.9052,2.8882,2.8791,2.8764,2.8578,2.851,2.851,2.851,2.851,2.851,2.851,2.851,2.8299,2.7429,2.6505,2.5819,2.5819,2.583,2.5777,2.5777,2.5115,2.4498,2.4498,2.3734,2.3135,2.3135,2.3135,2.3135,2.3135,2.3135,2.3135,2.3091,2.3091,2.3091,2.3091,2.3091,2.3091,2.3091,2.3091,2.3091,2.3091,2.3101,2.334,2.3779,2.3799,2.4209,2.5106,2.5116,2.5116,2.5125,2.5527,2.5693,2.5693,2.5693,2.5693,2.5693,2.5693,2.5693,2.5693,2.5693,2.5693,2.5693,2.5693,2.5693,2.5693,2.5693,2.5693,2.5693,3.3124,3.3124,3.3124,3.3124,3.3124,3.3124,3.3124,3.3124,3.3124,3.3124,3.3124,3.3124,3.3124,3.3124,3.3124,3.3124,3.3124,3.3124,3.3124,3.3124,3.3124,3.3124,3.3124,3.3124,3.3124,3.3124,3.3124,3.3124,3.3124,3.3124,3.3124,3.3124,3.3124,3.3111,3.2893,3.2817,3.278,3.2215,3.1876,3.17,3.1311,3.0846,3.033,3.0278,2.9988,2.9663,2.9624,2.9495,2.9314,2.9223,2.9118,2.8973,2.8764,2.8618,2.855,2.8657,2.8618,2.855,2.8657,2.8618,2.8431,2.8179,2.7429,2.6794,2.6794,2.6287,2.5777,2.5777,2.5568,2.5411,2.5411,2.52,2.4988,2.4988,2.4988,2.4988,2.4988,2.4988,2.4776,2.4155,2.4069,2.381,2.3178,2.3091,2.3091,2.3091,2.3091,2.3091,2.3091,2.3428,2.3652,2.3789,2.4375,2.5169,2.6155,2.5426,2.5225,2.5537,2.5625,2.5693,2.5693,2.5693,2.5693,2.5693,2.5693,2.5693,2.5693,2.5693,2.5693,2.5693,2.5693,2.5693,2.5693,2.5693,2.5693,2.5693,3.3124,3.3124,3.3124,3.3124,3.3124,3.3124,3.3124,3.3124,3.3124,3.3124,3.3124,3.3124,3.3124,3.3124,3.3124,3.3124,3.3124,3.3124,3.3124,3.3124,3.3124,3.3124,3.3124,3.3124,3.3124,3.3124,3.3124,3.3124,3.3124,3.3124,3.3124,3.3124,3.3124,3.3124,3.3124,3.3124,3.3099,3.2704,3.2416,3.2177,3.1851,3.1399,3.0922,3.0922,3.0721,3.0394,3.0193,3.0027,2.9847,2.9493,2.9223,2.8961,2.8843,2.8657,2.855,2.8724,2.8657,2.855,2.8764,2.8657,2.851,2.851,2.8087,2.7713,2.7713,2.7296,2.6876,2.6876,2.6577,2.6329,2.6329,2.6038,2.5777,2.5777,2.5777,2.5777,2.5777,2.5495,2.5073,2.4584,2.4155,2.3734,2.3178,2.3091,2.3091,2.3091,2.3091,2.3169,2.3389,2.3652,2.4116,2.4897,2.5428,2.6247,2.7427,2.6421,2.6052,2.6274,2.6274,2.61,2.5693,2.5693,2.5693,2.5693,2.5693,2.5693,2.5693,2.5693,2.5693,2.5693,2.5693,2.5693,2.5693,2.5693,2.5693,2.5693,3.3124,3.3124,3.3124,3.3124,3.3124,3.3124,3.3124,3.3124,3.3124,3.3124,3.3124,3.3124,3.3124,3.3124,3.3124,3.3124,3.3124,3.3124,3.3124,3.3124,3.3124,3.3124,3.3124,3.3124,3.3124,3.3124,3.3124,3.3124,3.3124,3.3124,3.3124,3.3124,3.3124,3.3124,3.3124,3.3124,3.3124,3.3124,3.2767,3.229,3.229,3.1964,3.1461,3.1461,3.1436,3.1336,3.0859,3.0683,3.0568,2.9833,2.9332,2.9016,2.9016,2.8846,2.8662,2.8876,2.8761,2.859,2.8803,2.8685,2.855,2.855,2.855,2.851,2.851,2.851,2.851,2.851,2.7886,2.7307,2.7307,2.6629,2.6027,2.6027,2.6027,2.6027,2.6027,2.5368,2.4787,2.4627,2.3854,2.3266,2.3135,2.3091,2.3135,2.3222,2.3174,2.3369,2.3769,2.3867,2.475,2.6542,2.6651,2.7334,2.8669,2.7793,2.7284,2.7189,2.7094,2.66,2.5693,2.5693,2.5693,2.5693,2.5693,2.5693,2.5693,2.5693,2.5693,2.5693,2.5693,2.5693,2.5693,2.5693,2.5693,2.5693,3.3124,3.3124,3.3124,3.3124,3.3124,3.3124,3.3124,3.3124,3.3124,3.3124,3.3124,3.3124,3.3124,3.3124,3.3124,3.3124,3.3124,3.3124,3.3124,3.3124,3.3124,3.3124,3.3124,3.3124,3.3124,3.3124,3.3124,3.3124,3.3124,3.3124,3.3124,3.3124,3.3124,3.3124,3.3124,3.3124,3.3124,3.3124,3.3006,3.288,3.288,3.2541,3.2039,3.2039,3.1763,3.1373,3.126,3.1223,3.1198,3.1032,3.0792,3.0601,3.0601,3.0167,2.9714,2.993,2.9502,2.9013,2.9223,2.8988,2.8724,2.8724,2.8724,2.8685,2.855,2.851,2.851,2.851,2.8339,2.8219,2.8219,2.8047,2.7914,2.7914,2.7914,2.7914,2.7914,2.7753,2.7133,2.5704,2.5326,2.4648,2.3222,2.3091,2.3387,2.4155,2.3845,2.3691,2.3779,2.4434,2.5378,2.6563,2.6905,2.7604,2.8669,2.8484,2.7981,2.7189,2.6418,2.5917,2.5693,2.5693,2.5693,2.5693,2.5693,2.5693,2.5693,2.5693,2.5693,2.5693,2.5693,2.5693,2.5693,2.5693,2.5693,2.5693,3.3124,3.3124,3.3124,3.3124,3.3124,3.3124,3.3124,3.3124,3.3124,3.3124,3.3124,3.3124,3.3124,3.3124,3.3124,3.3124,3.3124,3.3124,3.3124,3.3124,3.3124,3.3124,3.3124,3.3124,3.3124,3.3124,3.3124,3.3124,3.3124,3.3124,3.3124,3.3124,3.3124,3.3124,3.3124,3.3124,3.3124,3.3124,3.3124,3.3124,3.3124,3.2893,3.2629,3.2629,3.2453,3.2152,3.1876,3.1612,3.1386,3.1386,3.1276,3.1083,3.1083,3.0774,3.0417,3.062,3.0329,2.9933,3.0174,2.988,2.9496,2.9241,2.918,2.908,2.8718,2.8697,2.8736,2.8657,2.8657,2.8618,2.851,2.851,2.851,2.851,2.851,2.851,2.851,2.8139,2.7551,2.6588,2.608,2.5453,2.4478,2.4402,2.4495,2.4755,2.4554,2.4611,2.5088,2.5587,2.6574,2.8252,2.8503,2.9096,3.0125,2.9189,2.8448,2.7887,2.6877,2.6139,2.5693,2.5693,2.5693,2.5693,2.5693,2.5693,2.5693,2.5693,2.5693,2.5693,2.5693,2.5693,2.5693,2.5693,2.5693,2.5693,3.3124,3.3124,3.3124,3.3124,3.3124,3.3124,3.3124,3.3124,3.3124,3.3124,3.3124,3.3124,3.3124,3.3124,3.3124,3.3124,3.3124,3.3124,3.3124,3.3124,3.3124,3.3124,3.3124,3.3124,3.3124,3.3124,3.3124,3.3124,3.3124,3.3124,3.3124,3.3124,3.3124,3.3124,3.3124,3.3124,3.3124,3.3124,3.3124,3.3124,3.3124,3.3124,3.3124,3.3124,3.3124,3.3018,3.2528,3.2064,3.1675,3.1675,3.1564,3.1452,3.1452,3.1253,3.1083,3.1261,3.1104,3.0947,3.1124,3.0823,3.0411,2.9972,2.9862,2.974,2.9288,2.9135,2.9052,2.8882,2.8831,2.8764,2.8578,2.851,2.851,2.851,2.851,2.851,2.851,2.7886,2.7389,2.7226,2.637,2.5861,2.6038,2.5812,2.5605,2.5349,2.535,2.572,2.6578,2.6821,2.7955,3.0113,3.0215,3.0588,3.1427,2.9795,2.8866,2.868,2.784,2.6924,2.5965,2.5965,2.5965,2.5965,2.5781,2.5693,2.5693,2.5693,2.5693,2.5693,2.5693,2.5693,2.5693,2.5693,2.5693,2.5693,3.3124,3.3124,3.3124,3.3124,3.3124,3.3124,3.3124,3.3124,3.3124,3.3124,3.3124,3.3124,3.3124,3.3124,3.3124,3.3124,3.3124,3.3124,3.3124,3.3124,3.3124,3.3124,3.3124,3.3124,3.3124,3.3124,3.3124,3.3124,3.3124,3.3124,3.3124,3.3124,3.3124,3.3124,3.3124,3.3124,3.3124,3.3124,3.3124,3.3124,3.3124,3.3124,3.3124,3.3124,3.3124,3.3111,3.2993,3.2918,3.2855,3.2855,3.2855,3.2812,3.2812,3.2461,3.2018,3.206,3.168,3.1304,3.1358,3.1194,3.0989,3.0914,3.0889,3.0877,3.0803,2.9927,2.9091,2.9052,2.8922,2.8803,2.8764,2.8618,2.851,2.851,2.851,2.851,2.851,2.8391,2.8059,2.7307,2.637,2.6121,2.6928,2.5904,2.5481,2.6239,2.6336,2.6438,2.6609,2.7765,2.8984,3.0158,3.0215,3.026,3.0407,3.0113,2.9567,2.868,2.8588,2.7981,2.701,2.701,2.701,2.6962,2.61,2.5693,2.5693,2.5693,2.5693,2.5693,2.5693,2.5693,2.5693,2.5693,2.5693,2.5693,3.3124,3.3124,3.3124,3.3124,3.3124,3.3124,3.3124,3.3124,3.3124,3.3124,3.3124,3.3124,3.3124,3.3124,3.3124,3.3124,3.3124,3.3124,3.3124,3.3124,3.3124,3.3124,3.3124,3.3124,3.3124,3.3124,3.3124,3.3124,3.3124,3.3124,3.3124,3.3124,3.3124,3.3124,3.3124,3.3124,3.3124,3.3124,3.3124,3.3124,3.3124,3.3124,3.3124,3.3124,3.3124,3.3124,3.3124,3.3124,3.3124,3.3124,3.3124,3.3124,3.3124,3.2905,3.2692,3.2692,3.2528,3.2328,3.2328,3.2159,3.1928,3.1617,3.1543,3.1456,3.1158,3.0739,3.0263,2.9858,2.9446,2.9067,2.8843,2.8724,2.8657,2.8657,2.8657,2.8697,2.8816,2.8828,2.8657,2.8155,2.7906,2.7722,2.7545,2.7739,2.7706,2.7315,2.782,2.8317,2.8582,2.9215,2.9977,3.1003,3.1048,3.1048,3.1048,3.0486,2.9977,2.9567,2.9567,2.9004,2.8028,2.7463,2.7189,2.7142,2.6149,2.6014,2.6504,2.5917,2.6004,2.6466,2.5917,2.6052,2.6552,2.6552,2.6552,2.6552]}]]